<?xml version="1.0" encoding="UTF-8" standalone="no" ?>
<gpx xmlns="http://www.topografix.com/GPX/1/1" xmlns:xsi="http://www.w3.org/2001/XMLSchema-instance" xsi:schemaLocation="http://www.topografix.com/GPX/1/1 http://www.topografix.com/GPX/1/1/gpx.xsd" version="1.1" creator="VisuGPX - https://www.visugpx.com">
  <metadata>
    <name>Lac St-Guerin - Col de la Louze- lac de la Tempête</name>
    <desc><![CDATA[Groupe Rando entre Nous Martigues.
Séjour à Arêches.
Belle journée, superbe vue sur le Mt Blanc, petits lacs de la Tempête très agréables.
]]></desc>
  </metadata>
  <trk>
    <name><![CDATA[Col Louze Lacs Tempète]]></name>
    <trkseg>
      <trkpt lat="45.65095" lon="6.58102">
        <ele>1592</ele>
        <time>2011-08-30T07:02:25Z</time>
      </trkpt>
      <trkpt lat="45.651" lon="6.5814">
        <ele>1590</ele>
        <time>2011-08-30T07:02:53Z</time>
      </trkpt>
      <trkpt lat="45.65104" lon="6.58155">
        <ele>1589</ele>
        <time>2011-08-30T07:03:03Z</time>
      </trkpt>
      <trkpt lat="45.65108" lon="6.58169">
        <ele>1587</ele>
        <time>2011-08-30T07:03:13Z</time>
      </trkpt>
      <trkpt lat="45.65111" lon="6.58185">
        <ele>1586</ele>
        <time>2011-08-30T07:03:23Z</time>
      </trkpt>
      <trkpt lat="45.65114" lon="6.58202">
        <ele>1586</ele>
        <time>2011-08-30T07:03:34Z</time>
      </trkpt>
      <trkpt lat="45.65116" lon="6.58217">
        <ele>1585</ele>
        <time>2011-08-30T07:03:45Z</time>
      </trkpt>
      <trkpt lat="45.65119" lon="6.58235">
        <ele>1585</ele>
        <time>2011-08-30T07:03:55Z</time>
      </trkpt>
      <trkpt lat="45.65119" lon="6.58252">
        <ele>1584</ele>
        <time>2011-08-30T07:04:05Z</time>
      </trkpt>
      <trkpt lat="45.65111" lon="6.58254">
        <ele>1582</ele>
        <time>2011-08-30T07:04:16Z</time>
      </trkpt>
      <trkpt lat="45.65108" lon="6.5824">
        <ele>1580</ele>
        <time>2011-08-30T07:04:26Z</time>
      </trkpt>
      <trkpt lat="45.65105" lon="6.58224">
        <ele>1578</ele>
        <time>2011-08-30T07:04:36Z</time>
      </trkpt>
      <trkpt lat="45.65102" lon="6.58208">
        <ele>1577</ele>
        <time>2011-08-30T07:04:46Z</time>
      </trkpt>
      <trkpt lat="45.65099" lon="6.58192">
        <ele>1575</ele>
        <time>2011-08-30T07:04:56Z</time>
      </trkpt>
      <trkpt lat="45.65096" lon="6.58186">
        <ele>1574</ele>
        <time>2011-08-30T07:05:08Z</time>
      </trkpt>
      <trkpt lat="45.65093" lon="6.58168">
        <ele>1574</ele>
        <time>2011-08-30T07:05:18Z</time>
      </trkpt>
      <trkpt lat="45.65087" lon="6.5815">
        <ele>1574</ele>
        <time>2011-08-30T07:05:28Z</time>
      </trkpt>
      <trkpt lat="45.65081" lon="6.58134">
        <ele>1574</ele>
        <time>2011-08-30T07:05:38Z</time>
      </trkpt>
      <trkpt lat="45.65076" lon="6.58119">
        <ele>1574</ele>
        <time>2011-08-30T07:05:48Z</time>
      </trkpt>
      <trkpt lat="45.65069" lon="6.58102">
        <ele>1574</ele>
        <time>2011-08-30T07:05:58Z</time>
      </trkpt>
      <trkpt lat="45.65063" lon="6.58086">
        <ele>1573</ele>
        <time>2011-08-30T07:06:08Z</time>
      </trkpt>
      <trkpt lat="45.65063" lon="6.58071">
        <ele>1571</ele>
        <time>2011-08-30T07:06:20Z</time>
      </trkpt>
      <trkpt lat="45.65065" lon="6.58059">
        <ele>1569</ele>
        <time>2011-08-30T07:06:30Z</time>
      </trkpt>
      <trkpt lat="45.65066" lon="6.5805">
        <ele>1568</ele>
        <time>2011-08-30T07:06:44Z</time>
      </trkpt>
      <trkpt lat="45.65059" lon="6.58041">
        <ele>1568</ele>
        <time>2011-08-30T07:06:54Z</time>
      </trkpt>
      <trkpt lat="45.65052" lon="6.58033">
        <ele>1568</ele>
        <time>2011-08-30T07:07:05Z</time>
      </trkpt>
      <trkpt lat="45.65048" lon="6.58032">
        <ele>1568</ele>
        <time>2011-08-30T07:07:17Z</time>
      </trkpt>
      <trkpt lat="45.65047" lon="6.58031">
        <ele>1568</ele>
        <time>2011-08-30T07:07:38Z</time>
      </trkpt>
      <trkpt lat="45.6504" lon="6.58021">
        <ele>1568</ele>
        <time>2011-08-30T07:07:49Z</time>
      </trkpt>
      <trkpt lat="45.65033" lon="6.58009">
        <ele>1568</ele>
        <time>2011-08-30T07:07:59Z</time>
      </trkpt>
      <trkpt lat="45.65028" lon="6.58001">
        <ele>1567</ele>
        <time>2011-08-30T07:08:14Z</time>
      </trkpt>
      <trkpt lat="45.65025" lon="6.57992">
        <ele>1567</ele>
        <time>2011-08-30T07:08:24Z</time>
      </trkpt>
      <trkpt lat="45.65023" lon="6.57977">
        <ele>1567</ele>
        <time>2011-08-30T07:08:34Z</time>
      </trkpt>
      <trkpt lat="45.6502" lon="6.5796">
        <ele>1567</ele>
        <time>2011-08-30T07:08:44Z</time>
      </trkpt>
      <trkpt lat="45.65017" lon="6.57943">
        <ele>1567</ele>
        <time>2011-08-30T07:08:54Z</time>
      </trkpt>
      <trkpt lat="45.65016" lon="6.57927">
        <ele>1567</ele>
        <time>2011-08-30T07:09:04Z</time>
      </trkpt>
      <trkpt lat="45.65017" lon="6.57909">
        <ele>1567</ele>
        <time>2011-08-30T07:09:14Z</time>
      </trkpt>
      <trkpt lat="45.65018" lon="6.57893">
        <ele>1567</ele>
        <time>2011-08-30T07:09:24Z</time>
      </trkpt>
      <trkpt lat="45.65022" lon="6.5788">
        <ele>1567</ele>
        <time>2011-08-30T07:09:34Z</time>
      </trkpt>
      <trkpt lat="45.65025" lon="6.57866">
        <ele>1567</ele>
        <time>2011-08-30T07:09:45Z</time>
      </trkpt>
      <trkpt lat="45.6503" lon="6.57851">
        <ele>1567</ele>
        <time>2011-08-30T07:09:55Z</time>
      </trkpt>
      <trkpt lat="45.65038" lon="6.57834">
        <ele>1567</ele>
        <time>2011-08-30T07:10:06Z</time>
      </trkpt>
      <trkpt lat="45.65049" lon="6.5782">
        <ele>1567</ele>
        <time>2011-08-30T07:10:17Z</time>
      </trkpt>
      <trkpt lat="45.65057" lon="6.57809">
        <ele>1573</ele>
        <time>2011-08-30T07:10:27Z</time>
      </trkpt>
      <trkpt lat="45.65049" lon="6.57808">
        <ele>1583</ele>
        <time>2011-08-30T07:10:37Z</time>
      </trkpt>
      <trkpt lat="45.65036" lon="6.57805">
        <ele>1587</ele>
        <time>2011-08-30T07:10:47Z</time>
      </trkpt>
      <trkpt lat="45.65022" lon="6.578">
        <ele>1587</ele>
        <time>2011-08-30T07:10:57Z</time>
      </trkpt>
      <trkpt lat="45.65007" lon="6.57794">
        <ele>1584</ele>
        <time>2011-08-30T07:11:07Z</time>
      </trkpt>
      <trkpt lat="45.64994" lon="6.57788">
        <ele>1578</ele>
        <time>2011-08-30T07:11:17Z</time>
      </trkpt>
      <trkpt lat="45.6498" lon="6.57787">
        <ele>1576</ele>
        <time>2011-08-30T07:11:27Z</time>
      </trkpt>
      <trkpt lat="45.64968" lon="6.57786">
        <ele>1572</ele>
        <time>2011-08-30T07:11:37Z</time>
      </trkpt>
      <trkpt lat="45.64954" lon="6.57784">
        <ele>1571</ele>
        <time>2011-08-30T07:11:47Z</time>
      </trkpt>
      <trkpt lat="45.64946" lon="6.57785">
        <ele>1571</ele>
        <time>2011-08-30T07:11:58Z</time>
      </trkpt>
      <trkpt lat="45.64932" lon="6.5778">
        <ele>1571</ele>
        <time>2011-08-30T07:12:09Z</time>
      </trkpt>
      <trkpt lat="45.64919" lon="6.57774">
        <ele>1571</ele>
        <time>2011-08-30T07:12:19Z</time>
      </trkpt>
      <trkpt lat="45.64906" lon="6.57771">
        <ele>1571</ele>
        <time>2011-08-30T07:12:29Z</time>
      </trkpt>
      <trkpt lat="45.64895" lon="6.57768">
        <ele>1571</ele>
        <time>2011-08-30T07:12:39Z</time>
      </trkpt>
      <trkpt lat="45.64882" lon="6.57764">
        <ele>1571</ele>
        <time>2011-08-30T07:12:49Z</time>
      </trkpt>
      <trkpt lat="45.64873" lon="6.57764">
        <ele>1574</ele>
        <time>2011-08-30T07:13:02Z</time>
      </trkpt>
      <trkpt lat="45.64859" lon="6.57759">
        <ele>1575</ele>
        <time>2011-08-30T07:13:12Z</time>
      </trkpt>
      <trkpt lat="45.64847" lon="6.57757">
        <ele>1575</ele>
        <time>2011-08-30T07:13:22Z</time>
      </trkpt>
      <trkpt lat="45.64831" lon="6.57751">
        <ele>1575</ele>
        <time>2011-08-30T07:13:32Z</time>
      </trkpt>
      <trkpt lat="45.64819" lon="6.57749">
        <ele>1575</ele>
        <time>2011-08-30T07:13:43Z</time>
      </trkpt>
      <trkpt lat="45.64803" lon="6.57748">
        <ele>1574</ele>
        <time>2011-08-30T07:13:54Z</time>
      </trkpt>
      <trkpt lat="45.64788" lon="6.57748">
        <ele>1573</ele>
        <time>2011-08-30T07:14:05Z</time>
      </trkpt>
      <trkpt lat="45.64775" lon="6.57751">
        <ele>1573</ele>
        <time>2011-08-30T07:14:16Z</time>
      </trkpt>
      <trkpt lat="45.64761" lon="6.57748">
        <ele>1571</ele>
        <time>2011-08-30T07:14:28Z</time>
      </trkpt>
      <trkpt lat="45.64749" lon="6.57743">
        <ele>1570</ele>
        <time>2011-08-30T07:14:38Z</time>
      </trkpt>
      <trkpt lat="45.64732" lon="6.57739">
        <ele>1570</ele>
        <time>2011-08-30T07:14:48Z</time>
      </trkpt>
      <trkpt lat="45.64718" lon="6.57735">
        <ele>1565</ele>
        <time>2011-08-30T07:14:59Z</time>
      </trkpt>
      <trkpt lat="45.64705" lon="6.57732">
        <ele>1562</ele>
        <time>2011-08-30T07:15:10Z</time>
      </trkpt>
      <trkpt lat="45.64689" lon="6.57732">
        <ele>1562</ele>
        <time>2011-08-30T07:15:22Z</time>
      </trkpt>
      <trkpt lat="45.64672" lon="6.57728">
        <ele>1561</ele>
        <time>2011-08-30T07:15:33Z</time>
      </trkpt>
      <trkpt lat="45.64655" lon="6.57729">
        <ele>1561</ele>
        <time>2011-08-30T07:15:45Z</time>
      </trkpt>
      <trkpt lat="45.64639" lon="6.57725">
        <ele>1559</ele>
        <time>2011-08-30T07:15:57Z</time>
      </trkpt>
      <trkpt lat="45.64624" lon="6.57722">
        <ele>1559</ele>
        <time>2011-08-30T07:16:09Z</time>
      </trkpt>
      <trkpt lat="45.64612" lon="6.57717">
        <ele>1556</ele>
        <time>2011-08-30T07:16:19Z</time>
      </trkpt>
      <trkpt lat="45.64595" lon="6.57715">
        <ele>1554</ele>
        <time>2011-08-30T07:16:29Z</time>
      </trkpt>
      <trkpt lat="45.6458" lon="6.57714">
        <ele>1552</ele>
        <time>2011-08-30T07:16:39Z</time>
      </trkpt>
      <trkpt lat="45.64569" lon="6.57716">
        <ele>1550</ele>
        <time>2011-08-30T07:16:49Z</time>
      </trkpt>
      <trkpt lat="45.64551" lon="6.57713">
        <ele>1548</ele>
        <time>2011-08-30T07:16:59Z</time>
      </trkpt>
      <trkpt lat="45.64541" lon="6.57706">
        <ele>1539</ele>
        <time>2011-08-30T07:17:09Z</time>
      </trkpt>
      <trkpt lat="45.64528" lon="6.57708">
        <ele>1539</ele>
        <time>2011-08-30T07:17:19Z</time>
      </trkpt>
      <trkpt lat="45.64518" lon="6.57708">
        <ele>1541</ele>
        <time>2011-08-30T07:17:30Z</time>
      </trkpt>
      <trkpt lat="45.64508" lon="6.5772">
        <ele>1557</ele>
        <time>2011-08-30T07:17:41Z</time>
      </trkpt>
      <trkpt lat="45.64501" lon="6.57719">
        <ele>1576</ele>
        <time>2011-08-30T07:17:52Z</time>
      </trkpt>
      <trkpt lat="45.64487" lon="6.57723">
        <ele>1585</ele>
        <time>2011-08-30T07:18:02Z</time>
      </trkpt>
      <trkpt lat="45.64473" lon="6.57717">
        <ele>1590</ele>
        <time>2011-08-30T07:18:13Z</time>
      </trkpt>
      <trkpt lat="45.64462" lon="6.57715">
        <ele>1590</ele>
        <time>2011-08-30T07:18:23Z</time>
      </trkpt>
      <trkpt lat="45.64442" lon="6.57711">
        <ele>1591</ele>
        <time>2011-08-30T07:18:34Z</time>
      </trkpt>
      <trkpt lat="45.64431" lon="6.57707">
        <ele>1585</ele>
        <time>2011-08-30T07:18:47Z</time>
      </trkpt>
      <trkpt lat="45.64413" lon="6.57703">
        <ele>1584</ele>
        <time>2011-08-30T07:18:57Z</time>
      </trkpt>
      <trkpt lat="45.644" lon="6.57702">
        <ele>1584</ele>
        <time>2011-08-30T07:19:08Z</time>
      </trkpt>
      <trkpt lat="45.64387" lon="6.577">
        <ele>1580</ele>
        <time>2011-08-30T07:19:20Z</time>
      </trkpt>
      <trkpt lat="45.64378" lon="6.57697">
        <ele>1583</ele>
        <time>2011-08-30T07:19:30Z</time>
      </trkpt>
      <trkpt lat="45.64373" lon="6.57692">
        <ele>1583</ele>
        <time>2011-08-30T07:19:40Z</time>
      </trkpt>
      <trkpt lat="45.6436" lon="6.57687">
        <ele>1583</ele>
        <time>2011-08-30T07:19:50Z</time>
      </trkpt>
      <trkpt lat="45.64347" lon="6.57686">
        <ele>1583</ele>
        <time>2011-08-30T07:20:01Z</time>
      </trkpt>
      <trkpt lat="45.6433" lon="6.57676">
        <ele>1586</ele>
        <time>2011-08-30T07:20:11Z</time>
      </trkpt>
      <trkpt lat="45.64314" lon="6.57666">
        <ele>1583</ele>
        <time>2011-08-30T07:20:28Z</time>
      </trkpt>
      <trkpt lat="45.64298" lon="6.5766">
        <ele>1581</ele>
        <time>2011-08-30T07:20:38Z</time>
      </trkpt>
      <trkpt lat="45.64283" lon="6.57656">
        <ele>1572</ele>
        <time>2011-08-30T07:20:50Z</time>
      </trkpt>
      <trkpt lat="45.64269" lon="6.57653">
        <ele>1571</ele>
        <time>2011-08-30T07:21:01Z</time>
      </trkpt>
      <trkpt lat="45.6426" lon="6.57648">
        <ele>1570</ele>
        <time>2011-08-30T07:21:11Z</time>
      </trkpt>
      <trkpt lat="45.64249" lon="6.57641">
        <ele>1570</ele>
        <time>2011-08-30T07:21:22Z</time>
      </trkpt>
      <trkpt lat="45.64238" lon="6.57634">
        <ele>1570</ele>
        <time>2011-08-30T07:21:32Z</time>
      </trkpt>
      <trkpt lat="45.64228" lon="6.57624">
        <ele>1570</ele>
        <time>2011-08-30T07:21:42Z</time>
      </trkpt>
      <trkpt lat="45.64219" lon="6.57613">
        <ele>1570</ele>
        <time>2011-08-30T07:21:53Z</time>
      </trkpt>
      <trkpt lat="45.64215" lon="6.57609">
        <ele>1570</ele>
        <time>2011-08-30T07:22:04Z</time>
      </trkpt>
      <trkpt lat="45.64209" lon="6.57602">
        <ele>1570</ele>
        <time>2011-08-30T07:22:15Z</time>
      </trkpt>
      <trkpt lat="45.64198" lon="6.57594">
        <ele>1570</ele>
        <time>2011-08-30T07:22:26Z</time>
      </trkpt>
      <trkpt lat="45.64186" lon="6.57588">
        <ele>1570</ele>
        <time>2011-08-30T07:22:38Z</time>
      </trkpt>
      <trkpt lat="45.6418" lon="6.57588">
        <ele>1570</ele>
        <time>2011-08-30T07:23:13Z</time>
      </trkpt>
      <trkpt lat="45.6418" lon="6.57587">
        <ele>1570</ele>
        <time>2011-08-30T07:23:32Z</time>
      </trkpt>
      <trkpt lat="45.64178" lon="6.57587">
        <ele>1568</ele>
        <time>2011-08-30T07:23:42Z</time>
      </trkpt>
      <trkpt lat="45.64178" lon="6.57589">
        <ele>1568</ele>
        <time>2011-08-30T07:24:00Z</time>
      </trkpt>
      <trkpt lat="45.64179" lon="6.57588">
        <ele>1569</ele>
        <time>2011-08-30T07:25:22Z</time>
      </trkpt>
      <trkpt lat="45.64179" lon="6.57587">
        <ele>1569</ele>
        <time>2011-08-30T07:25:39Z</time>
      </trkpt>
      <trkpt lat="45.64179" lon="6.57585">
        <ele>1569</ele>
        <time>2011-08-30T07:25:49Z</time>
      </trkpt>
      <trkpt lat="45.64172" lon="6.57584">
        <ele>1569</ele>
        <time>2011-08-30T07:25:59Z</time>
      </trkpt>
      <trkpt lat="45.64164" lon="6.57582">
        <ele>1569</ele>
        <time>2011-08-30T07:26:10Z</time>
      </trkpt>
      <trkpt lat="45.64156" lon="6.57582">
        <ele>1571</ele>
        <time>2011-08-30T07:26:21Z</time>
      </trkpt>
      <trkpt lat="45.6415" lon="6.57579">
        <ele>1572</ele>
        <time>2011-08-30T07:26:31Z</time>
      </trkpt>
      <trkpt lat="45.64147" lon="6.57575">
        <ele>1575</ele>
        <time>2011-08-30T07:26:42Z</time>
      </trkpt>
      <trkpt lat="45.64144" lon="6.57566">
        <ele>1578</ele>
        <time>2011-08-30T07:26:53Z</time>
      </trkpt>
      <trkpt lat="45.6414" lon="6.57559">
        <ele>1579</ele>
        <time>2011-08-30T07:27:04Z</time>
      </trkpt>
      <trkpt lat="45.64141" lon="6.57551">
        <ele>1580</ele>
        <time>2011-08-30T07:27:16Z</time>
      </trkpt>
      <trkpt lat="45.64138" lon="6.57539">
        <ele>1582</ele>
        <time>2011-08-30T07:27:26Z</time>
      </trkpt>
      <trkpt lat="45.64131" lon="6.57526">
        <ele>1582</ele>
        <time>2011-08-30T07:27:37Z</time>
      </trkpt>
      <trkpt lat="45.64124" lon="6.57517">
        <ele>1582</ele>
        <time>2011-08-30T07:27:47Z</time>
      </trkpt>
      <trkpt lat="45.64116" lon="6.5751">
        <ele>1582</ele>
        <time>2011-08-30T07:27:57Z</time>
      </trkpt>
      <trkpt lat="45.64107" lon="6.57502">
        <ele>1582</ele>
        <time>2011-08-30T07:28:07Z</time>
      </trkpt>
      <trkpt lat="45.64098" lon="6.57491">
        <ele>1582</ele>
        <time>2011-08-30T07:28:18Z</time>
      </trkpt>
      <trkpt lat="45.64092" lon="6.57483">
        <ele>1582</ele>
        <time>2011-08-30T07:28:28Z</time>
      </trkpt>
      <trkpt lat="45.64085" lon="6.57477">
        <ele>1582</ele>
        <time>2011-08-30T07:28:40Z</time>
      </trkpt>
      <trkpt lat="45.6408" lon="6.57471">
        <ele>1583</ele>
        <time>2011-08-30T07:28:51Z</time>
      </trkpt>
      <trkpt lat="45.6407" lon="6.57469">
        <ele>1585</ele>
        <time>2011-08-30T07:29:01Z</time>
      </trkpt>
      <trkpt lat="45.64058" lon="6.57459">
        <ele>1585</ele>
        <time>2011-08-30T07:29:11Z</time>
      </trkpt>
      <trkpt lat="45.64048" lon="6.57449">
        <ele>1587</ele>
        <time>2011-08-30T07:29:22Z</time>
      </trkpt>
      <trkpt lat="45.64038" lon="6.5744">
        <ele>1588</ele>
        <time>2011-08-30T07:29:33Z</time>
      </trkpt>
      <trkpt lat="45.64029" lon="6.57436">
        <ele>1589</ele>
        <time>2011-08-30T07:29:43Z</time>
      </trkpt>
      <trkpt lat="45.6402" lon="6.57435">
        <ele>1590</ele>
        <time>2011-08-30T07:29:54Z</time>
      </trkpt>
      <trkpt lat="45.64012" lon="6.57429">
        <ele>1593</ele>
        <time>2011-08-30T07:30:04Z</time>
      </trkpt>
      <trkpt lat="45.6401" lon="6.57418">
        <ele>1594</ele>
        <time>2011-08-30T07:30:14Z</time>
      </trkpt>
      <trkpt lat="45.64009" lon="6.57408">
        <ele>1596</ele>
        <time>2011-08-30T07:30:24Z</time>
      </trkpt>
      <trkpt lat="45.64008" lon="6.57398">
        <ele>1599</ele>
        <time>2011-08-30T07:30:34Z</time>
      </trkpt>
      <trkpt lat="45.64006" lon="6.57387">
        <ele>1600</ele>
        <time>2011-08-30T07:30:44Z</time>
      </trkpt>
      <trkpt lat="45.63998" lon="6.57378">
        <ele>1600</ele>
        <time>2011-08-30T07:30:54Z</time>
      </trkpt>
      <trkpt lat="45.6399" lon="6.57371">
        <ele>1600</ele>
        <time>2011-08-30T07:31:04Z</time>
      </trkpt>
      <trkpt lat="45.63982" lon="6.57364">
        <ele>1600</ele>
        <time>2011-08-30T07:31:14Z</time>
      </trkpt>
      <trkpt lat="45.63973" lon="6.57356">
        <ele>1600</ele>
        <time>2011-08-30T07:31:25Z</time>
      </trkpt>
      <trkpt lat="45.63963" lon="6.57351">
        <ele>1602</ele>
        <time>2011-08-30T07:31:36Z</time>
      </trkpt>
      <trkpt lat="45.63956" lon="6.57348">
        <ele>1603</ele>
        <time>2011-08-30T07:31:47Z</time>
      </trkpt>
      <trkpt lat="45.63946" lon="6.57348">
        <ele>1605</ele>
        <time>2011-08-30T07:31:58Z</time>
      </trkpt>
      <trkpt lat="45.63939" lon="6.57342">
        <ele>1605</ele>
        <time>2011-08-30T07:32:08Z</time>
      </trkpt>
      <trkpt lat="45.63933" lon="6.57341">
        <ele>1606</ele>
        <time>2011-08-30T07:32:18Z</time>
      </trkpt>
      <trkpt lat="45.63929" lon="6.57331">
        <ele>1606</ele>
        <time>2011-08-30T07:32:28Z</time>
      </trkpt>
      <trkpt lat="45.63925" lon="6.5732">
        <ele>1608</ele>
        <time>2011-08-30T07:32:38Z</time>
      </trkpt>
      <trkpt lat="45.63922" lon="6.5731">
        <ele>1609</ele>
        <time>2011-08-30T07:32:48Z</time>
      </trkpt>
      <trkpt lat="45.63918" lon="6.57302">
        <ele>1609</ele>
        <time>2011-08-30T07:32:58Z</time>
      </trkpt>
      <trkpt lat="45.63913" lon="6.57294">
        <ele>1611</ele>
        <time>2011-08-30T07:33:08Z</time>
      </trkpt>
      <trkpt lat="45.63908" lon="6.57287">
        <ele>1611</ele>
        <time>2011-08-30T07:33:19Z</time>
      </trkpt>
      <trkpt lat="45.63903" lon="6.5728">
        <ele>1611</ele>
        <time>2011-08-30T07:33:30Z</time>
      </trkpt>
      <trkpt lat="45.63901" lon="6.57273">
        <ele>1614</ele>
        <time>2011-08-30T07:33:40Z</time>
      </trkpt>
      <trkpt lat="45.63897" lon="6.57266">
        <ele>1617</ele>
        <time>2011-08-30T07:33:51Z</time>
      </trkpt>
      <trkpt lat="45.63893" lon="6.5726">
        <ele>1618</ele>
        <time>2011-08-30T07:34:01Z</time>
      </trkpt>
      <trkpt lat="45.63889" lon="6.57252">
        <ele>1620</ele>
        <time>2011-08-30T07:34:11Z</time>
      </trkpt>
      <trkpt lat="45.63885" lon="6.57242">
        <ele>1623</ele>
        <time>2011-08-30T07:34:21Z</time>
      </trkpt>
      <trkpt lat="45.63879" lon="6.57234">
        <ele>1626</ele>
        <time>2011-08-30T07:34:31Z</time>
      </trkpt>
      <trkpt lat="45.63873" lon="6.57227">
        <ele>1626</ele>
        <time>2011-08-30T07:34:41Z</time>
      </trkpt>
      <trkpt lat="45.63865" lon="6.57219">
        <ele>1626</ele>
        <time>2011-08-30T07:34:51Z</time>
      </trkpt>
      <trkpt lat="45.6386" lon="6.57212">
        <ele>1626</ele>
        <time>2011-08-30T07:35:03Z</time>
      </trkpt>
      <trkpt lat="45.63856" lon="6.57207">
        <ele>1626</ele>
        <time>2011-08-30T07:35:13Z</time>
      </trkpt>
      <trkpt lat="45.63851" lon="6.57202">
        <ele>1626</ele>
        <time>2011-08-30T07:35:23Z</time>
      </trkpt>
      <trkpt lat="45.63844" lon="6.57198">
        <ele>1626</ele>
        <time>2011-08-30T07:35:35Z</time>
      </trkpt>
      <trkpt lat="45.63836" lon="6.57191">
        <ele>1628</ele>
        <time>2011-08-30T07:35:46Z</time>
      </trkpt>
      <trkpt lat="45.63832" lon="6.5718">
        <ele>1629</ele>
        <time>2011-08-30T07:35:56Z</time>
      </trkpt>
      <trkpt lat="45.63829" lon="6.57166">
        <ele>1631</ele>
        <time>2011-08-30T07:36:06Z</time>
      </trkpt>
      <trkpt lat="45.63823" lon="6.5716">
        <ele>1631</ele>
        <time>2011-08-30T07:36:17Z</time>
      </trkpt>
      <trkpt lat="45.63816" lon="6.57157">
        <ele>1631</ele>
        <time>2011-08-30T07:36:28Z</time>
      </trkpt>
      <trkpt lat="45.63809" lon="6.57153">
        <ele>1631</ele>
        <time>2011-08-30T07:36:38Z</time>
      </trkpt>
      <trkpt lat="45.63804" lon="6.57149">
        <ele>1631</ele>
        <time>2011-08-30T07:36:51Z</time>
      </trkpt>
      <trkpt lat="45.63797" lon="6.57149">
        <ele>1632</ele>
        <time>2011-08-30T07:37:01Z</time>
      </trkpt>
      <trkpt lat="45.63794" lon="6.57139">
        <ele>1632</ele>
        <time>2011-08-30T07:37:12Z</time>
      </trkpt>
      <trkpt lat="45.63792" lon="6.57128">
        <ele>1633</ele>
        <time>2011-08-30T07:37:22Z</time>
      </trkpt>
      <trkpt lat="45.63791" lon="6.5712">
        <ele>1633</ele>
        <time>2011-08-30T07:37:32Z</time>
      </trkpt>
      <trkpt lat="45.63789" lon="6.5711">
        <ele>1633</ele>
        <time>2011-08-30T07:37:43Z</time>
      </trkpt>
      <trkpt lat="45.63784" lon="6.57102">
        <ele>1634</ele>
        <time>2011-08-30T07:37:54Z</time>
      </trkpt>
      <trkpt lat="45.63784" lon="6.57099">
        <ele>1636</ele>
        <time>2011-08-30T07:38:04Z</time>
      </trkpt>
      <trkpt lat="45.6378" lon="6.57095">
        <ele>1637</ele>
        <time>2011-08-30T07:38:17Z</time>
      </trkpt>
      <trkpt lat="45.63774" lon="6.57093">
        <ele>1637</ele>
        <time>2011-08-30T07:38:28Z</time>
      </trkpt>
      <trkpt lat="45.63773" lon="6.57105">
        <ele>1639</ele>
        <time>2011-08-30T07:38:38Z</time>
      </trkpt>
      <trkpt lat="45.6377" lon="6.57115">
        <ele>1641</ele>
        <time>2011-08-30T07:38:48Z</time>
      </trkpt>
      <trkpt lat="45.63766" lon="6.57112">
        <ele>1644</ele>
        <time>2011-08-30T07:39:00Z</time>
      </trkpt>
      <trkpt lat="45.63769" lon="6.57105">
        <ele>1652</ele>
        <time>2011-08-30T07:39:10Z</time>
      </trkpt>
      <trkpt lat="45.63766" lon="6.57101">
        <ele>1654</ele>
        <time>2011-08-30T07:39:20Z</time>
      </trkpt>
      <trkpt lat="45.63766" lon="6.5709">
        <ele>1660</ele>
        <time>2011-08-30T07:39:30Z</time>
      </trkpt>
      <trkpt lat="45.63762" lon="6.57082">
        <ele>1660</ele>
        <time>2011-08-30T07:39:42Z</time>
      </trkpt>
      <trkpt lat="45.63757" lon="6.57086">
        <ele>1660</ele>
        <time>2011-08-30T07:39:52Z</time>
      </trkpt>
      <trkpt lat="45.63752" lon="6.57093">
        <ele>1660</ele>
        <time>2011-08-30T07:40:02Z</time>
      </trkpt>
      <trkpt lat="45.63748" lon="6.57089">
        <ele>1658</ele>
        <time>2011-08-30T07:40:12Z</time>
      </trkpt>
      <trkpt lat="45.63747" lon="6.57083">
        <ele>1658</ele>
        <time>2011-08-30T07:40:24Z</time>
      </trkpt>
      <trkpt lat="45.63742" lon="6.57081">
        <ele>1658</ele>
        <time>2011-08-30T07:40:34Z</time>
      </trkpt>
      <trkpt lat="45.63738" lon="6.57087">
        <ele>1658</ele>
        <time>2011-08-30T07:40:44Z</time>
      </trkpt>
      <trkpt lat="45.63736" lon="6.57081">
        <ele>1660</ele>
        <time>2011-08-30T07:40:54Z</time>
      </trkpt>
      <trkpt lat="45.63731" lon="6.57078">
        <ele>1661</ele>
        <time>2011-08-30T07:41:05Z</time>
      </trkpt>
      <trkpt lat="45.63725" lon="6.57083">
        <ele>1662</ele>
        <time>2011-08-30T07:41:16Z</time>
      </trkpt>
      <trkpt lat="45.6372" lon="6.57078">
        <ele>1665</ele>
        <time>2011-08-30T07:41:30Z</time>
      </trkpt>
      <trkpt lat="45.63717" lon="6.57075">
        <ele>1668</ele>
        <time>2011-08-30T07:41:40Z</time>
      </trkpt>
      <trkpt lat="45.63713" lon="6.57071">
        <ele>1669</ele>
        <time>2011-08-30T07:41:51Z</time>
      </trkpt>
      <trkpt lat="45.6371" lon="6.57069">
        <ele>1669</ele>
        <time>2011-08-30T07:42:05Z</time>
      </trkpt>
      <trkpt lat="45.63708" lon="6.57067">
        <ele>1673</ele>
        <time>2011-08-30T07:42:17Z</time>
      </trkpt>
      <trkpt lat="45.63712" lon="6.57063">
        <ele>1681</ele>
        <time>2011-08-30T07:42:27Z</time>
      </trkpt>
      <trkpt lat="45.63708" lon="6.5706">
        <ele>1683</ele>
        <time>2011-08-30T07:42:38Z</time>
      </trkpt>
      <trkpt lat="45.63701" lon="6.57057">
        <ele>1683</ele>
        <time>2011-08-30T07:42:48Z</time>
      </trkpt>
      <trkpt lat="45.63695" lon="6.57052">
        <ele>1680</ele>
        <time>2011-08-30T07:42:59Z</time>
      </trkpt>
      <trkpt lat="45.6369" lon="6.57056">
        <ele>1680</ele>
        <time>2011-08-30T07:43:09Z</time>
      </trkpt>
      <trkpt lat="45.63686" lon="6.57063">
        <ele>1680</ele>
        <time>2011-08-30T07:43:19Z</time>
      </trkpt>
      <trkpt lat="45.63679" lon="6.57066">
        <ele>1680</ele>
        <time>2011-08-30T07:43:29Z</time>
      </trkpt>
      <trkpt lat="45.63672" lon="6.57069">
        <ele>1680</ele>
        <time>2011-08-30T07:43:39Z</time>
      </trkpt>
      <trkpt lat="45.6367" lon="6.57064">
        <ele>1680</ele>
        <time>2011-08-30T07:43:49Z</time>
      </trkpt>
      <trkpt lat="45.63665" lon="6.57061">
        <ele>1681</ele>
        <time>2011-08-30T07:44:00Z</time>
      </trkpt>
      <trkpt lat="45.63657" lon="6.57058">
        <ele>1684</ele>
        <time>2011-08-30T07:44:10Z</time>
      </trkpt>
      <trkpt lat="45.63649" lon="6.57055">
        <ele>1687</ele>
        <time>2011-08-30T07:44:21Z</time>
      </trkpt>
      <trkpt lat="45.63646" lon="6.57049">
        <ele>1687</ele>
        <time>2011-08-30T07:44:34Z</time>
      </trkpt>
      <trkpt lat="45.63643" lon="6.57043">
        <ele>1687</ele>
        <time>2011-08-30T07:44:46Z</time>
      </trkpt>
      <trkpt lat="45.63632" lon="6.57037">
        <ele>1687</ele>
        <time>2011-08-30T07:44:56Z</time>
      </trkpt>
      <trkpt lat="45.63621" lon="6.57034">
        <ele>1687</ele>
        <time>2011-08-30T07:45:08Z</time>
      </trkpt>
      <trkpt lat="45.63624" lon="6.57031">
        <ele>1690</ele>
        <time>2011-08-30T07:45:19Z</time>
      </trkpt>
      <trkpt lat="45.6363" lon="6.57026">
        <ele>1692</ele>
        <time>2011-08-30T07:45:30Z</time>
      </trkpt>
      <trkpt lat="45.63633" lon="6.57026">
        <ele>1696</ele>
        <time>2011-08-30T07:45:40Z</time>
      </trkpt>
      <trkpt lat="45.63636" lon="6.57018">
        <ele>1696</ele>
        <time>2011-08-30T07:45:52Z</time>
      </trkpt>
      <trkpt lat="45.63638" lon="6.57012">
        <ele>1696</ele>
        <time>2011-08-30T07:46:02Z</time>
      </trkpt>
      <trkpt lat="45.63636" lon="6.57">
        <ele>1696</ele>
        <time>2011-08-30T07:46:12Z</time>
      </trkpt>
      <trkpt lat="45.6363" lon="6.5699">
        <ele>1696</ele>
        <time>2011-08-30T07:46:22Z</time>
      </trkpt>
      <trkpt lat="45.63623" lon="6.56977">
        <ele>1695</ele>
        <time>2011-08-30T07:46:33Z</time>
      </trkpt>
      <trkpt lat="45.63615" lon="6.56967">
        <ele>1695</ele>
        <time>2011-08-30T07:46:43Z</time>
      </trkpt>
      <trkpt lat="45.63609" lon="6.56956">
        <ele>1695</ele>
        <time>2011-08-30T07:46:53Z</time>
      </trkpt>
      <trkpt lat="45.63601" lon="6.56952">
        <ele>1695</ele>
        <time>2011-08-30T07:47:03Z</time>
      </trkpt>
      <trkpt lat="45.63596" lon="6.56945">
        <ele>1695</ele>
        <time>2011-08-30T07:47:14Z</time>
      </trkpt>
      <trkpt lat="45.63595" lon="6.56937">
        <ele>1696</ele>
        <time>2011-08-30T07:47:24Z</time>
      </trkpt>
      <trkpt lat="45.6359" lon="6.56929">
        <ele>1697</ele>
        <time>2011-08-30T07:47:36Z</time>
      </trkpt>
      <trkpt lat="45.63587" lon="6.56923">
        <ele>1700</ele>
        <time>2011-08-30T07:47:47Z</time>
      </trkpt>
      <trkpt lat="45.63583" lon="6.56914">
        <ele>1700</ele>
        <time>2011-08-30T07:47:57Z</time>
      </trkpt>
      <trkpt lat="45.63572" lon="6.56913">
        <ele>1700</ele>
        <time>2011-08-30T07:48:07Z</time>
      </trkpt>
      <trkpt lat="45.63562" lon="6.56911">
        <ele>1703</ele>
        <time>2011-08-30T07:48:17Z</time>
      </trkpt>
      <trkpt lat="45.63553" lon="6.56911">
        <ele>1707</ele>
        <time>2011-08-30T07:48:28Z</time>
      </trkpt>
      <trkpt lat="45.63548" lon="6.5691">
        <ele>1709</ele>
        <time>2011-08-30T07:48:43Z</time>
      </trkpt>
      <trkpt lat="45.63544" lon="6.56907">
        <ele>1709</ele>
        <time>2011-08-30T07:48:54Z</time>
      </trkpt>
      <trkpt lat="45.6354" lon="6.56905">
        <ele>1709</ele>
        <time>2011-08-30T07:49:04Z</time>
      </trkpt>
      <trkpt lat="45.63532" lon="6.56896">
        <ele>1709</ele>
        <time>2011-08-30T07:49:15Z</time>
      </trkpt>
      <trkpt lat="45.6353" lon="6.56889">
        <ele>1711</ele>
        <time>2011-08-30T07:49:27Z</time>
      </trkpt>
      <trkpt lat="45.6353" lon="6.56882">
        <ele>1718</ele>
        <time>2011-08-30T07:49:37Z</time>
      </trkpt>
      <trkpt lat="45.63526" lon="6.5687">
        <ele>1718</ele>
        <time>2011-08-30T07:49:47Z</time>
      </trkpt>
      <trkpt lat="45.63522" lon="6.56863">
        <ele>1717</ele>
        <time>2011-08-30T07:49:58Z</time>
      </trkpt>
      <trkpt lat="45.63515" lon="6.56857">
        <ele>1717</ele>
        <time>2011-08-30T07:50:08Z</time>
      </trkpt>
      <trkpt lat="45.6351" lon="6.5685">
        <ele>1717</ele>
        <time>2011-08-30T07:50:20Z</time>
      </trkpt>
      <trkpt lat="45.63505" lon="6.56844">
        <ele>1717</ele>
        <time>2011-08-30T07:50:30Z</time>
      </trkpt>
      <trkpt lat="45.63497" lon="6.56841">
        <ele>1717</ele>
        <time>2011-08-30T07:50:40Z</time>
      </trkpt>
      <trkpt lat="45.6349" lon="6.56839">
        <ele>1717</ele>
        <time>2011-08-30T07:50:50Z</time>
      </trkpt>
      <trkpt lat="45.63483" lon="6.56832">
        <ele>1717</ele>
        <time>2011-08-30T07:51:01Z</time>
      </trkpt>
      <trkpt lat="45.63483" lon="6.5682">
        <ele>1718</ele>
        <time>2011-08-30T07:51:11Z</time>
      </trkpt>
      <trkpt lat="45.63485" lon="6.5681">
        <ele>1724</ele>
        <time>2011-08-30T07:51:22Z</time>
      </trkpt>
      <trkpt lat="45.63482" lon="6.568">
        <ele>1724</ele>
        <time>2011-08-30T07:51:32Z</time>
      </trkpt>
      <trkpt lat="45.6348" lon="6.56788">
        <ele>1724</ele>
        <time>2011-08-30T07:51:43Z</time>
      </trkpt>
      <trkpt lat="45.63475" lon="6.56777">
        <ele>1724</ele>
        <time>2011-08-30T07:51:53Z</time>
      </trkpt>
      <trkpt lat="45.63468" lon="6.56769">
        <ele>1724</ele>
        <time>2011-08-30T07:52:03Z</time>
      </trkpt>
      <trkpt lat="45.6346" lon="6.56764">
        <ele>1724</ele>
        <time>2011-08-30T07:52:13Z</time>
      </trkpt>
      <trkpt lat="45.6345" lon="6.56756">
        <ele>1724</ele>
        <time>2011-08-30T07:52:23Z</time>
      </trkpt>
      <trkpt lat="45.63443" lon="6.56753">
        <ele>1724</ele>
        <time>2011-08-30T07:52:33Z</time>
      </trkpt>
      <trkpt lat="45.63444" lon="6.56746">
        <ele>1728</ele>
        <time>2011-08-30T07:52:43Z</time>
      </trkpt>
      <trkpt lat="45.63439" lon="6.56732">
        <ele>1728</ele>
        <time>2011-08-30T07:52:54Z</time>
      </trkpt>
      <trkpt lat="45.63434" lon="6.56721">
        <ele>1728</ele>
        <time>2011-08-30T07:53:04Z</time>
      </trkpt>
      <trkpt lat="45.63429" lon="6.56712">
        <ele>1728</ele>
        <time>2011-08-30T07:53:16Z</time>
      </trkpt>
      <trkpt lat="45.63425" lon="6.56703">
        <ele>1728</ele>
        <time>2011-08-30T07:53:27Z</time>
      </trkpt>
      <trkpt lat="45.63421" lon="6.56696">
        <ele>1728</ele>
        <time>2011-08-30T07:53:37Z</time>
      </trkpt>
      <trkpt lat="45.63417" lon="6.56691">
        <ele>1728</ele>
        <time>2011-08-30T07:53:49Z</time>
      </trkpt>
      <trkpt lat="45.63413" lon="6.56688">
        <ele>1728</ele>
        <time>2011-08-30T07:54:07Z</time>
      </trkpt>
      <trkpt lat="45.63406" lon="6.56687">
        <ele>1729</ele>
        <time>2011-08-30T07:54:19Z</time>
      </trkpt>
      <trkpt lat="45.63401" lon="6.56681">
        <ele>1732</ele>
        <time>2011-08-30T07:54:29Z</time>
      </trkpt>
      <trkpt lat="45.63396" lon="6.56672">
        <ele>1732</ele>
        <time>2011-08-30T07:54:41Z</time>
      </trkpt>
      <trkpt lat="45.63401" lon="6.56668">
        <ele>1730</ele>
        <time>2011-08-30T07:54:51Z</time>
      </trkpt>
      <trkpt lat="45.63403" lon="6.56667">
        <ele>1730</ele>
        <time>2011-08-30T07:55:07Z</time>
      </trkpt>
      <trkpt lat="45.63402" lon="6.56665">
        <ele>1730</ele>
        <time>2011-08-30T07:55:20Z</time>
      </trkpt>
      <trkpt lat="45.63404" lon="6.56664">
        <ele>1730</ele>
        <time>2011-08-30T07:55:33Z</time>
      </trkpt>
      <trkpt lat="45.63406" lon="6.56666">
        <ele>1730</ele>
        <time>2011-08-30T07:55:45Z</time>
      </trkpt>
      <trkpt lat="45.63407" lon="6.56671">
        <ele>1732</ele>
        <time>2011-08-30T07:55:56Z</time>
      </trkpt>
      <trkpt lat="45.63406" lon="6.56671">
        <ele>1733</ele>
        <time>2011-08-30T07:56:15Z</time>
      </trkpt>
      <trkpt lat="45.63405" lon="6.56669">
        <ele>1733</ele>
        <time>2011-08-30T07:56:30Z</time>
      </trkpt>
      <trkpt lat="45.63406" lon="6.56664">
        <ele>1733</ele>
        <time>2011-08-30T07:56:45Z</time>
      </trkpt>
      <trkpt lat="45.63408" lon="6.56666">
        <ele>1733</ele>
        <time>2011-08-30T07:56:58Z</time>
      </trkpt>
      <trkpt lat="45.63407" lon="6.56666">
        <ele>1733</ele>
        <time>2011-08-30T07:57:08Z</time>
      </trkpt>
      <trkpt lat="45.63406" lon="6.56667">
        <ele>1732</ele>
        <time>2011-08-30T07:57:23Z</time>
      </trkpt>
      <trkpt lat="45.63407" lon="6.56669">
        <ele>1732</ele>
        <time>2011-08-30T07:57:34Z</time>
      </trkpt>
      <trkpt lat="45.63411" lon="6.56669">
        <ele>1732</ele>
        <time>2011-08-30T07:57:47Z</time>
      </trkpt>
      <trkpt lat="45.63415" lon="6.56663">
        <ele>1732</ele>
        <time>2011-08-30T07:57:57Z</time>
      </trkpt>
      <trkpt lat="45.63411" lon="6.56654">
        <ele>1732</ele>
        <time>2011-08-30T07:58:08Z</time>
      </trkpt>
      <trkpt lat="45.63408" lon="6.56644">
        <ele>1732</ele>
        <time>2011-08-30T07:58:19Z</time>
      </trkpt>
      <trkpt lat="45.63403" lon="6.56637">
        <ele>1734</ele>
        <time>2011-08-30T07:58:34Z</time>
      </trkpt>
      <trkpt lat="45.63406" lon="6.56632">
        <ele>1738</ele>
        <time>2011-08-30T07:58:45Z</time>
      </trkpt>
      <trkpt lat="45.63406" lon="6.56629">
        <ele>1738</ele>
        <time>2011-08-30T07:58:56Z</time>
      </trkpt>
      <trkpt lat="45.63408" lon="6.56623">
        <ele>1743</ele>
        <time>2011-08-30T07:59:10Z</time>
      </trkpt>
      <trkpt lat="45.63411" lon="6.56616">
        <ele>1744</ele>
        <time>2011-08-30T07:59:24Z</time>
      </trkpt>
      <trkpt lat="45.63405" lon="6.56609">
        <ele>1745</ele>
        <time>2011-08-30T07:59:35Z</time>
      </trkpt>
      <trkpt lat="45.634" lon="6.56601">
        <ele>1745</ele>
        <time>2011-08-30T07:59:46Z</time>
      </trkpt>
      <trkpt lat="45.63396" lon="6.56594">
        <ele>1745</ele>
        <time>2011-08-30T07:59:58Z</time>
      </trkpt>
      <trkpt lat="45.63388" lon="6.56593">
        <ele>1745</ele>
        <time>2011-08-30T08:00:08Z</time>
      </trkpt>
      <trkpt lat="45.63381" lon="6.56593">
        <ele>1747</ele>
        <time>2011-08-30T08:00:19Z</time>
      </trkpt>
      <trkpt lat="45.63379" lon="6.56589">
        <ele>1750</ele>
        <time>2011-08-30T08:00:32Z</time>
      </trkpt>
      <trkpt lat="45.63378" lon="6.56583">
        <ele>1750</ele>
        <time>2011-08-30T08:00:42Z</time>
      </trkpt>
      <trkpt lat="45.63372" lon="6.5658">
        <ele>1750</ele>
        <time>2011-08-30T08:00:53Z</time>
      </trkpt>
      <trkpt lat="45.63369" lon="6.56577">
        <ele>1751</ele>
        <time>2011-08-30T08:01:03Z</time>
      </trkpt>
      <trkpt lat="45.63363" lon="6.56573">
        <ele>1754</ele>
        <time>2011-08-30T08:01:14Z</time>
      </trkpt>
      <trkpt lat="45.63358" lon="6.56569">
        <ele>1756</ele>
        <time>2011-08-30T08:01:25Z</time>
      </trkpt>
      <trkpt lat="45.63351" lon="6.56566">
        <ele>1757</ele>
        <time>2011-08-30T08:01:36Z</time>
      </trkpt>
      <trkpt lat="45.63344" lon="6.56563">
        <ele>1759</ele>
        <time>2011-08-30T08:01:47Z</time>
      </trkpt>
      <trkpt lat="45.63339" lon="6.56557">
        <ele>1759</ele>
        <time>2011-08-30T08:01:59Z</time>
      </trkpt>
      <trkpt lat="45.63338" lon="6.56549">
        <ele>1760</ele>
        <time>2011-08-30T08:02:09Z</time>
      </trkpt>
      <trkpt lat="45.6333" lon="6.56546">
        <ele>1761</ele>
        <time>2011-08-30T08:02:20Z</time>
      </trkpt>
      <trkpt lat="45.63321" lon="6.5655">
        <ele>1763</ele>
        <time>2011-08-30T08:02:31Z</time>
      </trkpt>
      <trkpt lat="45.63315" lon="6.56545">
        <ele>1766</ele>
        <time>2011-08-30T08:02:42Z</time>
      </trkpt>
      <trkpt lat="45.63311" lon="6.56547">
        <ele>1766</ele>
        <time>2011-08-30T08:02:53Z</time>
      </trkpt>
      <trkpt lat="45.63308" lon="6.56557">
        <ele>1769</ele>
        <time>2011-08-30T08:03:04Z</time>
      </trkpt>
      <trkpt lat="45.63305" lon="6.56566">
        <ele>1772</ele>
        <time>2011-08-30T08:03:15Z</time>
      </trkpt>
      <trkpt lat="45.63301" lon="6.56575">
        <ele>1774</ele>
        <time>2011-08-30T08:03:25Z</time>
      </trkpt>
      <trkpt lat="45.63293" lon="6.56574">
        <ele>1775</ele>
        <time>2011-08-30T08:03:36Z</time>
      </trkpt>
      <trkpt lat="45.63294" lon="6.56566">
        <ele>1776</ele>
        <time>2011-08-30T08:03:47Z</time>
      </trkpt>
      <trkpt lat="45.63289" lon="6.56562">
        <ele>1777</ele>
        <time>2011-08-30T08:03:57Z</time>
      </trkpt>
      <trkpt lat="45.63283" lon="6.56557">
        <ele>1779</ele>
        <time>2011-08-30T08:04:08Z</time>
      </trkpt>
      <trkpt lat="45.6328" lon="6.56549">
        <ele>1780</ele>
        <time>2011-08-30T08:04:19Z</time>
      </trkpt>
      <trkpt lat="45.63276" lon="6.56545">
        <ele>1782</ele>
        <time>2011-08-30T08:04:29Z</time>
      </trkpt>
      <trkpt lat="45.63269" lon="6.56541">
        <ele>1786</ele>
        <time>2011-08-30T08:04:41Z</time>
      </trkpt>
      <trkpt lat="45.63264" lon="6.56536">
        <ele>1787</ele>
        <time>2011-08-30T08:04:51Z</time>
      </trkpt>
      <trkpt lat="45.63258" lon="6.56536">
        <ele>1789</ele>
        <time>2011-08-30T08:05:02Z</time>
      </trkpt>
      <trkpt lat="45.6325" lon="6.56533">
        <ele>1793</ele>
        <time>2011-08-30T08:05:13Z</time>
      </trkpt>
      <trkpt lat="45.63243" lon="6.56536">
        <ele>1796</ele>
        <time>2011-08-30T08:05:23Z</time>
      </trkpt>
      <trkpt lat="45.63242" lon="6.5653">
        <ele>1796</ele>
        <time>2011-08-30T08:05:34Z</time>
      </trkpt>
      <trkpt lat="45.63239" lon="6.56523">
        <ele>1796</ele>
        <time>2011-08-30T08:05:44Z</time>
      </trkpt>
      <trkpt lat="45.63234" lon="6.56519">
        <ele>1797</ele>
        <time>2011-08-30T08:05:55Z</time>
      </trkpt>
      <trkpt lat="45.63233" lon="6.56511">
        <ele>1800</ele>
        <time>2011-08-30T08:06:06Z</time>
      </trkpt>
      <trkpt lat="45.63228" lon="6.56505">
        <ele>1802</ele>
        <time>2011-08-30T08:06:18Z</time>
      </trkpt>
      <trkpt lat="45.63222" lon="6.565">
        <ele>1803</ele>
        <time>2011-08-30T08:06:29Z</time>
      </trkpt>
      <trkpt lat="45.63217" lon="6.56495">
        <ele>1803</ele>
        <time>2011-08-30T08:06:39Z</time>
      </trkpt>
      <trkpt lat="45.63215" lon="6.56487">
        <ele>1804</ele>
        <time>2011-08-30T08:06:49Z</time>
      </trkpt>
      <trkpt lat="45.63218" lon="6.56477">
        <ele>1806</ele>
        <time>2011-08-30T08:06:59Z</time>
      </trkpt>
      <trkpt lat="45.63214" lon="6.56466">
        <ele>1807</ele>
        <time>2011-08-30T08:07:10Z</time>
      </trkpt>
      <trkpt lat="45.63207" lon="6.56466">
        <ele>1808</ele>
        <time>2011-08-30T08:07:21Z</time>
      </trkpt>
      <trkpt lat="45.632" lon="6.56466">
        <ele>1811</ele>
        <time>2011-08-30T08:07:33Z</time>
      </trkpt>
      <trkpt lat="45.63198" lon="6.56458">
        <ele>1813</ele>
        <time>2011-08-30T08:07:43Z</time>
      </trkpt>
      <trkpt lat="45.63191" lon="6.56455">
        <ele>1816</ele>
        <time>2011-08-30T08:07:53Z</time>
      </trkpt>
      <trkpt lat="45.63184" lon="6.56454">
        <ele>1821</ele>
        <time>2011-08-30T08:08:03Z</time>
      </trkpt>
      <trkpt lat="45.63179" lon="6.56448">
        <ele>1823</ele>
        <time>2011-08-30T08:08:13Z</time>
      </trkpt>
      <trkpt lat="45.63174" lon="6.56442">
        <ele>1824</ele>
        <time>2011-08-30T08:08:23Z</time>
      </trkpt>
      <trkpt lat="45.63169" lon="6.56437">
        <ele>1826</ele>
        <time>2011-08-30T08:08:35Z</time>
      </trkpt>
      <trkpt lat="45.63165" lon="6.56431">
        <ele>1826</ele>
        <time>2011-08-30T08:08:45Z</time>
      </trkpt>
      <trkpt lat="45.63162" lon="6.56423">
        <ele>1826</ele>
        <time>2011-08-30T08:08:56Z</time>
      </trkpt>
      <trkpt lat="45.63158" lon="6.56416">
        <ele>1828</ele>
        <time>2011-08-30T08:09:07Z</time>
      </trkpt>
      <trkpt lat="45.63158" lon="6.56409">
        <ele>1830</ele>
        <time>2011-08-30T08:09:17Z</time>
      </trkpt>
      <trkpt lat="45.63155" lon="6.56399">
        <ele>1830</ele>
        <time>2011-08-30T08:09:27Z</time>
      </trkpt>
      <trkpt lat="45.63152" lon="6.56389">
        <ele>1830</ele>
        <time>2011-08-30T08:09:37Z</time>
      </trkpt>
      <trkpt lat="45.63152" lon="6.5638">
        <ele>1832</ele>
        <time>2011-08-30T08:09:47Z</time>
      </trkpt>
      <trkpt lat="45.6315" lon="6.56367">
        <ele>1833</ele>
        <time>2011-08-30T08:09:57Z</time>
      </trkpt>
      <trkpt lat="45.63148" lon="6.56356">
        <ele>1833</ele>
        <time>2011-08-30T08:10:08Z</time>
      </trkpt>
      <trkpt lat="45.63147" lon="6.56352">
        <ele>1833</ele>
        <time>2011-08-30T08:10:18Z</time>
      </trkpt>
      <trkpt lat="45.63142" lon="6.56343">
        <ele>1834</ele>
        <time>2011-08-30T08:10:29Z</time>
      </trkpt>
      <trkpt lat="45.63138" lon="6.56334">
        <ele>1835</ele>
        <time>2011-08-30T08:10:39Z</time>
      </trkpt>
      <trkpt lat="45.63133" lon="6.56326">
        <ele>1838</ele>
        <time>2011-08-30T08:10:51Z</time>
      </trkpt>
      <trkpt lat="45.63131" lon="6.56317">
        <ele>1839</ele>
        <time>2011-08-30T08:11:03Z</time>
      </trkpt>
      <trkpt lat="45.63125" lon="6.56314">
        <ele>1841</ele>
        <time>2011-08-30T08:11:14Z</time>
      </trkpt>
      <trkpt lat="45.63119" lon="6.56315">
        <ele>1848</ele>
        <time>2011-08-30T08:11:29Z</time>
      </trkpt>
      <trkpt lat="45.63121" lon="6.56307">
        <ele>1850</ele>
        <time>2011-08-30T08:11:39Z</time>
      </trkpt>
      <trkpt lat="45.63117" lon="6.563">
        <ele>1850</ele>
        <time>2011-08-30T08:11:49Z</time>
      </trkpt>
      <trkpt lat="45.63115" lon="6.56289">
        <ele>1850</ele>
        <time>2011-08-30T08:12:00Z</time>
      </trkpt>
      <trkpt lat="45.63109" lon="6.56289">
        <ele>1850</ele>
        <time>2011-08-30T08:12:10Z</time>
      </trkpt>
      <trkpt lat="45.63104" lon="6.56295">
        <ele>1857</ele>
        <time>2011-08-30T08:12:30Z</time>
      </trkpt>
      <trkpt lat="45.63103" lon="6.56294">
        <ele>1857</ele>
        <time>2011-08-30T08:12:44Z</time>
      </trkpt>
      <trkpt lat="45.63099" lon="6.56295">
        <ele>1857</ele>
        <time>2011-08-30T08:12:57Z</time>
      </trkpt>
      <trkpt lat="45.63099" lon="6.56289">
        <ele>1857</ele>
        <time>2011-08-30T08:13:07Z</time>
      </trkpt>
      <trkpt lat="45.63095" lon="6.5628">
        <ele>1857</ele>
        <time>2011-08-30T08:13:19Z</time>
      </trkpt>
      <trkpt lat="45.63094" lon="6.56273">
        <ele>1859</ele>
        <time>2011-08-30T08:13:30Z</time>
      </trkpt>
      <trkpt lat="45.63088" lon="6.56277">
        <ele>1862</ele>
        <time>2011-08-30T08:13:40Z</time>
      </trkpt>
      <trkpt lat="45.63085" lon="6.56285">
        <ele>1864</ele>
        <time>2011-08-30T08:13:50Z</time>
      </trkpt>
      <trkpt lat="45.63079" lon="6.56283">
        <ele>1868</ele>
        <time>2011-08-30T08:14:02Z</time>
      </trkpt>
      <trkpt lat="45.63078" lon="6.56278">
        <ele>1868</ele>
        <time>2011-08-30T08:14:12Z</time>
      </trkpt>
      <trkpt lat="45.63073" lon="6.56277">
        <ele>1869</ele>
        <time>2011-08-30T08:14:23Z</time>
      </trkpt>
      <trkpt lat="45.63069" lon="6.56271">
        <ele>1871</ele>
        <time>2011-08-30T08:14:33Z</time>
      </trkpt>
      <trkpt lat="45.63064" lon="6.56269">
        <ele>1873</ele>
        <time>2011-08-30T08:14:45Z</time>
      </trkpt>
      <trkpt lat="45.63059" lon="6.5627">
        <ele>1873</ele>
        <time>2011-08-30T08:14:56Z</time>
      </trkpt>
      <trkpt lat="45.63054" lon="6.56269">
        <ele>1877</ele>
        <time>2011-08-30T08:15:06Z</time>
      </trkpt>
      <trkpt lat="45.63051" lon="6.56264">
        <ele>1880</ele>
        <time>2011-08-30T08:15:21Z</time>
      </trkpt>
      <trkpt lat="45.63048" lon="6.5626">
        <ele>1882</ele>
        <time>2011-08-30T08:15:31Z</time>
      </trkpt>
      <trkpt lat="45.63044" lon="6.56257">
        <ele>1883</ele>
        <time>2011-08-30T08:15:41Z</time>
      </trkpt>
      <trkpt lat="45.63044" lon="6.56253">
        <ele>1884</ele>
        <time>2011-08-30T08:15:51Z</time>
      </trkpt>
      <trkpt lat="45.63039" lon="6.5625">
        <ele>1887</ele>
        <time>2011-08-30T08:16:06Z</time>
      </trkpt>
      <trkpt lat="45.63035" lon="6.56248">
        <ele>1889</ele>
        <time>2011-08-30T08:16:17Z</time>
      </trkpt>
      <trkpt lat="45.6303" lon="6.56242">
        <ele>1894</ele>
        <time>2011-08-30T08:16:28Z</time>
      </trkpt>
      <trkpt lat="45.63028" lon="6.56238">
        <ele>1897</ele>
        <time>2011-08-30T08:16:40Z</time>
      </trkpt>
      <trkpt lat="45.63025" lon="6.5623">
        <ele>1897</ele>
        <time>2011-08-30T08:16:50Z</time>
      </trkpt>
      <trkpt lat="45.63022" lon="6.56224">
        <ele>1897</ele>
        <time>2011-08-30T08:17:00Z</time>
      </trkpt>
      <trkpt lat="45.63019" lon="6.56219">
        <ele>1897</ele>
        <time>2011-08-30T08:17:10Z</time>
      </trkpt>
      <trkpt lat="45.63019" lon="6.56212">
        <ele>1897</ele>
        <time>2011-08-30T08:17:20Z</time>
      </trkpt>
      <trkpt lat="45.63018" lon="6.56204">
        <ele>1897</ele>
        <time>2011-08-30T08:17:30Z</time>
      </trkpt>
      <trkpt lat="45.63015" lon="6.56199">
        <ele>1900</ele>
        <time>2011-08-30T08:17:43Z</time>
      </trkpt>
      <trkpt lat="45.63011" lon="6.56191">
        <ele>1903</ele>
        <time>2011-08-30T08:17:55Z</time>
      </trkpt>
      <trkpt lat="45.63005" lon="6.56188">
        <ele>1906</ele>
        <time>2011-08-30T08:18:06Z</time>
      </trkpt>
      <trkpt lat="45.63002" lon="6.5618">
        <ele>1906</ele>
        <time>2011-08-30T08:18:16Z</time>
      </trkpt>
      <trkpt lat="45.63" lon="6.56173">
        <ele>1909</ele>
        <time>2011-08-30T08:18:27Z</time>
      </trkpt>
      <trkpt lat="45.62998" lon="6.56165">
        <ele>1910</ele>
        <time>2011-08-30T08:18:38Z</time>
      </trkpt>
      <trkpt lat="45.62996" lon="6.56156">
        <ele>1910</ele>
        <time>2011-08-30T08:18:49Z</time>
      </trkpt>
      <trkpt lat="45.62993" lon="6.56152">
        <ele>1913</ele>
        <time>2011-08-30T08:19:03Z</time>
      </trkpt>
      <trkpt lat="45.62989" lon="6.56146">
        <ele>1913</ele>
        <time>2011-08-30T08:19:14Z</time>
      </trkpt>
      <trkpt lat="45.62983" lon="6.56142">
        <ele>1914</ele>
        <time>2011-08-30T08:19:26Z</time>
      </trkpt>
      <trkpt lat="45.62983" lon="6.56135">
        <ele>1917</ele>
        <time>2011-08-30T08:19:38Z</time>
      </trkpt>
      <trkpt lat="45.62983" lon="6.56136">
        <ele>1917</ele>
        <time>2011-08-30T08:19:52Z</time>
      </trkpt>
      <trkpt lat="45.62981" lon="6.56138">
        <ele>1918</ele>
        <time>2011-08-30T08:20:10Z</time>
      </trkpt>
      <trkpt lat="45.62981" lon="6.5614">
        <ele>1918</ele>
        <time>2011-08-30T08:20:36Z</time>
      </trkpt>
      <trkpt lat="45.62983" lon="6.56141">
        <ele>1922</ele>
        <time>2011-08-30T08:21:13Z</time>
      </trkpt>
      <trkpt lat="45.62981" lon="6.56139">
        <ele>1922</ele>
        <time>2011-08-30T08:21:40Z</time>
      </trkpt>
      <trkpt lat="45.62981" lon="6.56137">
        <ele>1922</ele>
        <time>2011-08-30T08:21:50Z</time>
      </trkpt>
      <trkpt lat="45.62983" lon="6.56133">
        <ele>1921</ele>
        <time>2011-08-30T08:22:02Z</time>
      </trkpt>
      <trkpt lat="45.62987" lon="6.56123">
        <ele>1921</ele>
        <time>2011-08-30T08:22:12Z</time>
      </trkpt>
      <trkpt lat="45.6299" lon="6.56119">
        <ele>1919</ele>
        <time>2011-08-30T08:22:26Z</time>
      </trkpt>
      <trkpt lat="45.62989" lon="6.56122">
        <ele>1919</ele>
        <time>2011-08-30T08:22:41Z</time>
      </trkpt>
      <trkpt lat="45.6299" lon="6.5612">
        <ele>1919</ele>
        <time>2011-08-30T08:22:52Z</time>
      </trkpt>
      <trkpt lat="45.6299" lon="6.56119">
        <ele>1919</ele>
        <time>2011-08-30T08:23:02Z</time>
      </trkpt>
      <trkpt lat="45.62984" lon="6.56124">
        <ele>1917</ele>
        <time>2011-08-30T08:23:14Z</time>
      </trkpt>
      <trkpt lat="45.62983" lon="6.56128">
        <ele>1917</ele>
        <time>2011-08-30T08:23:26Z</time>
      </trkpt>
      <trkpt lat="45.62982" lon="6.56129">
        <ele>1917</ele>
        <time>2011-08-30T08:23:44Z</time>
      </trkpt>
      <trkpt lat="45.62982" lon="6.56128">
        <ele>1918</ele>
        <time>2011-08-30T08:24:06Z</time>
      </trkpt>
      <trkpt lat="45.62983" lon="6.56133">
        <ele>1918</ele>
        <time>2011-08-30T08:24:19Z</time>
      </trkpt>
      <trkpt lat="45.62983" lon="6.56137">
        <ele>1918</ele>
        <time>2011-08-30T08:24:29Z</time>
      </trkpt>
      <trkpt lat="45.62984" lon="6.56147">
        <ele>1918</ele>
        <time>2011-08-30T08:24:41Z</time>
      </trkpt>
      <trkpt lat="45.62985" lon="6.56148">
        <ele>1918</ele>
        <time>2011-08-30T08:25:10Z</time>
      </trkpt>
      <trkpt lat="45.62985" lon="6.5615">
        <ele>1919</ele>
        <time>2011-08-30T08:25:21Z</time>
      </trkpt>
      <trkpt lat="45.62984" lon="6.56148">
        <ele>1920</ele>
        <time>2011-08-30T08:25:35Z</time>
      </trkpt>
      <trkpt lat="45.62984" lon="6.56144">
        <ele>1921</ele>
        <time>2011-08-30T08:25:47Z</time>
      </trkpt>
      <trkpt lat="45.62983" lon="6.56141">
        <ele>1915</ele>
        <time>2011-08-30T08:26:00Z</time>
      </trkpt>
      <trkpt lat="45.6298" lon="6.56139">
        <ele>1915</ele>
        <time>2011-08-30T08:26:12Z</time>
      </trkpt>
      <trkpt lat="45.62978" lon="6.56141">
        <ele>1917</ele>
        <time>2011-08-30T08:26:23Z</time>
      </trkpt>
      <trkpt lat="45.62978" lon="6.56139">
        <ele>1920</ele>
        <time>2011-08-30T08:26:39Z</time>
      </trkpt>
      <trkpt lat="45.62979" lon="6.56141">
        <ele>1922</ele>
        <time>2011-08-30T08:26:58Z</time>
      </trkpt>
      <trkpt lat="45.62978" lon="6.56138">
        <ele>1922</ele>
        <time>2011-08-30T08:27:19Z</time>
      </trkpt>
      <trkpt lat="45.6298" lon="6.56138">
        <ele>1922</ele>
        <time>2011-08-30T08:27:39Z</time>
      </trkpt>
      <trkpt lat="45.6298" lon="6.56139">
        <ele>1922</ele>
        <time>2011-08-30T08:28:11Z</time>
      </trkpt>
      <trkpt lat="45.6298" lon="6.56142">
        <ele>1922</ele>
        <time>2011-08-30T08:28:24Z</time>
      </trkpt>
      <trkpt lat="45.6298" lon="6.5614">
        <ele>1922</ele>
        <time>2011-08-30T08:29:19Z</time>
      </trkpt>
      <trkpt lat="45.62981" lon="6.56139">
        <ele>1925</ele>
        <time>2011-08-30T08:29:31Z</time>
      </trkpt>
      <trkpt lat="45.62981" lon="6.56141">
        <ele>1925</ele>
        <time>2011-08-30T08:29:45Z</time>
      </trkpt>
      <trkpt lat="45.6298" lon="6.56143">
        <ele>1926</ele>
        <time>2011-08-30T08:30:08Z</time>
      </trkpt>
      <trkpt lat="45.6298" lon="6.56141">
        <ele>1926</ele>
        <time>2011-08-30T08:30:22Z</time>
      </trkpt>
      <trkpt lat="45.62978" lon="6.56136">
        <ele>1926</ele>
        <time>2011-08-30T08:30:43Z</time>
      </trkpt>
      <trkpt lat="45.6298" lon="6.56138">
        <ele>1927</ele>
        <time>2011-08-30T08:31:07Z</time>
      </trkpt>
      <trkpt lat="45.62977" lon="6.56136">
        <ele>1930</ele>
        <time>2011-08-30T08:31:18Z</time>
      </trkpt>
      <trkpt lat="45.62977" lon="6.56137">
        <ele>1938</ele>
        <time>2011-08-30T08:31:29Z</time>
      </trkpt>
      <trkpt lat="45.62981" lon="6.56137">
        <ele>1934</ele>
        <time>2011-08-30T08:31:39Z</time>
      </trkpt>
      <trkpt lat="45.62982" lon="6.56136">
        <ele>1921</ele>
        <time>2011-08-30T08:32:14Z</time>
      </trkpt>
      <trkpt lat="45.6298" lon="6.56139">
        <ele>1921</ele>
        <time>2011-08-30T08:32:25Z</time>
      </trkpt>
      <trkpt lat="45.62975" lon="6.5615">
        <ele>1927</ele>
        <time>2011-08-30T08:32:35Z</time>
      </trkpt>
      <trkpt lat="45.62975" lon="6.56149">
        <ele>1939</ele>
        <time>2011-08-30T08:32:45Z</time>
      </trkpt>
      <trkpt lat="45.62977" lon="6.56146">
        <ele>1932</ele>
        <time>2011-08-30T08:33:01Z</time>
      </trkpt>
      <trkpt lat="45.62978" lon="6.56142">
        <ele>1928</ele>
        <time>2011-08-30T08:33:18Z</time>
      </trkpt>
      <trkpt lat="45.62979" lon="6.56137">
        <ele>1918</ele>
        <time>2011-08-30T08:33:31Z</time>
      </trkpt>
      <trkpt lat="45.6298" lon="6.56137">
        <ele>1917</ele>
        <time>2011-08-30T08:33:54Z</time>
      </trkpt>
      <trkpt lat="45.62979" lon="6.56139">
        <ele>1916</ele>
        <time>2011-08-30T08:34:11Z</time>
      </trkpt>
      <trkpt lat="45.62981" lon="6.56138">
        <ele>1916</ele>
        <time>2011-08-30T08:34:25Z</time>
      </trkpt>
      <trkpt lat="45.62982" lon="6.56137">
        <ele>1913</ele>
        <time>2011-08-30T08:34:36Z</time>
      </trkpt>
      <trkpt lat="45.62981" lon="6.56137">
        <ele>1915</ele>
        <time>2011-08-30T08:35:05Z</time>
      </trkpt>
      <trkpt lat="45.6298" lon="6.56147">
        <ele>1918</ele>
        <time>2011-08-30T08:35:15Z</time>
      </trkpt>
      <trkpt lat="45.62979" lon="6.56152">
        <ele>1924</ele>
        <time>2011-08-30T08:35:26Z</time>
      </trkpt>
      <trkpt lat="45.62983" lon="6.56144">
        <ele>1928</ele>
        <time>2011-08-30T08:35:39Z</time>
      </trkpt>
      <trkpt lat="45.62983" lon="6.56144">
        <ele>1933</ele>
        <time>2011-08-30T08:35:52Z</time>
      </trkpt>
      <trkpt lat="45.62981" lon="6.56142">
        <ele>1929</ele>
        <time>2011-08-30T08:36:02Z</time>
      </trkpt>
      <trkpt lat="45.62979" lon="6.56139">
        <ele>1928</ele>
        <time>2011-08-30T08:36:18Z</time>
      </trkpt>
      <trkpt lat="45.62977" lon="6.56136">
        <ele>1928</ele>
        <time>2011-08-30T08:36:43Z</time>
      </trkpt>
      <trkpt lat="45.62979" lon="6.56133">
        <ele>1928</ele>
        <time>2011-08-30T08:36:55Z</time>
      </trkpt>
      <trkpt lat="45.62975" lon="6.56126">
        <ele>1928</ele>
        <time>2011-08-30T08:37:06Z</time>
      </trkpt>
      <trkpt lat="45.62973" lon="6.56119">
        <ele>1928</ele>
        <time>2011-08-30T08:37:18Z</time>
      </trkpt>
      <trkpt lat="45.62967" lon="6.56111">
        <ele>1930</ele>
        <time>2011-08-30T08:37:30Z</time>
      </trkpt>
      <trkpt lat="45.62964" lon="6.56103">
        <ele>1932</ele>
        <time>2011-08-30T08:37:42Z</time>
      </trkpt>
      <trkpt lat="45.6296" lon="6.56097">
        <ele>1933</ele>
        <time>2011-08-30T08:37:52Z</time>
      </trkpt>
      <trkpt lat="45.62957" lon="6.56088">
        <ele>1934</ele>
        <time>2011-08-30T08:38:04Z</time>
      </trkpt>
      <trkpt lat="45.62953" lon="6.56081">
        <ele>1938</ele>
        <time>2011-08-30T08:38:14Z</time>
      </trkpt>
      <trkpt lat="45.62947" lon="6.56075">
        <ele>1939</ele>
        <time>2011-08-30T08:38:24Z</time>
      </trkpt>
      <trkpt lat="45.62942" lon="6.5607">
        <ele>1941</ele>
        <time>2011-08-30T08:38:34Z</time>
      </trkpt>
      <trkpt lat="45.62936" lon="6.56064">
        <ele>1943</ele>
        <time>2011-08-30T08:38:45Z</time>
      </trkpt>
      <trkpt lat="45.62931" lon="6.56057">
        <ele>1945</ele>
        <time>2011-08-30T08:38:56Z</time>
      </trkpt>
      <trkpt lat="45.62926" lon="6.56052">
        <ele>1947</ele>
        <time>2011-08-30T08:39:07Z</time>
      </trkpt>
      <trkpt lat="45.62921" lon="6.56044">
        <ele>1949</ele>
        <time>2011-08-30T08:39:18Z</time>
      </trkpt>
      <trkpt lat="45.6292" lon="6.56035">
        <ele>1950</ele>
        <time>2011-08-30T08:39:30Z</time>
      </trkpt>
      <trkpt lat="45.62917" lon="6.56028">
        <ele>1950</ele>
        <time>2011-08-30T08:39:40Z</time>
      </trkpt>
      <trkpt lat="45.62912" lon="6.5602">
        <ele>1953</ele>
        <time>2011-08-30T08:39:50Z</time>
      </trkpt>
      <trkpt lat="45.62908" lon="6.56013">
        <ele>1955</ele>
        <time>2011-08-30T08:40:00Z</time>
      </trkpt>
      <trkpt lat="45.62902" lon="6.56007">
        <ele>1958</ele>
        <time>2011-08-30T08:40:11Z</time>
      </trkpt>
      <trkpt lat="45.62894" lon="6.56007">
        <ele>1961</ele>
        <time>2011-08-30T08:40:22Z</time>
      </trkpt>
      <trkpt lat="45.62891" lon="6.56002">
        <ele>1961</ele>
        <time>2011-08-30T08:40:32Z</time>
      </trkpt>
      <trkpt lat="45.62883" lon="6.55998">
        <ele>1962</ele>
        <time>2011-08-30T08:40:42Z</time>
      </trkpt>
      <trkpt lat="45.62878" lon="6.55995">
        <ele>1963</ele>
        <time>2011-08-30T08:40:55Z</time>
      </trkpt>
      <trkpt lat="45.62876" lon="6.5599">
        <ele>1963</ele>
        <time>2011-08-30T08:41:06Z</time>
      </trkpt>
      <trkpt lat="45.62868" lon="6.55984">
        <ele>1966</ele>
        <time>2011-08-30T08:41:18Z</time>
      </trkpt>
      <trkpt lat="45.6286" lon="6.55982">
        <ele>1972</ele>
        <time>2011-08-30T08:41:28Z</time>
      </trkpt>
      <trkpt lat="45.62855" lon="6.55982">
        <ele>1977</ele>
        <time>2011-08-30T08:41:38Z</time>
      </trkpt>
      <trkpt lat="45.62849" lon="6.5598">
        <ele>1977</ele>
        <time>2011-08-30T08:41:50Z</time>
      </trkpt>
      <trkpt lat="45.62842" lon="6.55979">
        <ele>1977</ele>
        <time>2011-08-30T08:42:00Z</time>
      </trkpt>
      <trkpt lat="45.62835" lon="6.55978">
        <ele>1985</ele>
        <time>2011-08-30T08:42:11Z</time>
      </trkpt>
      <trkpt lat="45.62831" lon="6.55973">
        <ele>1986</ele>
        <time>2011-08-30T08:42:25Z</time>
      </trkpt>
      <trkpt lat="45.62825" lon="6.5597">
        <ele>1986</ele>
        <time>2011-08-30T08:42:37Z</time>
      </trkpt>
      <trkpt lat="45.62821" lon="6.55965">
        <ele>1986</ele>
        <time>2011-08-30T08:42:48Z</time>
      </trkpt>
      <trkpt lat="45.62816" lon="6.55962">
        <ele>1991</ele>
        <time>2011-08-30T08:42:59Z</time>
      </trkpt>
      <trkpt lat="45.62808" lon="6.55958">
        <ele>1993</ele>
        <time>2011-08-30T08:43:16Z</time>
      </trkpt>
      <trkpt lat="45.62801" lon="6.55955">
        <ele>1996</ele>
        <time>2011-08-30T08:43:27Z</time>
      </trkpt>
      <trkpt lat="45.62795" lon="6.55952">
        <ele>1996</ele>
        <time>2011-08-30T08:43:38Z</time>
      </trkpt>
      <trkpt lat="45.62791" lon="6.55946">
        <ele>1996</ele>
        <time>2011-08-30T08:43:50Z</time>
      </trkpt>
      <trkpt lat="45.62785" lon="6.55948">
        <ele>1996</ele>
        <time>2011-08-30T08:44:02Z</time>
      </trkpt>
      <trkpt lat="45.62779" lon="6.55947">
        <ele>2002</ele>
        <time>2011-08-30T08:44:14Z</time>
      </trkpt>
      <trkpt lat="45.6278" lon="6.55936">
        <ele>2003</ele>
        <time>2011-08-30T08:44:25Z</time>
      </trkpt>
      <trkpt lat="45.62783" lon="6.55926">
        <ele>2003</ele>
        <time>2011-08-30T08:44:36Z</time>
      </trkpt>
      <trkpt lat="45.62783" lon="6.55918">
        <ele>2003</ele>
        <time>2011-08-30T08:44:47Z</time>
      </trkpt>
      <trkpt lat="45.62782" lon="6.55909">
        <ele>2003</ele>
        <time>2011-08-30T08:44:57Z</time>
      </trkpt>
      <trkpt lat="45.6278" lon="6.55897">
        <ele>2003</ele>
        <time>2011-08-30T08:45:09Z</time>
      </trkpt>
      <trkpt lat="45.62772" lon="6.55893">
        <ele>2007</ele>
        <time>2011-08-30T08:45:20Z</time>
      </trkpt>
      <trkpt lat="45.62764" lon="6.5589">
        <ele>2015</ele>
        <time>2011-08-30T08:45:31Z</time>
      </trkpt>
      <trkpt lat="45.62759" lon="6.55885">
        <ele>2017</ele>
        <time>2011-08-30T08:45:42Z</time>
      </trkpt>
      <trkpt lat="45.62754" lon="6.55876">
        <ele>2017</ele>
        <time>2011-08-30T08:45:53Z</time>
      </trkpt>
      <trkpt lat="45.6275" lon="6.55866">
        <ele>2019</ele>
        <time>2011-08-30T08:46:04Z</time>
      </trkpt>
      <trkpt lat="45.62748" lon="6.55858">
        <ele>2019</ele>
        <time>2011-08-30T08:46:14Z</time>
      </trkpt>
      <trkpt lat="45.62742" lon="6.55852">
        <ele>2021</ele>
        <time>2011-08-30T08:46:25Z</time>
      </trkpt>
      <trkpt lat="45.62738" lon="6.55845">
        <ele>2022</ele>
        <time>2011-08-30T08:46:35Z</time>
      </trkpt>
      <trkpt lat="45.62736" lon="6.55836">
        <ele>2022</ele>
        <time>2011-08-30T08:46:45Z</time>
      </trkpt>
      <trkpt lat="45.62737" lon="6.55825">
        <ele>2022</ele>
        <time>2011-08-30T08:46:55Z</time>
      </trkpt>
      <trkpt lat="45.62729" lon="6.5582">
        <ele>2023</ele>
        <time>2011-08-30T08:47:05Z</time>
      </trkpt>
      <trkpt lat="45.62722" lon="6.55813">
        <ele>2027</ele>
        <time>2011-08-30T08:47:15Z</time>
      </trkpt>
      <trkpt lat="45.62716" lon="6.55809">
        <ele>2029</ele>
        <time>2011-08-30T08:47:25Z</time>
      </trkpt>
      <trkpt lat="45.62711" lon="6.55804">
        <ele>2033</ele>
        <time>2011-08-30T08:47:35Z</time>
      </trkpt>
      <trkpt lat="45.62706" lon="6.55801">
        <ele>2038</ele>
        <time>2011-08-30T08:47:47Z</time>
      </trkpt>
      <trkpt lat="45.62704" lon="6.55794">
        <ele>2038</ele>
        <time>2011-08-30T08:47:58Z</time>
      </trkpt>
      <trkpt lat="45.62703" lon="6.55786">
        <ele>2038</ele>
        <time>2011-08-30T08:48:09Z</time>
      </trkpt>
      <trkpt lat="45.62697" lon="6.5578">
        <ele>2041</ele>
        <time>2011-08-30T08:48:20Z</time>
      </trkpt>
      <trkpt lat="45.62693" lon="6.55772">
        <ele>2046</ele>
        <time>2011-08-30T08:48:31Z</time>
      </trkpt>
      <trkpt lat="45.62689" lon="6.55765">
        <ele>2046</ele>
        <time>2011-08-30T08:48:41Z</time>
      </trkpt>
      <trkpt lat="45.62682" lon="6.55761">
        <ele>2047</ele>
        <time>2011-08-30T08:48:51Z</time>
      </trkpt>
      <trkpt lat="45.62677" lon="6.55756">
        <ele>2050</ele>
        <time>2011-08-30T08:49:01Z</time>
      </trkpt>
      <trkpt lat="45.62671" lon="6.55749">
        <ele>2052</ele>
        <time>2011-08-30T08:49:13Z</time>
      </trkpt>
      <trkpt lat="45.62668" lon="6.55741">
        <ele>2052</ele>
        <time>2011-08-30T08:49:24Z</time>
      </trkpt>
      <trkpt lat="45.62663" lon="6.55735">
        <ele>2052</ele>
        <time>2011-08-30T08:49:35Z</time>
      </trkpt>
      <trkpt lat="45.6266" lon="6.55727">
        <ele>2052</ele>
        <time>2011-08-30T08:49:46Z</time>
      </trkpt>
      <trkpt lat="45.62658" lon="6.55719">
        <ele>2056</ele>
        <time>2011-08-30T08:49:56Z</time>
      </trkpt>
      <trkpt lat="45.62653" lon="6.55714">
        <ele>2058</ele>
        <time>2011-08-30T08:50:06Z</time>
      </trkpt>
      <trkpt lat="45.6265" lon="6.55704">
        <ele>2059</ele>
        <time>2011-08-30T08:50:17Z</time>
      </trkpt>
      <trkpt lat="45.62649" lon="6.55693">
        <ele>2059</ele>
        <time>2011-08-30T08:50:28Z</time>
      </trkpt>
      <trkpt lat="45.62646" lon="6.55684">
        <ele>2059</ele>
        <time>2011-08-30T08:50:39Z</time>
      </trkpt>
      <trkpt lat="45.6264" lon="6.55676">
        <ele>2059</ele>
        <time>2011-08-30T08:50:50Z</time>
      </trkpt>
      <trkpt lat="45.62634" lon="6.5567">
        <ele>2059</ele>
        <time>2011-08-30T08:51:01Z</time>
      </trkpt>
      <trkpt lat="45.62633" lon="6.55661">
        <ele>2060</ele>
        <time>2011-08-30T08:51:12Z</time>
      </trkpt>
      <trkpt lat="45.62625" lon="6.55658">
        <ele>2063</ele>
        <time>2011-08-30T08:51:23Z</time>
      </trkpt>
      <trkpt lat="45.62617" lon="6.55652">
        <ele>2066</ele>
        <time>2011-08-30T08:51:33Z</time>
      </trkpt>
      <trkpt lat="45.62611" lon="6.55649">
        <ele>2068</ele>
        <time>2011-08-30T08:51:43Z</time>
      </trkpt>
      <trkpt lat="45.62605" lon="6.55646">
        <ele>2069</ele>
        <time>2011-08-30T08:51:55Z</time>
      </trkpt>
      <trkpt lat="45.62601" lon="6.5564">
        <ele>2069</ele>
        <time>2011-08-30T08:52:05Z</time>
      </trkpt>
      <trkpt lat="45.62596" lon="6.55636">
        <ele>2071</ele>
        <time>2011-08-30T08:52:16Z</time>
      </trkpt>
      <trkpt lat="45.6259" lon="6.55631">
        <ele>2077</ele>
        <time>2011-08-30T08:52:27Z</time>
      </trkpt>
      <trkpt lat="45.62584" lon="6.55625">
        <ele>2078</ele>
        <time>2011-08-30T08:52:37Z</time>
      </trkpt>
      <trkpt lat="45.6258" lon="6.55619">
        <ele>2078</ele>
        <time>2011-08-30T08:52:48Z</time>
      </trkpt>
      <trkpt lat="45.62577" lon="6.55613">
        <ele>2078</ele>
        <time>2011-08-30T08:52:58Z</time>
      </trkpt>
      <trkpt lat="45.62573" lon="6.55606">
        <ele>2079</ele>
        <time>2011-08-30T08:53:09Z</time>
      </trkpt>
      <trkpt lat="45.6257" lon="6.55599">
        <ele>2081</ele>
        <time>2011-08-30T08:53:20Z</time>
      </trkpt>
      <trkpt lat="45.62567" lon="6.55594">
        <ele>2082</ele>
        <time>2011-08-30T08:53:31Z</time>
      </trkpt>
      <trkpt lat="45.62561" lon="6.55588">
        <ele>2084</ele>
        <time>2011-08-30T08:53:43Z</time>
      </trkpt>
      <trkpt lat="45.62555" lon="6.55582">
        <ele>2086</ele>
        <time>2011-08-30T08:53:55Z</time>
      </trkpt>
      <trkpt lat="45.62548" lon="6.55576">
        <ele>2089</ele>
        <time>2011-08-30T08:54:06Z</time>
      </trkpt>
      <trkpt lat="45.62542" lon="6.55573">
        <ele>2093</ele>
        <time>2011-08-30T08:54:16Z</time>
      </trkpt>
      <trkpt lat="45.62535" lon="6.55565">
        <ele>2094</ele>
        <time>2011-08-30T08:54:28Z</time>
      </trkpt>
      <trkpt lat="45.62531" lon="6.55558">
        <ele>2094</ele>
        <time>2011-08-30T08:54:39Z</time>
      </trkpt>
      <trkpt lat="45.62526" lon="6.55551">
        <ele>2096</ele>
        <time>2011-08-30T08:54:50Z</time>
      </trkpt>
      <trkpt lat="45.6252" lon="6.55545">
        <ele>2100</ele>
        <time>2011-08-30T08:55:00Z</time>
      </trkpt>
      <trkpt lat="45.62516" lon="6.55537">
        <ele>2102</ele>
        <time>2011-08-30T08:55:10Z</time>
      </trkpt>
      <trkpt lat="45.62511" lon="6.55528">
        <ele>2102</ele>
        <time>2011-08-30T08:55:21Z</time>
      </trkpt>
      <trkpt lat="45.62507" lon="6.5552">
        <ele>2102</ele>
        <time>2011-08-30T08:55:31Z</time>
      </trkpt>
      <trkpt lat="45.62502" lon="6.55514">
        <ele>2102</ele>
        <time>2011-08-30T08:55:42Z</time>
      </trkpt>
      <trkpt lat="45.62495" lon="6.55511">
        <ele>2102</ele>
        <time>2011-08-30T08:55:52Z</time>
      </trkpt>
      <trkpt lat="45.6249" lon="6.55506">
        <ele>2104</ele>
        <time>2011-08-30T08:56:02Z</time>
      </trkpt>
      <trkpt lat="45.62486" lon="6.55499">
        <ele>2106</ele>
        <time>2011-08-30T08:56:13Z</time>
      </trkpt>
      <trkpt lat="45.62482" lon="6.55493">
        <ele>2110</ele>
        <time>2011-08-30T08:56:24Z</time>
      </trkpt>
      <trkpt lat="45.62475" lon="6.55489">
        <ele>2113</ele>
        <time>2011-08-30T08:56:35Z</time>
      </trkpt>
      <trkpt lat="45.62474" lon="6.55484">
        <ele>2113</ele>
        <time>2011-08-30T08:56:45Z</time>
      </trkpt>
      <trkpt lat="45.62471" lon="6.55478">
        <ele>2116</ele>
        <time>2011-08-30T08:56:55Z</time>
      </trkpt>
      <trkpt lat="45.6247" lon="6.55468">
        <ele>2118</ele>
        <time>2011-08-30T08:57:06Z</time>
      </trkpt>
      <trkpt lat="45.62466" lon="6.55462">
        <ele>2120</ele>
        <time>2011-08-30T08:57:16Z</time>
      </trkpt>
      <trkpt lat="45.6246" lon="6.55459">
        <ele>2121</ele>
        <time>2011-08-30T08:57:26Z</time>
      </trkpt>
      <trkpt lat="45.62453" lon="6.55458">
        <ele>2122</ele>
        <time>2011-08-30T08:57:37Z</time>
      </trkpt>
      <trkpt lat="45.62447" lon="6.55454">
        <ele>2123</ele>
        <time>2011-08-30T08:57:47Z</time>
      </trkpt>
      <trkpt lat="45.6244" lon="6.55447">
        <ele>2123</ele>
        <time>2011-08-30T08:57:58Z</time>
      </trkpt>
      <trkpt lat="45.62434" lon="6.5544">
        <ele>2124</ele>
        <time>2011-08-30T08:58:09Z</time>
      </trkpt>
      <trkpt lat="45.62434" lon="6.55441">
        <ele>2124</ele>
        <time>2011-08-30T08:58:25Z</time>
      </trkpt>
      <trkpt lat="45.62433" lon="6.55441">
        <ele>2124</ele>
        <time>2011-08-30T08:59:17Z</time>
      </trkpt>
      <trkpt lat="45.62434" lon="6.5544">
        <ele>2124</ele>
        <time>2011-08-30T08:59:35Z</time>
      </trkpt>
      <trkpt lat="45.62434" lon="6.55438">
        <ele>2124</ele>
        <time>2011-08-30T09:00:23Z</time>
      </trkpt>
      <trkpt lat="45.62433" lon="6.5544">
        <ele>2125</ele>
        <time>2011-08-30T09:00:46Z</time>
      </trkpt>
      <trkpt lat="45.62435" lon="6.5544">
        <ele>2125</ele>
        <time>2011-08-30T09:01:02Z</time>
      </trkpt>
      <trkpt lat="45.62431" lon="6.55444">
        <ele>2125</ele>
        <time>2011-08-30T09:01:18Z</time>
      </trkpt>
      <trkpt lat="45.62432" lon="6.55444">
        <ele>2125</ele>
        <time>2011-08-30T09:01:53Z</time>
      </trkpt>
      <trkpt lat="45.62432" lon="6.55443">
        <ele>2124</ele>
        <time>2011-08-30T09:02:14Z</time>
      </trkpt>
      <trkpt lat="45.62433" lon="6.55441">
        <ele>2124</ele>
        <time>2011-08-30T09:02:27Z</time>
      </trkpt>
      <trkpt lat="45.62434" lon="6.55441">
        <ele>2124</ele>
        <time>2011-08-30T09:02:40Z</time>
      </trkpt>
      <trkpt lat="45.62436" lon="6.55441">
        <ele>2124</ele>
        <time>2011-08-30T09:02:51Z</time>
      </trkpt>
      <trkpt lat="45.62435" lon="6.55443">
        <ele>2122</ele>
        <time>2011-08-30T09:03:03Z</time>
      </trkpt>
      <trkpt lat="45.62434" lon="6.55442">
        <ele>2122</ele>
        <time>2011-08-30T09:03:13Z</time>
      </trkpt>
      <trkpt lat="45.62435" lon="6.55441">
        <ele>2122</ele>
        <time>2011-08-30T09:03:23Z</time>
      </trkpt>
      <trkpt lat="45.62431" lon="6.55444">
        <ele>2122</ele>
        <time>2011-08-30T09:03:34Z</time>
      </trkpt>
      <trkpt lat="45.6243" lon="6.55446">
        <ele>2122</ele>
        <time>2011-08-30T09:03:44Z</time>
      </trkpt>
      <trkpt lat="45.62428" lon="6.55447">
        <ele>2119</ele>
        <time>2011-08-30T09:04:07Z</time>
      </trkpt>
      <trkpt lat="45.62428" lon="6.55445">
        <ele>2118</ele>
        <time>2011-08-30T09:04:23Z</time>
      </trkpt>
      <trkpt lat="45.62429" lon="6.55446">
        <ele>2118</ele>
        <time>2011-08-30T09:04:41Z</time>
      </trkpt>
      <trkpt lat="45.62426" lon="6.55452">
        <ele>2118</ele>
        <time>2011-08-30T09:04:54Z</time>
      </trkpt>
      <trkpt lat="45.62428" lon="6.55449">
        <ele>2118</ele>
        <time>2011-08-30T09:05:05Z</time>
      </trkpt>
      <trkpt lat="45.62428" lon="6.55447">
        <ele>2119</ele>
        <time>2011-08-30T09:05:18Z</time>
      </trkpt>
      <trkpt lat="45.62427" lon="6.55447">
        <ele>2123</ele>
        <time>2011-08-30T09:05:34Z</time>
      </trkpt>
      <trkpt lat="45.6243" lon="6.55445">
        <ele>2123</ele>
        <time>2011-08-30T09:05:44Z</time>
      </trkpt>
      <trkpt lat="45.62427" lon="6.55448">
        <ele>2123</ele>
        <time>2011-08-30T09:05:55Z</time>
      </trkpt>
      <trkpt lat="45.62426" lon="6.55449">
        <ele>2124</ele>
        <time>2011-08-30T09:06:15Z</time>
      </trkpt>
      <trkpt lat="45.62426" lon="6.55448">
        <ele>2124</ele>
        <time>2011-08-30T09:06:26Z</time>
      </trkpt>
      <trkpt lat="45.62428" lon="6.55442">
        <ele>2120</ele>
        <time>2011-08-30T09:06:40Z</time>
      </trkpt>
      <trkpt lat="45.62428" lon="6.55445">
        <ele>2120</ele>
        <time>2011-08-30T09:06:50Z</time>
      </trkpt>
      <trkpt lat="45.62428" lon="6.55443">
        <ele>2120</ele>
        <time>2011-08-30T09:07:02Z</time>
      </trkpt>
      <trkpt lat="45.62428" lon="6.55447">
        <ele>2120</ele>
        <time>2011-08-30T09:07:17Z</time>
      </trkpt>
      <trkpt lat="45.62429" lon="6.55446">
        <ele>2120</ele>
        <time>2011-08-30T09:07:33Z</time>
      </trkpt>
      <trkpt lat="45.62428" lon="6.55447">
        <ele>2120</ele>
        <time>2011-08-30T09:07:47Z</time>
      </trkpt>
      <trkpt lat="45.62428" lon="6.55448">
        <ele>2120</ele>
        <time>2011-08-30T09:08:01Z</time>
      </trkpt>
      <trkpt lat="45.62428" lon="6.55444">
        <ele>2120</ele>
        <time>2011-08-30T09:08:12Z</time>
      </trkpt>
      <trkpt lat="45.62428" lon="6.55445">
        <ele>2120</ele>
        <time>2011-08-30T09:08:26Z</time>
      </trkpt>
      <trkpt lat="45.62429" lon="6.55443">
        <ele>2120</ele>
        <time>2011-08-30T09:08:36Z</time>
      </trkpt>
      <trkpt lat="45.62426" lon="6.55441">
        <ele>2120</ele>
        <time>2011-08-30T09:08:47Z</time>
      </trkpt>
      <trkpt lat="45.62426" lon="6.55442">
        <ele>2123</ele>
        <time>2011-08-30T09:09:01Z</time>
      </trkpt>
      <trkpt lat="45.62432" lon="6.55442">
        <ele>2123</ele>
        <time>2011-08-30T09:09:22Z</time>
      </trkpt>
      <trkpt lat="45.62431" lon="6.55442">
        <ele>2123</ele>
        <time>2011-08-30T09:09:55Z</time>
      </trkpt>
      <trkpt lat="45.62427" lon="6.55441">
        <ele>2123</ele>
        <time>2011-08-30T09:10:07Z</time>
      </trkpt>
      <trkpt lat="45.62426" lon="6.55443">
        <ele>2123</ele>
        <time>2011-08-30T09:10:29Z</time>
      </trkpt>
      <trkpt lat="45.62426" lon="6.55445">
        <ele>2123</ele>
        <time>2011-08-30T09:10:39Z</time>
      </trkpt>
      <trkpt lat="45.62431" lon="6.55447">
        <ele>2123</ele>
        <time>2011-08-30T09:10:52Z</time>
      </trkpt>
      <trkpt lat="45.6243" lon="6.55444">
        <ele>2123</ele>
        <time>2011-08-30T09:11:04Z</time>
      </trkpt>
      <trkpt lat="45.62429" lon="6.55445">
        <ele>2123</ele>
        <time>2011-08-30T09:11:21Z</time>
      </trkpt>
      <trkpt lat="45.62433" lon="6.5544">
        <ele>2123</ele>
        <time>2011-08-30T09:11:38Z</time>
      </trkpt>
      <trkpt lat="45.62432" lon="6.55439">
        <ele>2123</ele>
        <time>2011-08-30T09:11:52Z</time>
      </trkpt>
      <trkpt lat="45.6243" lon="6.55443">
        <ele>2123</ele>
        <time>2011-08-30T09:12:03Z</time>
      </trkpt>
      <trkpt lat="45.62434" lon="6.55435">
        <ele>2123</ele>
        <time>2011-08-30T09:12:15Z</time>
      </trkpt>
      <trkpt lat="45.62431" lon="6.55421">
        <ele>2123</ele>
        <time>2011-08-30T09:12:27Z</time>
      </trkpt>
      <trkpt lat="45.62429" lon="6.55407">
        <ele>2123</ele>
        <time>2011-08-30T09:12:39Z</time>
      </trkpt>
      <trkpt lat="45.62426" lon="6.55392">
        <ele>2123</ele>
        <time>2011-08-30T09:12:50Z</time>
      </trkpt>
      <trkpt lat="45.62424" lon="6.55378">
        <ele>2123</ele>
        <time>2011-08-30T09:13:01Z</time>
      </trkpt>
      <trkpt lat="45.62421" lon="6.55364">
        <ele>2123</ele>
        <time>2011-08-30T09:13:11Z</time>
      </trkpt>
      <trkpt lat="45.62418" lon="6.55349">
        <ele>2123</ele>
        <time>2011-08-30T09:13:21Z</time>
      </trkpt>
      <trkpt lat="45.62414" lon="6.55335">
        <ele>2123</ele>
        <time>2011-08-30T09:13:31Z</time>
      </trkpt>
      <trkpt lat="45.62411" lon="6.55321">
        <ele>2123</ele>
        <time>2011-08-30T09:13:43Z</time>
      </trkpt>
      <trkpt lat="45.62409" lon="6.55307">
        <ele>2123</ele>
        <time>2011-08-30T09:13:55Z</time>
      </trkpt>
      <trkpt lat="45.62407" lon="6.55291">
        <ele>2123</ele>
        <time>2011-08-30T09:14:05Z</time>
      </trkpt>
      <trkpt lat="45.62403" lon="6.55276">
        <ele>2123</ele>
        <time>2011-08-30T09:14:16Z</time>
      </trkpt>
      <trkpt lat="45.62398" lon="6.55266">
        <ele>2123</ele>
        <time>2011-08-30T09:14:27Z</time>
      </trkpt>
      <trkpt lat="45.62396" lon="6.55258">
        <ele>2123</ele>
        <time>2011-08-30T09:14:37Z</time>
      </trkpt>
      <trkpt lat="45.62394" lon="6.55251">
        <ele>2125</ele>
        <time>2011-08-30T09:14:47Z</time>
      </trkpt>
      <trkpt lat="45.62395" lon="6.55246">
        <ele>2125</ele>
        <time>2011-08-30T09:15:02Z</time>
      </trkpt>
      <trkpt lat="45.62391" lon="6.5524">
        <ele>2126</ele>
        <time>2011-08-30T09:15:14Z</time>
      </trkpt>
      <trkpt lat="45.62387" lon="6.55228">
        <ele>2127</ele>
        <time>2011-08-30T09:15:25Z</time>
      </trkpt>
      <trkpt lat="45.62383" lon="6.55221">
        <ele>2127</ele>
        <time>2011-08-30T09:15:38Z</time>
      </trkpt>
      <trkpt lat="45.62383" lon="6.55213">
        <ele>2130</ele>
        <time>2011-08-30T09:15:52Z</time>
      </trkpt>
      <trkpt lat="45.62379" lon="6.55208">
        <ele>2131</ele>
        <time>2011-08-30T09:16:05Z</time>
      </trkpt>
      <trkpt lat="45.62375" lon="6.55202">
        <ele>2131</ele>
        <time>2011-08-30T09:16:15Z</time>
      </trkpt>
      <trkpt lat="45.62369" lon="6.55192">
        <ele>2131</ele>
        <time>2011-08-30T09:16:25Z</time>
      </trkpt>
      <trkpt lat="45.62365" lon="6.55181">
        <ele>2131</ele>
        <time>2011-08-30T09:16:35Z</time>
      </trkpt>
      <trkpt lat="45.62362" lon="6.55177">
        <ele>2131</ele>
        <time>2011-08-30T09:16:45Z</time>
      </trkpt>
      <trkpt lat="45.62359" lon="6.55173">
        <ele>2131</ele>
        <time>2011-08-30T09:16:57Z</time>
      </trkpt>
      <trkpt lat="45.62357" lon="6.5517">
        <ele>2132</ele>
        <time>2011-08-30T09:17:07Z</time>
      </trkpt>
      <trkpt lat="45.62354" lon="6.55167">
        <ele>2133</ele>
        <time>2011-08-30T09:17:20Z</time>
      </trkpt>
      <trkpt lat="45.62352" lon="6.55164">
        <ele>2135</ele>
        <time>2011-08-30T09:17:42Z</time>
      </trkpt>
      <trkpt lat="45.62353" lon="6.55162">
        <ele>2135</ele>
        <time>2011-08-30T09:17:52Z</time>
      </trkpt>
      <trkpt lat="45.62352" lon="6.55161">
        <ele>2135</ele>
        <time>2011-08-30T09:18:08Z</time>
      </trkpt>
      <trkpt lat="45.62349" lon="6.5516">
        <ele>2136</ele>
        <time>2011-08-30T09:18:21Z</time>
      </trkpt>
      <trkpt lat="45.62348" lon="6.55156">
        <ele>2136</ele>
        <time>2011-08-30T09:18:32Z</time>
      </trkpt>
      <trkpt lat="45.62347" lon="6.55152">
        <ele>2136</ele>
        <time>2011-08-30T09:18:44Z</time>
      </trkpt>
      <trkpt lat="45.62348" lon="6.55143">
        <ele>2136</ele>
        <time>2011-08-30T09:18:54Z</time>
      </trkpt>
      <trkpt lat="45.62348" lon="6.55134">
        <ele>2136</ele>
        <time>2011-08-30T09:19:05Z</time>
      </trkpt>
      <trkpt lat="45.62347" lon="6.55124">
        <ele>2136</ele>
        <time>2011-08-30T09:19:16Z</time>
      </trkpt>
      <trkpt lat="45.62345" lon="6.55117">
        <ele>2136</ele>
        <time>2011-08-30T09:19:27Z</time>
      </trkpt>
      <trkpt lat="45.62342" lon="6.5511">
        <ele>2136</ele>
        <time>2011-08-30T09:19:37Z</time>
      </trkpt>
      <trkpt lat="45.62342" lon="6.55103">
        <ele>2136</ele>
        <time>2011-08-30T09:19:47Z</time>
      </trkpt>
      <trkpt lat="45.6234" lon="6.55099">
        <ele>2136</ele>
        <time>2011-08-30T09:19:57Z</time>
      </trkpt>
      <trkpt lat="45.62336" lon="6.55097">
        <ele>2138</ele>
        <time>2011-08-30T09:20:14Z</time>
      </trkpt>
      <trkpt lat="45.62333" lon="6.55094">
        <ele>2138</ele>
        <time>2011-08-30T09:20:26Z</time>
      </trkpt>
      <trkpt lat="45.62326" lon="6.55088">
        <ele>2138</ele>
        <time>2011-08-30T09:20:37Z</time>
      </trkpt>
      <trkpt lat="45.62319" lon="6.55085">
        <ele>2138</ele>
        <time>2011-08-30T09:20:49Z</time>
      </trkpt>
      <trkpt lat="45.62316" lon="6.55082">
        <ele>2138</ele>
        <time>2011-08-30T09:21:02Z</time>
      </trkpt>
      <trkpt lat="45.62312" lon="6.55077">
        <ele>2138</ele>
        <time>2011-08-30T09:21:13Z</time>
      </trkpt>
      <trkpt lat="45.62308" lon="6.55076">
        <ele>2138</ele>
        <time>2011-08-30T09:21:24Z</time>
      </trkpt>
      <trkpt lat="45.62303" lon="6.55068">
        <ele>2138</ele>
        <time>2011-08-30T09:21:34Z</time>
      </trkpt>
      <trkpt lat="45.62298" lon="6.5506">
        <ele>2138</ele>
        <time>2011-08-30T09:21:44Z</time>
      </trkpt>
      <trkpt lat="45.62297" lon="6.55048">
        <ele>2138</ele>
        <time>2011-08-30T09:21:54Z</time>
      </trkpt>
      <trkpt lat="45.62299" lon="6.55038">
        <ele>2138</ele>
        <time>2011-08-30T09:22:05Z</time>
      </trkpt>
      <trkpt lat="45.623" lon="6.55027">
        <ele>2138</ele>
        <time>2011-08-30T09:22:17Z</time>
      </trkpt>
      <trkpt lat="45.62297" lon="6.55016">
        <ele>2138</ele>
        <time>2011-08-30T09:22:27Z</time>
      </trkpt>
      <trkpt lat="45.62294" lon="6.55007">
        <ele>2138</ele>
        <time>2011-08-30T09:22:38Z</time>
      </trkpt>
      <trkpt lat="45.62292" lon="6.54992">
        <ele>2138</ele>
        <time>2011-08-30T09:22:48Z</time>
      </trkpt>
      <trkpt lat="45.62291" lon="6.54977">
        <ele>2138</ele>
        <time>2011-08-30T09:22:58Z</time>
      </trkpt>
      <trkpt lat="45.6229" lon="6.54965">
        <ele>2138</ele>
        <time>2011-08-30T09:23:08Z</time>
      </trkpt>
      <trkpt lat="45.62286" lon="6.54957">
        <ele>2138</ele>
        <time>2011-08-30T09:23:19Z</time>
      </trkpt>
      <trkpt lat="45.62281" lon="6.54946">
        <ele>2138</ele>
        <time>2011-08-30T09:23:29Z</time>
      </trkpt>
      <trkpt lat="45.62283" lon="6.54937">
        <ele>2135</ele>
        <time>2011-08-30T09:23:40Z</time>
      </trkpt>
      <trkpt lat="45.62281" lon="6.54929">
        <ele>2131</ele>
        <time>2011-08-30T09:23:50Z</time>
      </trkpt>
      <trkpt lat="45.62271" lon="6.54918">
        <ele>2130</ele>
        <time>2011-08-30T09:24:00Z</time>
      </trkpt>
      <trkpt lat="45.62267" lon="6.54906">
        <ele>2130</ele>
        <time>2011-08-30T09:24:11Z</time>
      </trkpt>
      <trkpt lat="45.62263" lon="6.54893">
        <ele>2129</ele>
        <time>2011-08-30T09:24:21Z</time>
      </trkpt>
      <trkpt lat="45.62258" lon="6.54878">
        <ele>2129</ele>
        <time>2011-08-30T09:24:31Z</time>
      </trkpt>
      <trkpt lat="45.6226" lon="6.54866">
        <ele>2131</ele>
        <time>2011-08-30T09:24:43Z</time>
      </trkpt>
      <trkpt lat="45.62264" lon="6.54858">
        <ele>2132</ele>
        <time>2011-08-30T09:24:53Z</time>
      </trkpt>
      <trkpt lat="45.62256" lon="6.5485">
        <ele>2132</ele>
        <time>2011-08-30T09:25:05Z</time>
      </trkpt>
      <trkpt lat="45.62247" lon="6.54839">
        <ele>2132</ele>
        <time>2011-08-30T09:25:16Z</time>
      </trkpt>
      <trkpt lat="45.62242" lon="6.54832">
        <ele>2132</ele>
        <time>2011-08-30T09:25:26Z</time>
      </trkpt>
      <trkpt lat="45.62236" lon="6.54823">
        <ele>2132</ele>
        <time>2011-08-30T09:25:36Z</time>
      </trkpt>
      <trkpt lat="45.62232" lon="6.54812">
        <ele>2132</ele>
        <time>2011-08-30T09:25:46Z</time>
      </trkpt>
      <trkpt lat="45.62231" lon="6.54797">
        <ele>2132</ele>
        <time>2011-08-30T09:25:57Z</time>
      </trkpt>
      <trkpt lat="45.62225" lon="6.54783">
        <ele>2132</ele>
        <time>2011-08-30T09:26:08Z</time>
      </trkpt>
      <trkpt lat="45.62221" lon="6.54769">
        <ele>2132</ele>
        <time>2011-08-30T09:26:18Z</time>
      </trkpt>
      <trkpt lat="45.6222" lon="6.54758">
        <ele>2132</ele>
        <time>2011-08-30T09:26:28Z</time>
      </trkpt>
      <trkpt lat="45.62217" lon="6.54749">
        <ele>2132</ele>
        <time>2011-08-30T09:26:39Z</time>
      </trkpt>
      <trkpt lat="45.62212" lon="6.54742">
        <ele>2132</ele>
        <time>2011-08-30T09:26:50Z</time>
      </trkpt>
      <trkpt lat="45.6221" lon="6.54735">
        <ele>2132</ele>
        <time>2011-08-30T09:27:03Z</time>
      </trkpt>
      <trkpt lat="45.62211" lon="6.54725">
        <ele>2132</ele>
        <time>2011-08-30T09:27:14Z</time>
      </trkpt>
      <trkpt lat="45.62209" lon="6.54712">
        <ele>2132</ele>
        <time>2011-08-30T09:27:25Z</time>
      </trkpt>
      <trkpt lat="45.62209" lon="6.54705">
        <ele>2134</ele>
        <time>2011-08-30T09:27:35Z</time>
      </trkpt>
      <trkpt lat="45.6221" lon="6.54698">
        <ele>2134</ele>
        <time>2011-08-30T09:27:45Z</time>
      </trkpt>
      <trkpt lat="45.62209" lon="6.54691">
        <ele>2135</ele>
        <time>2011-08-30T09:27:55Z</time>
      </trkpt>
      <trkpt lat="45.62207" lon="6.54685">
        <ele>2135</ele>
        <time>2011-08-30T09:28:05Z</time>
      </trkpt>
      <trkpt lat="45.62206" lon="6.5468">
        <ele>2135</ele>
        <time>2011-08-30T09:28:19Z</time>
      </trkpt>
      <trkpt lat="45.62204" lon="6.54675">
        <ele>2137</ele>
        <time>2011-08-30T09:28:33Z</time>
      </trkpt>
      <trkpt lat="45.62201" lon="6.54672">
        <ele>2139</ele>
        <time>2011-08-30T09:28:45Z</time>
      </trkpt>
      <trkpt lat="45.62203" lon="6.54664">
        <ele>2141</ele>
        <time>2011-08-30T09:28:55Z</time>
      </trkpt>
      <trkpt lat="45.62204" lon="6.5466">
        <ele>2143</ele>
        <time>2011-08-30T09:29:07Z</time>
      </trkpt>
      <trkpt lat="45.62202" lon="6.5465">
        <ele>2144</ele>
        <time>2011-08-30T09:29:18Z</time>
      </trkpt>
      <trkpt lat="45.62197" lon="6.5464">
        <ele>2144</ele>
        <time>2011-08-30T09:29:28Z</time>
      </trkpt>
      <trkpt lat="45.62194" lon="6.54635">
        <ele>2145</ele>
        <time>2011-08-30T09:29:41Z</time>
      </trkpt>
      <trkpt lat="45.62193" lon="6.54627">
        <ele>2148</ele>
        <time>2011-08-30T09:29:53Z</time>
      </trkpt>
      <trkpt lat="45.6219" lon="6.54621">
        <ele>2149</ele>
        <time>2011-08-30T09:30:05Z</time>
      </trkpt>
      <trkpt lat="45.62188" lon="6.54614">
        <ele>2149</ele>
        <time>2011-08-30T09:30:15Z</time>
      </trkpt>
      <trkpt lat="45.62193" lon="6.5461">
        <ele>2153</ele>
        <time>2011-08-30T09:30:28Z</time>
      </trkpt>
      <trkpt lat="45.62199" lon="6.54605">
        <ele>2153</ele>
        <time>2011-08-30T09:30:39Z</time>
      </trkpt>
      <trkpt lat="45.622" lon="6.54596">
        <ele>2154</ele>
        <time>2011-08-30T09:30:51Z</time>
      </trkpt>
      <trkpt lat="45.62199" lon="6.54587">
        <ele>2156</ele>
        <time>2011-08-30T09:31:02Z</time>
      </trkpt>
      <trkpt lat="45.62196" lon="6.54575">
        <ele>2157</ele>
        <time>2011-08-30T09:31:12Z</time>
      </trkpt>
      <trkpt lat="45.62189" lon="6.54568">
        <ele>2157</ele>
        <time>2011-08-30T09:31:22Z</time>
      </trkpt>
      <trkpt lat="45.62184" lon="6.5456">
        <ele>2157</ele>
        <time>2011-08-30T09:31:32Z</time>
      </trkpt>
      <trkpt lat="45.62176" lon="6.54551">
        <ele>2157</ele>
        <time>2011-08-30T09:31:42Z</time>
      </trkpt>
      <trkpt lat="45.6217" lon="6.5454">
        <ele>2156</ele>
        <time>2011-08-30T09:31:52Z</time>
      </trkpt>
      <trkpt lat="45.62166" lon="6.54532">
        <ele>2154</ele>
        <time>2011-08-30T09:32:03Z</time>
      </trkpt>
      <trkpt lat="45.6216" lon="6.5452">
        <ele>2152</ele>
        <time>2011-08-30T09:32:14Z</time>
      </trkpt>
      <trkpt lat="45.62159" lon="6.54517">
        <ele>2152</ele>
        <time>2011-08-30T09:32:25Z</time>
      </trkpt>
      <trkpt lat="45.62153" lon="6.54508">
        <ele>2152</ele>
        <time>2011-08-30T09:32:36Z</time>
      </trkpt>
      <trkpt lat="45.62149" lon="6.54504">
        <ele>2152</ele>
        <time>2011-08-30T09:32:46Z</time>
      </trkpt>
      <trkpt lat="45.62148" lon="6.54494">
        <ele>2152</ele>
        <time>2011-08-30T09:32:56Z</time>
      </trkpt>
      <trkpt lat="45.6215" lon="6.54488">
        <ele>2152</ele>
        <time>2011-08-30T09:33:07Z</time>
      </trkpt>
      <trkpt lat="45.62151" lon="6.54478">
        <ele>2152</ele>
        <time>2011-08-30T09:33:17Z</time>
      </trkpt>
      <trkpt lat="45.6215" lon="6.54468">
        <ele>2152</ele>
        <time>2011-08-30T09:33:27Z</time>
      </trkpt>
      <trkpt lat="45.62155" lon="6.54456">
        <ele>2152</ele>
        <time>2011-08-30T09:33:38Z</time>
      </trkpt>
      <trkpt lat="45.62158" lon="6.5445">
        <ele>2152</ele>
        <time>2011-08-30T09:33:49Z</time>
      </trkpt>
      <trkpt lat="45.62162" lon="6.5444">
        <ele>2153</ele>
        <time>2011-08-30T09:33:59Z</time>
      </trkpt>
      <trkpt lat="45.62166" lon="6.54432">
        <ele>2154</ele>
        <time>2011-08-30T09:34:09Z</time>
      </trkpt>
      <trkpt lat="45.62171" lon="6.54424">
        <ele>2154</ele>
        <time>2011-08-30T09:34:20Z</time>
      </trkpt>
      <trkpt lat="45.62176" lon="6.54413">
        <ele>2155</ele>
        <time>2011-08-30T09:34:31Z</time>
      </trkpt>
      <trkpt lat="45.62178" lon="6.54399">
        <ele>2155</ele>
        <time>2011-08-30T09:34:42Z</time>
      </trkpt>
      <trkpt lat="45.62178" lon="6.54388">
        <ele>2155</ele>
        <time>2011-08-30T09:34:52Z</time>
      </trkpt>
      <trkpt lat="45.6218" lon="6.54385">
        <ele>2155</ele>
        <time>2011-08-30T09:35:03Z</time>
      </trkpt>
      <trkpt lat="45.62181" lon="6.54375">
        <ele>2155</ele>
        <time>2011-08-30T09:35:13Z</time>
      </trkpt>
      <trkpt lat="45.62182" lon="6.54363">
        <ele>2155</ele>
        <time>2011-08-30T09:35:23Z</time>
      </trkpt>
      <trkpt lat="45.62183" lon="6.54353">
        <ele>2154</ele>
        <time>2011-08-30T09:35:35Z</time>
      </trkpt>
      <trkpt lat="45.62186" lon="6.54343">
        <ele>2153</ele>
        <time>2011-08-30T09:35:45Z</time>
      </trkpt>
      <trkpt lat="45.62183" lon="6.54332">
        <ele>2152</ele>
        <time>2011-08-30T09:35:55Z</time>
      </trkpt>
      <trkpt lat="45.6218" lon="6.54328">
        <ele>2152</ele>
        <time>2011-08-30T09:36:11Z</time>
      </trkpt>
      <trkpt lat="45.62175" lon="6.54323">
        <ele>2148</ele>
        <time>2011-08-30T09:36:21Z</time>
      </trkpt>
      <trkpt lat="45.62172" lon="6.54314">
        <ele>2145</ele>
        <time>2011-08-30T09:36:32Z</time>
      </trkpt>
      <trkpt lat="45.62169" lon="6.54307">
        <ele>2142</ele>
        <time>2011-08-30T09:36:43Z</time>
      </trkpt>
      <trkpt lat="45.62169" lon="6.54302">
        <ele>2141</ele>
        <time>2011-08-30T09:36:54Z</time>
      </trkpt>
      <trkpt lat="45.62169" lon="6.54294">
        <ele>2139</ele>
        <time>2011-08-30T09:37:16Z</time>
      </trkpt>
      <trkpt lat="45.62167" lon="6.54284">
        <ele>2139</ele>
        <time>2011-08-30T09:37:26Z</time>
      </trkpt>
      <trkpt lat="45.62163" lon="6.54275">
        <ele>2137</ele>
        <time>2011-08-30T09:37:38Z</time>
      </trkpt>
      <trkpt lat="45.62162" lon="6.54267">
        <ele>2136</ele>
        <time>2011-08-30T09:37:50Z</time>
      </trkpt>
      <trkpt lat="45.6216" lon="6.54261">
        <ele>2136</ele>
        <time>2011-08-30T09:38:08Z</time>
      </trkpt>
      <trkpt lat="45.62161" lon="6.54259">
        <ele>2136</ele>
        <time>2011-08-30T09:38:27Z</time>
      </trkpt>
      <trkpt lat="45.62162" lon="6.54248">
        <ele>2136</ele>
        <time>2011-08-30T09:38:38Z</time>
      </trkpt>
      <trkpt lat="45.62163" lon="6.54238">
        <ele>2136</ele>
        <time>2011-08-30T09:38:48Z</time>
      </trkpt>
      <trkpt lat="45.62165" lon="6.54228">
        <ele>2136</ele>
        <time>2011-08-30T09:38:58Z</time>
      </trkpt>
      <trkpt lat="45.62164" lon="6.54215">
        <ele>2136</ele>
        <time>2011-08-30T09:39:09Z</time>
      </trkpt>
      <trkpt lat="45.62163" lon="6.54209">
        <ele>2136</ele>
        <time>2011-08-30T09:39:21Z</time>
      </trkpt>
      <trkpt lat="45.62164" lon="6.54204">
        <ele>2136</ele>
        <time>2011-08-30T09:39:31Z</time>
      </trkpt>
      <trkpt lat="45.62168" lon="6.54193">
        <ele>2136</ele>
        <time>2011-08-30T09:39:42Z</time>
      </trkpt>
      <trkpt lat="45.62172" lon="6.54184">
        <ele>2137</ele>
        <time>2011-08-30T09:39:52Z</time>
      </trkpt>
      <trkpt lat="45.62174" lon="6.54173">
        <ele>2137</ele>
        <time>2011-08-30T09:40:02Z</time>
      </trkpt>
      <trkpt lat="45.62176" lon="6.54155">
        <ele>2137</ele>
        <time>2011-08-30T09:40:13Z</time>
      </trkpt>
      <trkpt lat="45.62178" lon="6.54153">
        <ele>2137</ele>
        <time>2011-08-30T09:40:23Z</time>
      </trkpt>
      <trkpt lat="45.62179" lon="6.54151">
        <ele>2137</ele>
        <time>2011-08-30T09:40:43Z</time>
      </trkpt>
      <trkpt lat="45.62181" lon="6.54142">
        <ele>2137</ele>
        <time>2011-08-30T09:40:54Z</time>
      </trkpt>
      <trkpt lat="45.62178" lon="6.54128">
        <ele>2137</ele>
        <time>2011-08-30T09:41:05Z</time>
      </trkpt>
      <trkpt lat="45.62175" lon="6.54114">
        <ele>2137</ele>
        <time>2011-08-30T09:41:16Z</time>
      </trkpt>
      <trkpt lat="45.62174" lon="6.541">
        <ele>2137</ele>
        <time>2011-08-30T09:41:26Z</time>
      </trkpt>
      <trkpt lat="45.62172" lon="6.54085">
        <ele>2137</ele>
        <time>2011-08-30T09:41:37Z</time>
      </trkpt>
      <trkpt lat="45.62169" lon="6.54075">
        <ele>2137</ele>
        <time>2011-08-30T09:41:48Z</time>
      </trkpt>
      <trkpt lat="45.62166" lon="6.54071">
        <ele>2137</ele>
        <time>2011-08-30T09:42:16Z</time>
      </trkpt>
      <trkpt lat="45.62167" lon="6.54072">
        <ele>2137</ele>
        <time>2011-08-30T09:42:29Z</time>
      </trkpt>
      <trkpt lat="45.62166" lon="6.5407">
        <ele>2137</ele>
        <time>2011-08-30T09:42:40Z</time>
      </trkpt>
      <trkpt lat="45.62166" lon="6.54063">
        <ele>2137</ele>
        <time>2011-08-30T09:42:53Z</time>
      </trkpt>
      <trkpt lat="45.62168" lon="6.54059">
        <ele>2137</ele>
        <time>2011-08-30T09:43:34Z</time>
      </trkpt>
      <trkpt lat="45.62167" lon="6.54061">
        <ele>2137</ele>
        <time>2011-08-30T09:43:50Z</time>
      </trkpt>
      <trkpt lat="45.62166" lon="6.54061">
        <ele>2137</ele>
        <time>2011-08-30T09:44:16Z</time>
      </trkpt>
      <trkpt lat="45.62165" lon="6.54059">
        <ele>2137</ele>
        <time>2011-08-30T09:44:50Z</time>
      </trkpt>
      <trkpt lat="45.62164" lon="6.54059">
        <ele>2137</ele>
        <time>2011-08-30T09:45:08Z</time>
      </trkpt>
      <trkpt lat="45.62163" lon="6.5406">
        <ele>2137</ele>
        <time>2011-08-30T09:45:42Z</time>
      </trkpt>
      <trkpt lat="45.62162" lon="6.54062">
        <ele>2137</ele>
        <time>2011-08-30T09:45:53Z</time>
      </trkpt>
      <trkpt lat="45.62158" lon="6.54065">
        <ele>2137</ele>
        <time>2011-08-30T09:46:10Z</time>
      </trkpt>
      <trkpt lat="45.62158" lon="6.54066">
        <ele>2137</ele>
        <time>2011-08-30T09:46:44Z</time>
      </trkpt>
      <trkpt lat="45.62159" lon="6.54065">
        <ele>2137</ele>
        <time>2011-08-30T09:47:01Z</time>
      </trkpt>
      <trkpt lat="45.6216" lon="6.54066">
        <ele>2137</ele>
        <time>2011-08-30T09:47:11Z</time>
      </trkpt>
      <trkpt lat="45.62162" lon="6.54068">
        <ele>2137</ele>
        <time>2011-08-30T09:47:47Z</time>
      </trkpt>
      <trkpt lat="45.62162" lon="6.5407">
        <ele>2139</ele>
        <time>2011-08-30T09:48:00Z</time>
      </trkpt>
      <trkpt lat="45.62161" lon="6.5407">
        <ele>2139</ele>
        <time>2011-08-30T09:48:12Z</time>
      </trkpt>
      <trkpt lat="45.62162" lon="6.5407">
        <ele>2139</ele>
        <time>2011-08-30T09:48:25Z</time>
      </trkpt>
      <trkpt lat="45.62162" lon="6.54068">
        <ele>2139</ele>
        <time>2011-08-30T09:48:50Z</time>
      </trkpt>
      <trkpt lat="45.62161" lon="6.54067">
        <ele>2139</ele>
        <time>2011-08-30T09:49:02Z</time>
      </trkpt>
      <trkpt lat="45.62161" lon="6.54065">
        <ele>2139</ele>
        <time>2011-08-30T09:49:21Z</time>
      </trkpt>
      <trkpt lat="45.62165" lon="6.54059">
        <ele>2139</ele>
        <time>2011-08-30T09:49:34Z</time>
      </trkpt>
      <trkpt lat="45.62164" lon="6.54051">
        <ele>2137</ele>
        <time>2011-08-30T09:49:44Z</time>
      </trkpt>
      <trkpt lat="45.62161" lon="6.5404">
        <ele>2136</ele>
        <time>2011-08-30T09:49:55Z</time>
      </trkpt>
      <trkpt lat="45.62162" lon="6.54029">
        <ele>2135</ele>
        <time>2011-08-30T09:50:05Z</time>
      </trkpt>
      <trkpt lat="45.62163" lon="6.54019">
        <ele>2135</ele>
        <time>2011-08-30T09:50:15Z</time>
      </trkpt>
      <trkpt lat="45.62164" lon="6.54011">
        <ele>2135</ele>
        <time>2011-08-30T09:50:46Z</time>
      </trkpt>
      <trkpt lat="45.62162" lon="6.54007">
        <ele>2134</ele>
        <time>2011-08-30T09:50:59Z</time>
      </trkpt>
      <trkpt lat="45.6216" lon="6.54006">
        <ele>2133</ele>
        <time>2011-08-30T09:51:24Z</time>
      </trkpt>
      <trkpt lat="45.62154" lon="6.54002">
        <ele>2131</ele>
        <time>2011-08-30T09:51:36Z</time>
      </trkpt>
      <trkpt lat="45.62152" lon="6.53997">
        <ele>2130</ele>
        <time>2011-08-30T09:51:47Z</time>
      </trkpt>
      <trkpt lat="45.62152" lon="6.53995">
        <ele>2129</ele>
        <time>2011-08-30T09:52:00Z</time>
      </trkpt>
      <trkpt lat="45.62153" lon="6.53992">
        <ele>2129</ele>
        <time>2011-08-30T09:52:10Z</time>
      </trkpt>
      <trkpt lat="45.62154" lon="6.53994">
        <ele>2129</ele>
        <time>2011-08-30T09:52:49Z</time>
      </trkpt>
      <trkpt lat="45.62156" lon="6.53996">
        <ele>2129</ele>
        <time>2011-08-30T09:53:02Z</time>
      </trkpt>
      <trkpt lat="45.62154" lon="6.53995">
        <ele>2133</ele>
        <time>2011-08-30T09:53:13Z</time>
      </trkpt>
      <trkpt lat="45.62154" lon="6.53999">
        <ele>2134</ele>
        <time>2011-08-30T09:53:45Z</time>
      </trkpt>
      <trkpt lat="45.62151" lon="6.53997">
        <ele>2134</ele>
        <time>2011-08-30T09:54:03Z</time>
      </trkpt>
      <trkpt lat="45.62145" lon="6.53994">
        <ele>2138</ele>
        <time>2011-08-30T09:54:13Z</time>
      </trkpt>
      <trkpt lat="45.62148" lon="6.53997">
        <ele>2138</ele>
        <time>2011-08-30T09:54:28Z</time>
      </trkpt>
      <trkpt lat="45.62151" lon="6.53998">
        <ele>2134</ele>
        <time>2011-08-30T09:54:41Z</time>
      </trkpt>
      <trkpt lat="45.62155" lon="6.54002">
        <ele>2130</ele>
        <time>2011-08-30T09:54:53Z</time>
      </trkpt>
      <trkpt lat="45.62151" lon="6.54001">
        <ele>2125</ele>
        <time>2011-08-30T09:55:03Z</time>
      </trkpt>
      <trkpt lat="45.6215" lon="6.54002">
        <ele>2119</ele>
        <time>2011-08-30T09:55:15Z</time>
      </trkpt>
      <trkpt lat="45.62156" lon="6.54001">
        <ele>2119</ele>
        <time>2011-08-30T09:55:27Z</time>
      </trkpt>
      <trkpt lat="45.62153" lon="6.53998">
        <ele>2125</ele>
        <time>2011-08-30T09:55:37Z</time>
      </trkpt>
      <trkpt lat="45.62154" lon="6.54">
        <ele>2127</ele>
        <time>2011-08-30T09:55:54Z</time>
      </trkpt>
      <trkpt lat="45.62153" lon="6.53999">
        <ele>2127</ele>
        <time>2011-08-30T09:56:05Z</time>
      </trkpt>
      <trkpt lat="45.62154" lon="6.54002">
        <ele>2127</ele>
        <time>2011-08-30T09:56:23Z</time>
      </trkpt>
      <trkpt lat="45.62155" lon="6.54002">
        <ele>2127</ele>
        <time>2011-08-30T09:56:55Z</time>
      </trkpt>
      <trkpt lat="45.62156" lon="6.54004">
        <ele>2125</ele>
        <time>2011-08-30T09:57:09Z</time>
      </trkpt>
      <trkpt lat="45.62156" lon="6.54005">
        <ele>2123</ele>
        <time>2011-08-30T09:57:32Z</time>
      </trkpt>
      <trkpt lat="45.62156" lon="6.54004">
        <ele>2122</ele>
        <time>2011-08-30T09:58:19Z</time>
      </trkpt>
      <trkpt lat="45.62156" lon="6.54002">
        <ele>2122</ele>
        <time>2011-08-30T09:58:46Z</time>
      </trkpt>
      <trkpt lat="45.62154" lon="6.54001">
        <ele>2123</ele>
        <time>2011-08-30T09:59:18Z</time>
      </trkpt>
      <trkpt lat="45.62153" lon="6.54001">
        <ele>2124</ele>
        <time>2011-08-30T09:59:42Z</time>
      </trkpt>
      <trkpt lat="45.62154" lon="6.54001">
        <ele>2125</ele>
        <time>2011-08-30T10:02:18Z</time>
      </trkpt>
      <trkpt lat="45.62156" lon="6.54002">
        <ele>2125</ele>
        <time>2011-08-30T10:02:28Z</time>
      </trkpt>
      <trkpt lat="45.62157" lon="6.54002">
        <ele>2125</ele>
        <time>2011-08-30T10:02:47Z</time>
      </trkpt>
      <trkpt lat="45.62156" lon="6.54003">
        <ele>2125</ele>
        <time>2011-08-30T10:04:04Z</time>
      </trkpt>
      <trkpt lat="45.62155" lon="6.54001">
        <ele>2125</ele>
        <time>2011-08-30T10:05:26Z</time>
      </trkpt>
      <trkpt lat="45.62154" lon="6.54001">
        <ele>2125</ele>
        <time>2011-08-30T10:05:55Z</time>
      </trkpt>
      <trkpt lat="45.62155" lon="6.54001">
        <ele>2125</ele>
        <time>2011-08-30T10:06:49Z</time>
      </trkpt>
      <trkpt lat="45.62157" lon="6.54001">
        <ele>2125</ele>
        <time>2011-08-30T10:07:03Z</time>
      </trkpt>
      <trkpt lat="45.62157" lon="6.54">
        <ele>2125</ele>
        <time>2011-08-30T10:07:39Z</time>
      </trkpt>
      <trkpt lat="45.62158" lon="6.54001">
        <ele>2125</ele>
        <time>2011-08-30T10:08:20Z</time>
      </trkpt>
      <trkpt lat="45.62158" lon="6.54003">
        <ele>2127</ele>
        <time>2011-08-30T10:08:53Z</time>
      </trkpt>
      <trkpt lat="45.62159" lon="6.54001">
        <ele>2127</ele>
        <time>2011-08-30T10:09:09Z</time>
      </trkpt>
      <trkpt lat="45.6216" lon="6.54001">
        <ele>2128</ele>
        <time>2011-08-30T10:09:35Z</time>
      </trkpt>
      <trkpt lat="45.62158" lon="6.53998">
        <ele>2127</ele>
        <time>2011-08-30T10:09:48Z</time>
      </trkpt>
      <trkpt lat="45.62153" lon="6.53998">
        <ele>2127</ele>
        <time>2011-08-30T10:10:02Z</time>
      </trkpt>
      <trkpt lat="45.62153" lon="6.54">
        <ele>2127</ele>
        <time>2011-08-30T10:10:14Z</time>
      </trkpt>
      <trkpt lat="45.62154" lon="6.54001">
        <ele>2127</ele>
        <time>2011-08-30T10:10:39Z</time>
      </trkpt>
      <trkpt lat="45.62154" lon="6.54">
        <ele>2127</ele>
        <time>2011-08-30T10:10:58Z</time>
      </trkpt>
      <trkpt lat="45.62154" lon="6.54001">
        <ele>2127</ele>
        <time>2011-08-30T10:11:13Z</time>
      </trkpt>
      <trkpt lat="45.62155" lon="6.54003">
        <ele>2122</ele>
        <time>2011-08-30T10:11:48Z</time>
      </trkpt>
      <trkpt lat="45.62153" lon="6.54001">
        <ele>2122</ele>
        <time>2011-08-30T10:12:02Z</time>
      </trkpt>
      <trkpt lat="45.62156" lon="6.54003">
        <ele>2122</ele>
        <time>2011-08-30T10:12:17Z</time>
      </trkpt>
      <trkpt lat="45.62155" lon="6.54001">
        <ele>2123</ele>
        <time>2011-08-30T10:12:34Z</time>
      </trkpt>
      <trkpt lat="45.62156" lon="6.54002">
        <ele>2123</ele>
        <time>2011-08-30T10:12:44Z</time>
      </trkpt>
      <trkpt lat="45.62151" lon="6.53998">
        <ele>2122</ele>
        <time>2011-08-30T10:12:54Z</time>
      </trkpt>
      <trkpt lat="45.6215" lon="6.54007">
        <ele>2113</ele>
        <time>2011-08-30T10:13:04Z</time>
      </trkpt>
      <trkpt lat="45.62159" lon="6.54006">
        <ele>2108</ele>
        <time>2011-08-30T10:13:15Z</time>
      </trkpt>
      <trkpt lat="45.62154" lon="6.54001">
        <ele>2110</ele>
        <time>2011-08-30T10:13:25Z</time>
      </trkpt>
      <trkpt lat="45.62153" lon="6.53998">
        <ele>2116</ele>
        <time>2011-08-30T10:13:36Z</time>
      </trkpt>
      <trkpt lat="45.62154" lon="6.53996">
        <ele>2124</ele>
        <time>2011-08-30T10:13:49Z</time>
      </trkpt>
      <trkpt lat="45.62155" lon="6.53998">
        <ele>2128</ele>
        <time>2011-08-30T10:14:23Z</time>
      </trkpt>
      <trkpt lat="45.62157" lon="6.53999">
        <ele>2127</ele>
        <time>2011-08-30T10:14:49Z</time>
      </trkpt>
      <trkpt lat="45.62158" lon="6.54">
        <ele>2127</ele>
        <time>2011-08-30T10:15:06Z</time>
      </trkpt>
      <trkpt lat="45.62157" lon="6.54">
        <ele>2127</ele>
        <time>2011-08-30T10:15:18Z</time>
      </trkpt>
      <trkpt lat="45.62155" lon="6.54">
        <ele>2127</ele>
        <time>2011-08-30T10:16:02Z</time>
      </trkpt>
      <trkpt lat="45.62155" lon="6.54">
        <ele>2129</ele>
        <time>2011-08-30T10:16:49Z</time>
      </trkpt>
      <trkpt lat="45.62156" lon="6.54002">
        <ele>2127</ele>
        <time>2011-08-30T10:17:07Z</time>
      </trkpt>
      <trkpt lat="45.62155" lon="6.54001">
        <ele>2125</ele>
        <time>2011-08-30T10:17:21Z</time>
      </trkpt>
      <trkpt lat="45.62154" lon="6.54">
        <ele>2125</ele>
        <time>2011-08-30T10:18:04Z</time>
      </trkpt>
      <trkpt lat="45.62155" lon="6.54001">
        <ele>2125</ele>
        <time>2011-08-30T10:18:16Z</time>
      </trkpt>
      <trkpt lat="45.62158" lon="6.54003">
        <ele>2123</ele>
        <time>2011-08-30T10:18:30Z</time>
      </trkpt>
      <trkpt lat="45.6216" lon="6.54004">
        <ele>2118</ele>
        <time>2011-08-30T10:18:42Z</time>
      </trkpt>
      <trkpt lat="45.62157" lon="6.54003">
        <ele>2118</ele>
        <time>2011-08-30T10:18:53Z</time>
      </trkpt>
      <trkpt lat="45.62158" lon="6.54001">
        <ele>2122</ele>
        <time>2011-08-30T10:19:08Z</time>
      </trkpt>
      <trkpt lat="45.62156" lon="6.54">
        <ele>2129</ele>
        <time>2011-08-30T10:19:45Z</time>
      </trkpt>
      <trkpt lat="45.62156" lon="6.54001">
        <ele>2130</ele>
        <time>2011-08-30T10:20:54Z</time>
      </trkpt>
      <trkpt lat="45.62157" lon="6.54003">
        <ele>2128</ele>
        <time>2011-08-30T10:21:05Z</time>
      </trkpt>
      <trkpt lat="45.62156" lon="6.54001">
        <ele>2125</ele>
        <time>2011-08-30T10:21:22Z</time>
      </trkpt>
      <trkpt lat="45.62155" lon="6.54002">
        <ele>2125</ele>
        <time>2011-08-30T10:21:46Z</time>
      </trkpt>
      <trkpt lat="45.62155" lon="6.54004">
        <ele>2123</ele>
        <time>2011-08-30T10:22:05Z</time>
      </trkpt>
      <trkpt lat="45.62156" lon="6.54004">
        <ele>2118</ele>
        <time>2011-08-30T10:22:18Z</time>
      </trkpt>
      <trkpt lat="45.62156" lon="6.54003">
        <ele>2118</ele>
        <time>2011-08-30T10:22:33Z</time>
      </trkpt>
      <trkpt lat="45.62157" lon="6.53999">
        <ele>2123</ele>
        <time>2011-08-30T10:22:54Z</time>
      </trkpt>
      <trkpt lat="45.62157" lon="6.53997">
        <ele>2123</ele>
        <time>2011-08-30T10:23:20Z</time>
      </trkpt>
      <trkpt lat="45.62156" lon="6.53997">
        <ele>2124</ele>
        <time>2011-08-30T10:23:33Z</time>
      </trkpt>
      <trkpt lat="45.62154" lon="6.53997">
        <ele>2124</ele>
        <time>2011-08-30T10:23:51Z</time>
      </trkpt>
      <trkpt lat="45.62151" lon="6.53997">
        <ele>2129</ele>
        <time>2011-08-30T10:24:02Z</time>
      </trkpt>
      <trkpt lat="45.62152" lon="6.54002">
        <ele>2129</ele>
        <time>2011-08-30T10:24:14Z</time>
      </trkpt>
      <trkpt lat="45.62149" lon="6.54002">
        <ele>2129</ele>
        <time>2011-08-30T10:24:24Z</time>
      </trkpt>
      <trkpt lat="45.62151" lon="6.54">
        <ele>2132</ele>
        <time>2011-08-30T10:24:37Z</time>
      </trkpt>
      <trkpt lat="45.62153" lon="6.53997">
        <ele>2132</ele>
        <time>2011-08-30T10:24:48Z</time>
      </trkpt>
      <trkpt lat="45.62154" lon="6.53996">
        <ele>2130</ele>
        <time>2011-08-30T10:24:59Z</time>
      </trkpt>
      <trkpt lat="45.62153" lon="6.53996">
        <ele>2130</ele>
        <time>2011-08-30T10:25:12Z</time>
      </trkpt>
      <trkpt lat="45.62155" lon="6.53999">
        <ele>2126</ele>
        <time>2011-08-30T10:25:31Z</time>
      </trkpt>
      <trkpt lat="45.62155" lon="6.54001">
        <ele>2126</ele>
        <time>2011-08-30T10:25:57Z</time>
      </trkpt>
      <trkpt lat="45.62155" lon="6.54001">
        <ele>2122</ele>
        <time>2011-08-30T10:26:20Z</time>
      </trkpt>
      <trkpt lat="45.62154" lon="6.54003">
        <ele>2122</ele>
        <time>2011-08-30T10:26:31Z</time>
      </trkpt>
      <trkpt lat="45.62152" lon="6.54004">
        <ele>2123</ele>
        <time>2011-08-30T10:26:47Z</time>
      </trkpt>
      <trkpt lat="45.62151" lon="6.54004">
        <ele>2126</ele>
        <time>2011-08-30T10:26:59Z</time>
      </trkpt>
      <trkpt lat="45.62151" lon="6.54002">
        <ele>2127</ele>
        <time>2011-08-30T10:27:23Z</time>
      </trkpt>
      <trkpt lat="45.62151" lon="6.54002">
        <ele>2127</ele>
        <time>2011-08-30T10:27:44Z</time>
      </trkpt>
      <trkpt lat="45.62152" lon="6.54003">
        <ele>2127</ele>
        <time>2011-08-30T10:27:56Z</time>
      </trkpt>
      <trkpt lat="45.62156" lon="6.54004">
        <ele>2127</ele>
        <time>2011-08-30T10:28:11Z</time>
      </trkpt>
      <trkpt lat="45.62154" lon="6.53998">
        <ele>2128</ele>
        <time>2011-08-30T10:28:22Z</time>
      </trkpt>
      <trkpt lat="45.62153" lon="6.53996">
        <ele>2128</ele>
        <time>2011-08-30T10:28:33Z</time>
      </trkpt>
      <trkpt lat="45.62153" lon="6.53999">
        <ele>2128</ele>
        <time>2011-08-30T10:28:44Z</time>
      </trkpt>
      <trkpt lat="45.62153" lon="6.53998">
        <ele>2126</ele>
        <time>2011-08-30T10:28:57Z</time>
      </trkpt>
      <trkpt lat="45.62151" lon="6.53996">
        <ele>2126</ele>
        <time>2011-08-30T10:29:12Z</time>
      </trkpt>
      <trkpt lat="45.6215" lon="6.53993">
        <ele>2126</ele>
        <time>2011-08-30T10:29:24Z</time>
      </trkpt>
      <trkpt lat="45.62148" lon="6.5399">
        <ele>2126</ele>
        <time>2011-08-30T10:29:34Z</time>
      </trkpt>
      <trkpt lat="45.62149" lon="6.53993">
        <ele>2125</ele>
        <time>2011-08-30T10:29:44Z</time>
      </trkpt>
      <trkpt lat="45.62148" lon="6.53991">
        <ele>2125</ele>
        <time>2011-08-30T10:29:54Z</time>
      </trkpt>
      <trkpt lat="45.62148" lon="6.53992">
        <ele>2125</ele>
        <time>2011-08-30T10:30:04Z</time>
      </trkpt>
      <trkpt lat="45.62152" lon="6.54">
        <ele>2125</ele>
        <time>2011-08-30T10:30:17Z</time>
      </trkpt>
      <trkpt lat="45.62151" lon="6.54003">
        <ele>2126</ele>
        <time>2011-08-30T10:30:50Z</time>
      </trkpt>
      <trkpt lat="45.6215" lon="6.54005">
        <ele>2127</ele>
        <time>2011-08-30T10:31:04Z</time>
      </trkpt>
      <trkpt lat="45.62149" lon="6.54004">
        <ele>2127</ele>
        <time>2011-08-30T10:31:14Z</time>
      </trkpt>
      <trkpt lat="45.6215" lon="6.54003">
        <ele>2128</ele>
        <time>2011-08-30T10:31:27Z</time>
      </trkpt>
      <trkpt lat="45.62151" lon="6.54002">
        <ele>2128</ele>
        <time>2011-08-30T10:31:43Z</time>
      </trkpt>
      <trkpt lat="45.6215" lon="6.54002">
        <ele>2128</ele>
        <time>2011-08-30T10:31:58Z</time>
      </trkpt>
      <trkpt lat="45.6215" lon="6.54001">
        <ele>2130</ele>
        <time>2011-08-30T10:32:11Z</time>
      </trkpt>
      <trkpt lat="45.62153" lon="6.54001">
        <ele>2131</ele>
        <time>2011-08-30T10:32:32Z</time>
      </trkpt>
      <trkpt lat="45.62155" lon="6.54002">
        <ele>2130</ele>
        <time>2011-08-30T10:32:42Z</time>
      </trkpt>
      <trkpt lat="45.62154" lon="6.54001">
        <ele>2129</ele>
        <time>2011-08-30T10:32:52Z</time>
      </trkpt>
      <trkpt lat="45.62152" lon="6.54">
        <ele>2129</ele>
        <time>2011-08-30T10:33:11Z</time>
      </trkpt>
      <trkpt lat="45.62155" lon="6.54002">
        <ele>2136</ele>
        <time>2011-08-30T10:33:22Z</time>
      </trkpt>
      <trkpt lat="45.62158" lon="6.54003">
        <ele>2126</ele>
        <time>2011-08-30T10:33:38Z</time>
      </trkpt>
      <trkpt lat="45.62163" lon="6.54006">
        <ele>2114</ele>
        <time>2011-08-30T10:33:50Z</time>
      </trkpt>
      <trkpt lat="45.62159" lon="6.54005">
        <ele>2112</ele>
        <time>2011-08-30T10:34:02Z</time>
      </trkpt>
      <trkpt lat="45.62155" lon="6.54002">
        <ele>2122</ele>
        <time>2011-08-30T10:34:12Z</time>
      </trkpt>
      <trkpt lat="45.62156" lon="6.54003">
        <ele>2130</ele>
        <time>2011-08-30T10:34:25Z</time>
      </trkpt>
      <trkpt lat="45.62159" lon="6.54004">
        <ele>2130</ele>
        <time>2011-08-30T10:34:35Z</time>
      </trkpt>
      <trkpt lat="45.62155" lon="6.54004">
        <ele>2132</ele>
        <time>2011-08-30T10:34:45Z</time>
      </trkpt>
      <trkpt lat="45.62152" lon="6.54004">
        <ele>2145</ele>
        <time>2011-08-30T10:35:02Z</time>
      </trkpt>
      <trkpt lat="45.62149" lon="6.54003">
        <ele>2147</ele>
        <time>2011-08-30T10:35:19Z</time>
      </trkpt>
      <trkpt lat="45.62147" lon="6.54001">
        <ele>2148</ele>
        <time>2011-08-30T10:35:41Z</time>
      </trkpt>
      <trkpt lat="45.62148" lon="6.54001">
        <ele>2148</ele>
        <time>2011-08-30T10:35:58Z</time>
      </trkpt>
      <trkpt lat="45.62148" lon="6.54001">
        <ele>2141</ele>
        <time>2011-08-30T10:36:45Z</time>
      </trkpt>
      <trkpt lat="45.62147" lon="6.53999">
        <ele>2142</ele>
        <time>2011-08-30T10:37:04Z</time>
      </trkpt>
      <trkpt lat="45.62146" lon="6.53997">
        <ele>2149</ele>
        <time>2011-08-30T10:37:16Z</time>
      </trkpt>
      <trkpt lat="45.62149" lon="6.53995">
        <ele>2149</ele>
        <time>2011-08-30T10:37:31Z</time>
      </trkpt>
      <trkpt lat="45.62152" lon="6.53996">
        <ele>2140</ele>
        <time>2011-08-30T10:37:45Z</time>
      </trkpt>
      <trkpt lat="45.62157" lon="6.54002">
        <ele>2128</ele>
        <time>2011-08-30T10:37:57Z</time>
      </trkpt>
      <trkpt lat="45.62158" lon="6.54004">
        <ele>2113</ele>
        <time>2011-08-30T10:38:51Z</time>
      </trkpt>
      <trkpt lat="45.62157" lon="6.54003">
        <ele>2115</ele>
        <time>2011-08-30T10:39:07Z</time>
      </trkpt>
      <trkpt lat="45.62156" lon="6.54003">
        <ele>2118</ele>
        <time>2011-08-30T10:39:18Z</time>
      </trkpt>
      <trkpt lat="45.62156" lon="6.54003">
        <ele>2119</ele>
        <time>2011-08-30T10:39:34Z</time>
      </trkpt>
      <trkpt lat="45.62158" lon="6.54004">
        <ele>2119</ele>
        <time>2011-08-30T10:39:44Z</time>
      </trkpt>
      <trkpt lat="45.62161" lon="6.54005">
        <ele>2112</ele>
        <time>2011-08-30T10:39:56Z</time>
      </trkpt>
      <trkpt lat="45.62152" lon="6.54004">
        <ele>2111</ele>
        <time>2011-08-30T10:40:12Z</time>
      </trkpt>
      <trkpt lat="45.62147" lon="6.54002">
        <ele>2146</ele>
        <time>2011-08-30T10:40:28Z</time>
      </trkpt>
      <trkpt lat="45.62151" lon="6.54003">
        <ele>2141</ele>
        <time>2011-08-30T10:40:42Z</time>
      </trkpt>
      <trkpt lat="45.62153" lon="6.54003">
        <ele>2134</ele>
        <time>2011-08-30T10:40:52Z</time>
      </trkpt>
      <trkpt lat="45.62154" lon="6.54003">
        <ele>2128</ele>
        <time>2011-08-30T10:41:02Z</time>
      </trkpt>
      <trkpt lat="45.62154" lon="6.54003">
        <ele>2121</ele>
        <time>2011-08-30T10:41:14Z</time>
      </trkpt>
      <trkpt lat="45.62152" lon="6.54001">
        <ele>2129</ele>
        <time>2011-08-30T10:41:29Z</time>
      </trkpt>
      <trkpt lat="45.62154" lon="6.54002">
        <ele>2131</ele>
        <time>2011-08-30T10:41:44Z</time>
      </trkpt>
      <trkpt lat="45.62156" lon="6.54003">
        <ele>2128</ele>
        <time>2011-08-30T10:41:54Z</time>
      </trkpt>
      <trkpt lat="45.62155" lon="6.54004">
        <ele>2124</ele>
        <time>2011-08-30T10:42:14Z</time>
      </trkpt>
      <trkpt lat="45.6215" lon="6.54002">
        <ele>2132</ele>
        <time>2011-08-30T10:42:26Z</time>
      </trkpt>
      <trkpt lat="45.62148" lon="6.54002">
        <ele>2143</ele>
        <time>2011-08-30T10:42:57Z</time>
      </trkpt>
      <trkpt lat="45.62148" lon="6.54001">
        <ele>2138</ele>
        <time>2011-08-30T10:43:11Z</time>
      </trkpt>
      <trkpt lat="45.62145" lon="6.53997">
        <ele>2149</ele>
        <time>2011-08-30T10:43:27Z</time>
      </trkpt>
      <trkpt lat="45.62146" lon="6.53998">
        <ele>2153</ele>
        <time>2011-08-30T10:43:48Z</time>
      </trkpt>
      <trkpt lat="45.62148" lon="6.53999">
        <ele>2149</ele>
        <time>2011-08-30T10:44:00Z</time>
      </trkpt>
      <trkpt lat="45.62151" lon="6.54">
        <ele>2142</ele>
        <time>2011-08-30T10:44:12Z</time>
      </trkpt>
      <trkpt lat="45.62152" lon="6.53999">
        <ele>2138</ele>
        <time>2011-08-30T10:44:38Z</time>
      </trkpt>
      <trkpt lat="45.62152" lon="6.53998">
        <ele>2138</ele>
        <time>2011-08-30T10:44:52Z</time>
      </trkpt>
      <trkpt lat="45.62153" lon="6.53998">
        <ele>2137</ele>
        <time>2011-08-30T10:45:59Z</time>
      </trkpt>
      <trkpt lat="45.62153" lon="6.53998">
        <ele>2137</ele>
        <time>2011-08-30T10:46:19Z</time>
      </trkpt>
      <trkpt lat="45.62156" lon="6.54">
        <ele>2133</ele>
        <time>2011-08-30T10:46:30Z</time>
      </trkpt>
      <trkpt lat="45.62157" lon="6.54001">
        <ele>2126</ele>
        <time>2011-08-30T10:46:57Z</time>
      </trkpt>
      <trkpt lat="45.62154" lon="6.54001">
        <ele>2122</ele>
        <time>2011-08-30T10:47:40Z</time>
      </trkpt>
      <trkpt lat="45.62154" lon="6.54001">
        <ele>2128</ele>
        <time>2011-08-30T10:48:00Z</time>
      </trkpt>
      <trkpt lat="45.62155" lon="6.54">
        <ele>2128</ele>
        <time>2011-08-30T10:48:11Z</time>
      </trkpt>
      <trkpt lat="45.62154" lon="6.53999">
        <ele>2128</ele>
        <time>2011-08-30T10:48:27Z</time>
      </trkpt>
      <trkpt lat="45.62155" lon="6.54001">
        <ele>2129</ele>
        <time>2011-08-30T10:48:48Z</time>
      </trkpt>
      <trkpt lat="45.62157" lon="6.54002">
        <ele>2121</ele>
        <time>2011-08-30T10:48:58Z</time>
      </trkpt>
      <trkpt lat="45.62157" lon="6.54001">
        <ele>2119</ele>
        <time>2011-08-30T10:49:13Z</time>
      </trkpt>
      <trkpt lat="45.62157" lon="6.54002">
        <ele>2120</ele>
        <time>2011-08-30T10:49:40Z</time>
      </trkpt>
      <trkpt lat="45.62158" lon="6.54005">
        <ele>2115</ele>
        <time>2011-08-30T10:50:00Z</time>
      </trkpt>
      <trkpt lat="45.62164" lon="6.54009">
        <ele>2099</ele>
        <time>2011-08-30T10:50:11Z</time>
      </trkpt>
      <trkpt lat="45.62163" lon="6.54007">
        <ele>2088</ele>
        <time>2011-08-30T10:50:21Z</time>
      </trkpt>
      <trkpt lat="45.62154" lon="6.54002">
        <ele>2107</ele>
        <time>2011-08-30T10:50:34Z</time>
      </trkpt>
      <trkpt lat="45.62153" lon="6.54003">
        <ele>2112</ele>
        <time>2011-08-30T10:50:49Z</time>
      </trkpt>
      <trkpt lat="45.62151" lon="6.54002">
        <ele>2120</ele>
        <time>2011-08-30T10:51:08Z</time>
      </trkpt>
      <trkpt lat="45.62152" lon="6.54001">
        <ele>2128</ele>
        <time>2011-08-30T10:51:23Z</time>
      </trkpt>
      <trkpt lat="45.62149" lon="6.53998">
        <ele>2136</ele>
        <time>2011-08-30T10:51:36Z</time>
      </trkpt>
      <trkpt lat="45.62146" lon="6.53998">
        <ele>2138</ele>
        <time>2011-08-30T10:51:46Z</time>
      </trkpt>
      <trkpt lat="45.62144" lon="6.54003">
        <ele>2147</ele>
        <time>2011-08-30T10:51:57Z</time>
      </trkpt>
      <trkpt lat="45.62143" lon="6.54003">
        <ele>2147</ele>
        <time>2011-08-30T10:52:15Z</time>
      </trkpt>
      <trkpt lat="45.62146" lon="6.54001">
        <ele>2145</ele>
        <time>2011-08-30T10:52:27Z</time>
      </trkpt>
      <trkpt lat="45.62151" lon="6.54003">
        <ele>2143</ele>
        <time>2011-08-30T10:52:40Z</time>
      </trkpt>
      <trkpt lat="45.62157" lon="6.54006">
        <ele>2129</ele>
        <time>2011-08-30T10:52:51Z</time>
      </trkpt>
      <trkpt lat="45.6216" lon="6.54003">
        <ele>2115</ele>
        <time>2011-08-30T10:53:04Z</time>
      </trkpt>
      <trkpt lat="45.62161" lon="6.54">
        <ele>2115</ele>
        <time>2011-08-30T10:53:14Z</time>
      </trkpt>
      <trkpt lat="45.62153" lon="6.54001">
        <ele>2122</ele>
        <time>2011-08-30T10:53:25Z</time>
      </trkpt>
      <trkpt lat="45.62159" lon="6.54001">
        <ele>2122</ele>
        <time>2011-08-30T10:53:35Z</time>
      </trkpt>
      <trkpt lat="45.62162" lon="6.54002">
        <ele>2103</ele>
        <time>2011-08-30T10:53:54Z</time>
      </trkpt>
      <trkpt lat="45.62157" lon="6.53999">
        <ele>2104</ele>
        <time>2011-08-30T10:54:05Z</time>
      </trkpt>
      <trkpt lat="45.62153" lon="6.54">
        <ele>2109</ele>
        <time>2011-08-30T10:54:16Z</time>
      </trkpt>
      <trkpt lat="45.62158" lon="6.53998">
        <ele>2109</ele>
        <time>2011-08-30T10:54:28Z</time>
      </trkpt>
      <trkpt lat="45.62157" lon="6.53999">
        <ele>2105</ele>
        <time>2011-08-30T10:54:53Z</time>
      </trkpt>
      <trkpt lat="45.62154" lon="6.53999">
        <ele>2112</ele>
        <time>2011-08-30T10:55:04Z</time>
      </trkpt>
      <trkpt lat="45.62153" lon="6.53999">
        <ele>2119</ele>
        <time>2011-08-30T10:55:30Z</time>
      </trkpt>
      <trkpt lat="45.62152" lon="6.53999">
        <ele>2126</ele>
        <time>2011-08-30T10:57:43Z</time>
      </trkpt>
      <trkpt lat="45.62151" lon="6.54">
        <ele>2126</ele>
        <time>2011-08-30T10:58:01Z</time>
      </trkpt>
      <trkpt lat="45.6215" lon="6.54001">
        <ele>2126</ele>
        <time>2011-08-30T10:58:30Z</time>
      </trkpt>
      <trkpt lat="45.62151" lon="6.54002">
        <ele>2126</ele>
        <time>2011-08-30T10:58:43Z</time>
      </trkpt>
      <trkpt lat="45.62151" lon="6.54002">
        <ele>2127</ele>
        <time>2011-08-30T10:58:58Z</time>
      </trkpt>
      <trkpt lat="45.62152" lon="6.54003">
        <ele>2127</ele>
        <time>2011-08-30T10:59:11Z</time>
      </trkpt>
      <trkpt lat="45.62153" lon="6.54002">
        <ele>2127</ele>
        <time>2011-08-30T10:59:28Z</time>
      </trkpt>
      <trkpt lat="45.62152" lon="6.54002">
        <ele>2127</ele>
        <time>2011-08-30T10:59:48Z</time>
      </trkpt>
      <trkpt lat="45.62152" lon="6.54001">
        <ele>2127</ele>
        <time>2011-08-30T11:00:04Z</time>
      </trkpt>
      <trkpt lat="45.62151" lon="6.54002">
        <ele>2127</ele>
        <time>2011-08-30T11:00:23Z</time>
      </trkpt>
      <trkpt lat="45.62152" lon="6.54">
        <ele>2127</ele>
        <time>2011-08-30T11:00:34Z</time>
      </trkpt>
      <trkpt lat="45.62152" lon="6.53999">
        <ele>2127</ele>
        <time>2011-08-30T11:00:46Z</time>
      </trkpt>
      <trkpt lat="45.62153" lon="6.53998">
        <ele>2127</ele>
        <time>2011-08-30T11:00:56Z</time>
      </trkpt>
      <trkpt lat="45.62153" lon="6.53999">
        <ele>2126</ele>
        <time>2011-08-30T11:01:08Z</time>
      </trkpt>
      <trkpt lat="45.62153" lon="6.54001">
        <ele>2126</ele>
        <time>2011-08-30T11:01:19Z</time>
      </trkpt>
      <trkpt lat="45.62152" lon="6.54">
        <ele>2126</ele>
        <time>2011-08-30T11:01:33Z</time>
      </trkpt>
      <trkpt lat="45.62153" lon="6.53999">
        <ele>2126</ele>
        <time>2011-08-30T11:01:47Z</time>
      </trkpt>
      <trkpt lat="45.62153" lon="6.53997">
        <ele>2126</ele>
        <time>2011-08-30T11:02:00Z</time>
      </trkpt>
      <trkpt lat="45.62153" lon="6.53996">
        <ele>2126</ele>
        <time>2011-08-30T11:02:14Z</time>
      </trkpt>
      <trkpt lat="45.62155" lon="6.53992">
        <ele>2126</ele>
        <time>2011-08-30T11:02:28Z</time>
      </trkpt>
      <trkpt lat="45.62157" lon="6.53987">
        <ele>2126</ele>
        <time>2011-08-30T11:02:39Z</time>
      </trkpt>
      <trkpt lat="45.6216" lon="6.53982">
        <ele>2126</ele>
        <time>2011-08-30T11:02:49Z</time>
      </trkpt>
      <trkpt lat="45.62163" lon="6.53977">
        <ele>2126</ele>
        <time>2011-08-30T11:03:02Z</time>
      </trkpt>
      <trkpt lat="45.62162" lon="6.53974">
        <ele>2124</ele>
        <time>2011-08-30T11:03:12Z</time>
      </trkpt>
      <trkpt lat="45.62162" lon="6.53968">
        <ele>2124</ele>
        <time>2011-08-30T11:03:26Z</time>
      </trkpt>
      <trkpt lat="45.62164" lon="6.53965">
        <ele>2122</ele>
        <time>2011-08-30T11:03:36Z</time>
      </trkpt>
      <trkpt lat="45.62161" lon="6.5396">
        <ele>2121</ele>
        <time>2011-08-30T11:03:54Z</time>
      </trkpt>
      <trkpt lat="45.62157" lon="6.53952">
        <ele>2119</ele>
        <time>2011-08-30T11:04:04Z</time>
      </trkpt>
      <trkpt lat="45.62155" lon="6.53939">
        <ele>2117</ele>
        <time>2011-08-30T11:04:14Z</time>
      </trkpt>
      <trkpt lat="45.62158" lon="6.53928">
        <ele>2115</ele>
        <time>2011-08-30T11:04:24Z</time>
      </trkpt>
      <trkpt lat="45.62161" lon="6.5392">
        <ele>2112</ele>
        <time>2011-08-30T11:04:36Z</time>
      </trkpt>
      <trkpt lat="45.6216" lon="6.5391">
        <ele>2110</ele>
        <time>2011-08-30T11:04:46Z</time>
      </trkpt>
      <trkpt lat="45.62158" lon="6.53903">
        <ele>2107</ele>
        <time>2011-08-30T11:04:56Z</time>
      </trkpt>
      <trkpt lat="45.62161" lon="6.53899">
        <ele>2102</ele>
        <time>2011-08-30T11:05:06Z</time>
      </trkpt>
      <trkpt lat="45.62163" lon="6.53892">
        <ele>2100</ele>
        <time>2011-08-30T11:05:16Z</time>
      </trkpt>
      <trkpt lat="45.6216" lon="6.53881">
        <ele>2095</ele>
        <time>2011-08-30T11:05:28Z</time>
      </trkpt>
      <trkpt lat="45.62159" lon="6.5387">
        <ele>2094</ele>
        <time>2011-08-30T11:05:39Z</time>
      </trkpt>
      <trkpt lat="45.62164" lon="6.53863">
        <ele>2093</ele>
        <time>2011-08-30T11:05:52Z</time>
      </trkpt>
      <trkpt lat="45.62166" lon="6.53851">
        <ele>2092</ele>
        <time>2011-08-30T11:06:03Z</time>
      </trkpt>
      <trkpt lat="45.6217" lon="6.53842">
        <ele>2092</ele>
        <time>2011-08-30T11:06:14Z</time>
      </trkpt>
      <trkpt lat="45.62171" lon="6.53831">
        <ele>2091</ele>
        <time>2011-08-30T11:06:24Z</time>
      </trkpt>
      <trkpt lat="45.6217" lon="6.5382">
        <ele>2090</ele>
        <time>2011-08-30T11:06:34Z</time>
      </trkpt>
      <trkpt lat="45.62174" lon="6.53807">
        <ele>2090</ele>
        <time>2011-08-30T11:06:45Z</time>
      </trkpt>
      <trkpt lat="45.62175" lon="6.53796">
        <ele>2090</ele>
        <time>2011-08-30T11:06:55Z</time>
      </trkpt>
      <trkpt lat="45.62176" lon="6.53782">
        <ele>2090</ele>
        <time>2011-08-30T11:07:05Z</time>
      </trkpt>
      <trkpt lat="45.62177" lon="6.53771">
        <ele>2090</ele>
        <time>2011-08-30T11:07:15Z</time>
      </trkpt>
      <trkpt lat="45.62178" lon="6.53761">
        <ele>2090</ele>
        <time>2011-08-30T11:07:26Z</time>
      </trkpt>
      <trkpt lat="45.62182" lon="6.53751">
        <ele>2090</ele>
        <time>2011-08-30T11:07:37Z</time>
      </trkpt>
      <trkpt lat="45.62179" lon="6.53739">
        <ele>2090</ele>
        <time>2011-08-30T11:07:47Z</time>
      </trkpt>
      <trkpt lat="45.62178" lon="6.53725">
        <ele>2091</ele>
        <time>2011-08-30T11:07:58Z</time>
      </trkpt>
      <trkpt lat="45.62177" lon="6.53718">
        <ele>2091</ele>
        <time>2011-08-30T11:08:08Z</time>
      </trkpt>
      <trkpt lat="45.62175" lon="6.5371">
        <ele>2091</ele>
        <time>2011-08-30T11:08:20Z</time>
      </trkpt>
      <trkpt lat="45.62174" lon="6.53705">
        <ele>2091</ele>
        <time>2011-08-30T11:08:30Z</time>
      </trkpt>
      <trkpt lat="45.62173" lon="6.53701">
        <ele>2091</ele>
        <time>2011-08-30T11:08:40Z</time>
      </trkpt>
      <trkpt lat="45.62173" lon="6.53688">
        <ele>2091</ele>
        <time>2011-08-30T11:08:52Z</time>
      </trkpt>
      <trkpt lat="45.62172" lon="6.53677">
        <ele>2091</ele>
        <time>2011-08-30T11:09:03Z</time>
      </trkpt>
      <trkpt lat="45.6217" lon="6.53671">
        <ele>2091</ele>
        <time>2011-08-30T11:09:13Z</time>
      </trkpt>
      <trkpt lat="45.62166" lon="6.53659">
        <ele>2091</ele>
        <time>2011-08-30T11:09:28Z</time>
      </trkpt>
      <trkpt lat="45.62161" lon="6.53648">
        <ele>2091</ele>
        <time>2011-08-30T11:09:39Z</time>
      </trkpt>
      <trkpt lat="45.62163" lon="6.53633">
        <ele>2091</ele>
        <time>2011-08-30T11:09:50Z</time>
      </trkpt>
      <trkpt lat="45.62166" lon="6.53625">
        <ele>2090</ele>
        <time>2011-08-30T11:10:00Z</time>
      </trkpt>
      <trkpt lat="45.62162" lon="6.5361">
        <ele>2088</ele>
        <time>2011-08-30T11:10:11Z</time>
      </trkpt>
      <trkpt lat="45.6216" lon="6.53597">
        <ele>2087</ele>
        <time>2011-08-30T11:10:21Z</time>
      </trkpt>
      <trkpt lat="45.62158" lon="6.53588">
        <ele>2087</ele>
        <time>2011-08-30T11:10:32Z</time>
      </trkpt>
      <trkpt lat="45.62159" lon="6.5358">
        <ele>2087</ele>
        <time>2011-08-30T11:10:43Z</time>
      </trkpt>
      <trkpt lat="45.62162" lon="6.53573">
        <ele>2087</ele>
        <time>2011-08-30T11:10:54Z</time>
      </trkpt>
      <trkpt lat="45.62165" lon="6.53569">
        <ele>2087</ele>
        <time>2011-08-30T11:11:04Z</time>
      </trkpt>
      <trkpt lat="45.62166" lon="6.5357">
        <ele>2087</ele>
        <time>2011-08-30T11:11:20Z</time>
      </trkpt>
      <trkpt lat="45.62169" lon="6.53568">
        <ele>2086</ele>
        <time>2011-08-30T11:11:30Z</time>
      </trkpt>
      <trkpt lat="45.62171" lon="6.53562">
        <ele>2086</ele>
        <time>2011-08-30T11:11:40Z</time>
      </trkpt>
      <trkpt lat="45.6218" lon="6.53554">
        <ele>2086</ele>
        <time>2011-08-30T11:11:51Z</time>
      </trkpt>
      <trkpt lat="45.62183" lon="6.53543">
        <ele>2085</ele>
        <time>2011-08-30T11:12:01Z</time>
      </trkpt>
      <trkpt lat="45.62185" lon="6.53534">
        <ele>2084</ele>
        <time>2011-08-30T11:12:15Z</time>
      </trkpt>
      <trkpt lat="45.62186" lon="6.53534">
        <ele>2084</ele>
        <time>2011-08-30T11:12:35Z</time>
      </trkpt>
      <trkpt lat="45.6219" lon="6.53526">
        <ele>2084</ele>
        <time>2011-08-30T11:12:45Z</time>
      </trkpt>
      <trkpt lat="45.62189" lon="6.53514">
        <ele>2084</ele>
        <time>2011-08-30T11:12:55Z</time>
      </trkpt>
      <trkpt lat="45.62188" lon="6.53501">
        <ele>2084</ele>
        <time>2011-08-30T11:13:06Z</time>
      </trkpt>
      <trkpt lat="45.62186" lon="6.53489">
        <ele>2084</ele>
        <time>2011-08-30T11:13:16Z</time>
      </trkpt>
      <trkpt lat="45.62187" lon="6.53477">
        <ele>2084</ele>
        <time>2011-08-30T11:13:26Z</time>
      </trkpt>
      <trkpt lat="45.62187" lon="6.53472">
        <ele>2084</ele>
        <time>2011-08-30T11:13:36Z</time>
      </trkpt>
      <trkpt lat="45.62188" lon="6.5346">
        <ele>2083</ele>
        <time>2011-08-30T11:13:46Z</time>
      </trkpt>
      <trkpt lat="45.62191" lon="6.53447">
        <ele>2082</ele>
        <time>2011-08-30T11:13:57Z</time>
      </trkpt>
      <trkpt lat="45.62189" lon="6.53436">
        <ele>2082</ele>
        <time>2011-08-30T11:14:07Z</time>
      </trkpt>
      <trkpt lat="45.62188" lon="6.53425">
        <ele>2082</ele>
        <time>2011-08-30T11:14:18Z</time>
      </trkpt>
      <trkpt lat="45.62185" lon="6.53411">
        <ele>2082</ele>
        <time>2011-08-30T11:14:28Z</time>
      </trkpt>
      <trkpt lat="45.62185" lon="6.53398">
        <ele>2082</ele>
        <time>2011-08-30T11:14:38Z</time>
      </trkpt>
      <trkpt lat="45.62188" lon="6.53387">
        <ele>2082</ele>
        <time>2011-08-30T11:14:48Z</time>
      </trkpt>
      <trkpt lat="45.6219" lon="6.53382">
        <ele>2083</ele>
        <time>2011-08-30T11:15:11Z</time>
      </trkpt>
      <trkpt lat="45.62191" lon="6.53382">
        <ele>2084</ele>
        <time>2011-08-30T11:15:31Z</time>
      </trkpt>
      <trkpt lat="45.62191" lon="6.53374">
        <ele>2084</ele>
        <time>2011-08-30T11:15:41Z</time>
      </trkpt>
      <trkpt lat="45.62191" lon="6.53366">
        <ele>2085</ele>
        <time>2011-08-30T11:15:51Z</time>
      </trkpt>
      <trkpt lat="45.62196" lon="6.53355">
        <ele>2086</ele>
        <time>2011-08-30T11:16:04Z</time>
      </trkpt>
      <trkpt lat="45.62198" lon="6.53347">
        <ele>2086</ele>
        <time>2011-08-30T11:16:14Z</time>
      </trkpt>
      <trkpt lat="45.62198" lon="6.53337">
        <ele>2086</ele>
        <time>2011-08-30T11:16:24Z</time>
      </trkpt>
      <trkpt lat="45.62195" lon="6.53323">
        <ele>2086</ele>
        <time>2011-08-30T11:16:34Z</time>
      </trkpt>
      <trkpt lat="45.62194" lon="6.5331">
        <ele>2086</ele>
        <time>2011-08-30T11:16:45Z</time>
      </trkpt>
      <trkpt lat="45.62193" lon="6.53306">
        <ele>2086</ele>
        <time>2011-08-30T11:17:00Z</time>
      </trkpt>
      <trkpt lat="45.62196" lon="6.53297">
        <ele>2086</ele>
        <time>2011-08-30T11:17:10Z</time>
      </trkpt>
      <trkpt lat="45.62199" lon="6.53292">
        <ele>2086</ele>
        <time>2011-08-30T11:17:33Z</time>
      </trkpt>
      <trkpt lat="45.62206" lon="6.53295">
        <ele>2086</ele>
        <time>2011-08-30T11:17:50Z</time>
      </trkpt>
      <trkpt lat="45.62209" lon="6.53295">
        <ele>2086</ele>
        <time>2011-08-30T11:18:06Z</time>
      </trkpt>
      <trkpt lat="45.62208" lon="6.53294">
        <ele>2086</ele>
        <time>2011-08-30T11:18:16Z</time>
      </trkpt>
      <trkpt lat="45.6221" lon="6.53288">
        <ele>2085</ele>
        <time>2011-08-30T11:18:26Z</time>
      </trkpt>
      <trkpt lat="45.62211" lon="6.53288">
        <ele>2083</ele>
        <time>2011-08-30T11:18:40Z</time>
      </trkpt>
      <trkpt lat="45.6221" lon="6.53288">
        <ele>2082</ele>
        <time>2011-08-30T11:18:50Z</time>
      </trkpt>
      <trkpt lat="45.6221" lon="6.53289">
        <ele>2080</ele>
        <time>2011-08-30T11:19:06Z</time>
      </trkpt>
      <trkpt lat="45.62212" lon="6.53289">
        <ele>2080</ele>
        <time>2011-08-30T11:19:16Z</time>
      </trkpt>
      <trkpt lat="45.62213" lon="6.5329">
        <ele>2080</ele>
        <time>2011-08-30T11:19:32Z</time>
      </trkpt>
      <trkpt lat="45.62214" lon="6.53297">
        <ele>2080</ele>
        <time>2011-08-30T11:19:51Z</time>
      </trkpt>
      <trkpt lat="45.62215" lon="6.53304">
        <ele>2079</ele>
        <time>2011-08-30T11:20:01Z</time>
      </trkpt>
      <trkpt lat="45.62221" lon="6.53313">
        <ele>2079</ele>
        <time>2011-08-30T11:20:11Z</time>
      </trkpt>
      <trkpt lat="45.62223" lon="6.53323">
        <ele>2079</ele>
        <time>2011-08-30T11:20:21Z</time>
      </trkpt>
      <trkpt lat="45.62223" lon="6.53328">
        <ele>2079</ele>
        <time>2011-08-30T11:20:35Z</time>
      </trkpt>
      <trkpt lat="45.62226" lon="6.53337">
        <ele>2079</ele>
        <time>2011-08-30T11:20:47Z</time>
      </trkpt>
      <trkpt lat="45.62223" lon="6.53345">
        <ele>2079</ele>
        <time>2011-08-30T11:20:57Z</time>
      </trkpt>
      <trkpt lat="45.62222" lon="6.53346">
        <ele>2079</ele>
        <time>2011-08-30T11:21:16Z</time>
      </trkpt>
      <trkpt lat="45.62223" lon="6.53345">
        <ele>2079</ele>
        <time>2011-08-30T11:21:28Z</time>
      </trkpt>
      <trkpt lat="45.62223" lon="6.53347">
        <ele>2080</ele>
        <time>2011-08-30T11:21:42Z</time>
      </trkpt>
      <trkpt lat="45.62222" lon="6.53346">
        <ele>2081</ele>
        <time>2011-08-30T11:21:52Z</time>
      </trkpt>
      <trkpt lat="45.62216" lon="6.53351">
        <ele>2081</ele>
        <time>2011-08-30T11:22:04Z</time>
      </trkpt>
      <trkpt lat="45.62214" lon="6.53348">
        <ele>2081</ele>
        <time>2011-08-30T11:22:16Z</time>
      </trkpt>
      <trkpt lat="45.62209" lon="6.53347">
        <ele>2080</ele>
        <time>2011-08-30T11:22:30Z</time>
      </trkpt>
      <trkpt lat="45.62209" lon="6.53356">
        <ele>2080</ele>
        <time>2011-08-30T11:22:45Z</time>
      </trkpt>
      <trkpt lat="45.62204" lon="6.53364">
        <ele>2079</ele>
        <time>2011-08-30T11:22:56Z</time>
      </trkpt>
      <trkpt lat="45.62201" lon="6.53371">
        <ele>2079</ele>
        <time>2011-08-30T11:23:07Z</time>
      </trkpt>
      <trkpt lat="45.62198" lon="6.53376">
        <ele>2079</ele>
        <time>2011-08-30T11:23:20Z</time>
      </trkpt>
      <trkpt lat="45.62192" lon="6.53381">
        <ele>2079</ele>
        <time>2011-08-30T11:23:31Z</time>
      </trkpt>
      <trkpt lat="45.62187" lon="6.53386">
        <ele>2079</ele>
        <time>2011-08-30T11:23:42Z</time>
      </trkpt>
      <trkpt lat="45.62183" lon="6.53397">
        <ele>2079</ele>
        <time>2011-08-30T11:23:52Z</time>
      </trkpt>
      <trkpt lat="45.62182" lon="6.53406">
        <ele>2079</ele>
        <time>2011-08-30T11:24:22Z</time>
      </trkpt>
      <trkpt lat="45.62182" lon="6.53417">
        <ele>2081</ele>
        <time>2011-08-30T11:24:32Z</time>
      </trkpt>
      <trkpt lat="45.62184" lon="6.53428">
        <ele>2082</ele>
        <time>2011-08-30T11:24:42Z</time>
      </trkpt>
      <trkpt lat="45.62184" lon="6.5344">
        <ele>2082</ele>
        <time>2011-08-30T11:24:53Z</time>
      </trkpt>
      <trkpt lat="45.62185" lon="6.5345">
        <ele>2082</ele>
        <time>2011-08-30T11:25:04Z</time>
      </trkpt>
      <trkpt lat="45.62185" lon="6.5346">
        <ele>2082</ele>
        <time>2011-08-30T11:25:14Z</time>
      </trkpt>
      <trkpt lat="45.62185" lon="6.53474">
        <ele>2082</ele>
        <time>2011-08-30T11:25:25Z</time>
      </trkpt>
      <trkpt lat="45.62182" lon="6.53487">
        <ele>2083</ele>
        <time>2011-08-30T11:25:35Z</time>
      </trkpt>
      <trkpt lat="45.62183" lon="6.53497">
        <ele>2083</ele>
        <time>2011-08-30T11:25:46Z</time>
      </trkpt>
      <trkpt lat="45.62184" lon="6.53509">
        <ele>2083</ele>
        <time>2011-08-30T11:25:57Z</time>
      </trkpt>
      <trkpt lat="45.62185" lon="6.5352">
        <ele>2083</ele>
        <time>2011-08-30T11:26:07Z</time>
      </trkpt>
      <trkpt lat="45.62185" lon="6.5353">
        <ele>2083</ele>
        <time>2011-08-30T11:26:17Z</time>
      </trkpt>
      <trkpt lat="45.62184" lon="6.5354">
        <ele>2086</ele>
        <time>2011-08-30T11:26:27Z</time>
      </trkpt>
      <trkpt lat="45.62183" lon="6.5355">
        <ele>2086</ele>
        <time>2011-08-30T11:26:39Z</time>
      </trkpt>
      <trkpt lat="45.62183" lon="6.5356">
        <ele>2088</ele>
        <time>2011-08-30T11:26:50Z</time>
      </trkpt>
      <trkpt lat="45.62188" lon="6.53568">
        <ele>2089</ele>
        <time>2011-08-30T11:27:01Z</time>
      </trkpt>
      <trkpt lat="45.62194" lon="6.53576">
        <ele>2089</ele>
        <time>2011-08-30T11:27:11Z</time>
      </trkpt>
      <trkpt lat="45.62196" lon="6.53587">
        <ele>2092</ele>
        <time>2011-08-30T11:27:21Z</time>
      </trkpt>
      <trkpt lat="45.62196" lon="6.53597">
        <ele>2092</ele>
        <time>2011-08-30T11:27:33Z</time>
      </trkpt>
      <trkpt lat="45.62193" lon="6.53607">
        <ele>2092</ele>
        <time>2011-08-30T11:27:43Z</time>
      </trkpt>
      <trkpt lat="45.6219" lon="6.53617">
        <ele>2092</ele>
        <time>2011-08-30T11:27:53Z</time>
      </trkpt>
      <trkpt lat="45.62188" lon="6.53626">
        <ele>2092</ele>
        <time>2011-08-30T11:28:04Z</time>
      </trkpt>
      <trkpt lat="45.62188" lon="6.53636">
        <ele>2092</ele>
        <time>2011-08-30T11:28:15Z</time>
      </trkpt>
      <trkpt lat="45.62186" lon="6.53646">
        <ele>2092</ele>
        <time>2011-08-30T11:28:25Z</time>
      </trkpt>
      <trkpt lat="45.62181" lon="6.53655">
        <ele>2090</ele>
        <time>2011-08-30T11:28:35Z</time>
      </trkpt>
      <trkpt lat="45.62178" lon="6.53666">
        <ele>2088</ele>
        <time>2011-08-30T11:28:45Z</time>
      </trkpt>
      <trkpt lat="45.62178" lon="6.53677">
        <ele>2086</ele>
        <time>2011-08-30T11:28:55Z</time>
      </trkpt>
      <trkpt lat="45.62175" lon="6.53688">
        <ele>2085</ele>
        <time>2011-08-30T11:29:05Z</time>
      </trkpt>
      <trkpt lat="45.62174" lon="6.537">
        <ele>2085</ele>
        <time>2011-08-30T11:29:15Z</time>
      </trkpt>
      <trkpt lat="45.62175" lon="6.53709">
        <ele>2085</ele>
        <time>2011-08-30T11:29:27Z</time>
      </trkpt>
      <trkpt lat="45.62175" lon="6.53717">
        <ele>2085</ele>
        <time>2011-08-30T11:29:38Z</time>
      </trkpt>
      <trkpt lat="45.62178" lon="6.53726">
        <ele>2086</ele>
        <time>2011-08-30T11:29:48Z</time>
      </trkpt>
      <trkpt lat="45.6218" lon="6.53737">
        <ele>2086</ele>
        <time>2011-08-30T11:29:58Z</time>
      </trkpt>
      <trkpt lat="45.62184" lon="6.5375">
        <ele>2086</ele>
        <time>2011-08-30T11:30:08Z</time>
      </trkpt>
      <trkpt lat="45.62181" lon="6.5376">
        <ele>2086</ele>
        <time>2011-08-30T11:30:19Z</time>
      </trkpt>
      <trkpt lat="45.6218" lon="6.53772">
        <ele>2086</ele>
        <time>2011-08-30T11:30:29Z</time>
      </trkpt>
      <trkpt lat="45.62179" lon="6.53786">
        <ele>2086</ele>
        <time>2011-08-30T11:30:40Z</time>
      </trkpt>
      <trkpt lat="45.62179" lon="6.53799">
        <ele>2086</ele>
        <time>2011-08-30T11:30:50Z</time>
      </trkpt>
      <trkpt lat="45.62178" lon="6.53811">
        <ele>2086</ele>
        <time>2011-08-30T11:31:00Z</time>
      </trkpt>
      <trkpt lat="45.62175" lon="6.53821">
        <ele>2087</ele>
        <time>2011-08-30T11:31:11Z</time>
      </trkpt>
      <trkpt lat="45.62176" lon="6.53831">
        <ele>2087</ele>
        <time>2011-08-30T11:31:21Z</time>
      </trkpt>
      <trkpt lat="45.62175" lon="6.5384">
        <ele>2092</ele>
        <time>2011-08-30T11:31:34Z</time>
      </trkpt>
      <trkpt lat="45.62175" lon="6.5385">
        <ele>2093</ele>
        <time>2011-08-30T11:31:45Z</time>
      </trkpt>
      <trkpt lat="45.62173" lon="6.53856">
        <ele>2094</ele>
        <time>2011-08-30T11:31:55Z</time>
      </trkpt>
      <trkpt lat="45.62172" lon="6.53866">
        <ele>2097</ele>
        <time>2011-08-30T11:32:05Z</time>
      </trkpt>
      <trkpt lat="45.6217" lon="6.53873">
        <ele>2097</ele>
        <time>2011-08-30T11:32:16Z</time>
      </trkpt>
      <trkpt lat="45.62168" lon="6.53881">
        <ele>2098</ele>
        <time>2011-08-30T11:32:27Z</time>
      </trkpt>
      <trkpt lat="45.62168" lon="6.53887">
        <ele>2099</ele>
        <time>2011-08-30T11:32:37Z</time>
      </trkpt>
      <trkpt lat="45.62165" lon="6.53896">
        <ele>2101</ele>
        <time>2011-08-30T11:32:48Z</time>
      </trkpt>
      <trkpt lat="45.62163" lon="6.539">
        <ele>2103</ele>
        <time>2011-08-30T11:32:58Z</time>
      </trkpt>
      <trkpt lat="45.62164" lon="6.53909">
        <ele>2104</ele>
        <time>2011-08-30T11:33:08Z</time>
      </trkpt>
      <trkpt lat="45.62164" lon="6.53918">
        <ele>2106</ele>
        <time>2011-08-30T11:33:20Z</time>
      </trkpt>
      <trkpt lat="45.62158" lon="6.53929">
        <ele>2106</ele>
        <time>2011-08-30T11:33:30Z</time>
      </trkpt>
      <trkpt lat="45.62155" lon="6.53941">
        <ele>2106</ele>
        <time>2011-08-30T11:33:41Z</time>
      </trkpt>
      <trkpt lat="45.62154" lon="6.53951">
        <ele>2108</ele>
        <time>2011-08-30T11:33:53Z</time>
      </trkpt>
      <trkpt lat="45.62156" lon="6.53958">
        <ele>2111</ele>
        <time>2011-08-30T11:34:03Z</time>
      </trkpt>
      <trkpt lat="45.62159" lon="6.53967">
        <ele>2112</ele>
        <time>2011-08-30T11:34:14Z</time>
      </trkpt>
      <trkpt lat="45.62163" lon="6.53971">
        <ele>2113</ele>
        <time>2011-08-30T11:34:29Z</time>
      </trkpt>
      <trkpt lat="45.62162" lon="6.53976">
        <ele>2118</ele>
        <time>2011-08-30T11:34:40Z</time>
      </trkpt>
      <trkpt lat="45.62162" lon="6.53983">
        <ele>2120</ele>
        <time>2011-08-30T11:34:52Z</time>
      </trkpt>
      <trkpt lat="45.62156" lon="6.53988">
        <ele>2122</ele>
        <time>2011-08-30T11:35:04Z</time>
      </trkpt>
      <trkpt lat="45.62153" lon="6.53995">
        <ele>2122</ele>
        <time>2011-08-30T11:35:15Z</time>
      </trkpt>
      <trkpt lat="45.6216" lon="6.54">
        <ele>2124</ele>
        <time>2011-08-30T11:35:26Z</time>
      </trkpt>
      <trkpt lat="45.62165" lon="6.54005">
        <ele>2127</ele>
        <time>2011-08-30T11:35:37Z</time>
      </trkpt>
      <trkpt lat="45.62164" lon="6.54011">
        <ele>2129</ele>
        <time>2011-08-30T11:35:48Z</time>
      </trkpt>
      <trkpt lat="45.62163" lon="6.54016">
        <ele>2129</ele>
        <time>2011-08-30T11:35:58Z</time>
      </trkpt>
      <trkpt lat="45.62161" lon="6.54019">
        <ele>2129</ele>
        <time>2011-08-30T11:36:11Z</time>
      </trkpt>
      <trkpt lat="45.62162" lon="6.54021">
        <ele>2129</ele>
        <time>2011-08-30T11:36:29Z</time>
      </trkpt>
      <trkpt lat="45.62163" lon="6.54019">
        <ele>2129</ele>
        <time>2011-08-30T11:36:44Z</time>
      </trkpt>
      <trkpt lat="45.62162" lon="6.5402">
        <ele>2132</ele>
        <time>2011-08-30T11:37:10Z</time>
      </trkpt>
      <trkpt lat="45.6216" lon="6.54019">
        <ele>2132</ele>
        <time>2011-08-30T11:37:50Z</time>
      </trkpt>
      <trkpt lat="45.62161" lon="6.54019">
        <ele>2132</ele>
        <time>2011-08-30T11:38:11Z</time>
      </trkpt>
      <trkpt lat="45.62161" lon="6.54029">
        <ele>2132</ele>
        <time>2011-08-30T11:38:21Z</time>
      </trkpt>
      <trkpt lat="45.62163" lon="6.54043">
        <ele>2132</ele>
        <time>2011-08-30T11:38:31Z</time>
      </trkpt>
      <trkpt lat="45.62165" lon="6.54052">
        <ele>2132</ele>
        <time>2011-08-30T11:38:41Z</time>
      </trkpt>
      <trkpt lat="45.62167" lon="6.54064">
        <ele>2132</ele>
        <time>2011-08-30T11:38:52Z</time>
      </trkpt>
      <trkpt lat="45.62175" lon="6.54068">
        <ele>2132</ele>
        <time>2011-08-30T11:39:03Z</time>
      </trkpt>
      <trkpt lat="45.62175" lon="6.54069">
        <ele>2132</ele>
        <time>2011-08-30T11:39:18Z</time>
      </trkpt>
      <trkpt lat="45.62174" lon="6.54071">
        <ele>2132</ele>
        <time>2011-08-30T11:39:42Z</time>
      </trkpt>
      <trkpt lat="45.62171" lon="6.5407">
        <ele>2132</ele>
        <time>2011-08-30T11:39:52Z</time>
      </trkpt>
      <trkpt lat="45.6217" lon="6.54068">
        <ele>2134</ele>
        <time>2011-08-30T11:40:09Z</time>
      </trkpt>
      <trkpt lat="45.62171" lon="6.54067">
        <ele>2134</ele>
        <time>2011-08-30T11:40:28Z</time>
      </trkpt>
      <trkpt lat="45.6217" lon="6.54068">
        <ele>2132</ele>
        <time>2011-08-30T11:40:49Z</time>
      </trkpt>
      <trkpt lat="45.62171" lon="6.54067">
        <ele>2132</ele>
        <time>2011-08-30T11:41:03Z</time>
      </trkpt>
      <trkpt lat="45.62173" lon="6.54068">
        <ele>2133</ele>
        <time>2011-08-30T11:41:17Z</time>
      </trkpt>
      <trkpt lat="45.62171" lon="6.5407">
        <ele>2141</ele>
        <time>2011-08-30T11:41:54Z</time>
      </trkpt>
      <trkpt lat="45.62172" lon="6.54069">
        <ele>2141</ele>
        <time>2011-08-30T11:42:08Z</time>
      </trkpt>
      <trkpt lat="45.6217" lon="6.54072">
        <ele>2140</ele>
        <time>2011-08-30T11:42:18Z</time>
      </trkpt>
      <trkpt lat="45.62168" lon="6.54078">
        <ele>2140</ele>
        <time>2011-08-30T11:42:28Z</time>
      </trkpt>
      <trkpt lat="45.62169" lon="6.54089">
        <ele>2137</ele>
        <time>2011-08-30T11:42:39Z</time>
      </trkpt>
      <trkpt lat="45.6217" lon="6.54102">
        <ele>2136</ele>
        <time>2011-08-30T11:42:49Z</time>
      </trkpt>
      <trkpt lat="45.6217" lon="6.54109">
        <ele>2135</ele>
        <time>2011-08-30T11:43:09Z</time>
      </trkpt>
      <trkpt lat="45.6217" lon="6.54108">
        <ele>2135</ele>
        <time>2011-08-30T11:43:22Z</time>
      </trkpt>
      <trkpt lat="45.6217" lon="6.54106">
        <ele>2135</ele>
        <time>2011-08-30T11:43:38Z</time>
      </trkpt>
      <trkpt lat="45.62169" lon="6.54104">
        <ele>2131</ele>
        <time>2011-08-30T11:43:50Z</time>
      </trkpt>
      <trkpt lat="45.6217" lon="6.54115">
        <ele>2126</ele>
        <time>2011-08-30T11:44:01Z</time>
      </trkpt>
      <trkpt lat="45.62172" lon="6.54122">
        <ele>2122</ele>
        <time>2011-08-30T11:44:11Z</time>
      </trkpt>
      <trkpt lat="45.6217" lon="6.54134">
        <ele>2122</ele>
        <time>2011-08-30T11:44:21Z</time>
      </trkpt>
      <trkpt lat="45.62167" lon="6.54145">
        <ele>2122</ele>
        <time>2011-08-30T11:44:31Z</time>
      </trkpt>
      <trkpt lat="45.62169" lon="6.54148">
        <ele>2123</ele>
        <time>2011-08-30T11:44:45Z</time>
      </trkpt>
      <trkpt lat="45.62166" lon="6.5415">
        <ele>2125</ele>
        <time>2011-08-30T11:44:57Z</time>
      </trkpt>
      <trkpt lat="45.62165" lon="6.54161">
        <ele>2125</ele>
        <time>2011-08-30T11:45:08Z</time>
      </trkpt>
      <trkpt lat="45.62164" lon="6.54169">
        <ele>2128</ele>
        <time>2011-08-30T11:45:27Z</time>
      </trkpt>
      <trkpt lat="45.62167" lon="6.54182">
        <ele>2128</ele>
        <time>2011-08-30T11:45:37Z</time>
      </trkpt>
      <trkpt lat="45.62168" lon="6.54196">
        <ele>2130</ele>
        <time>2011-08-30T11:45:47Z</time>
      </trkpt>
      <trkpt lat="45.62167" lon="6.54211">
        <ele>2132</ele>
        <time>2011-08-30T11:45:58Z</time>
      </trkpt>
      <trkpt lat="45.62167" lon="6.54216">
        <ele>2134</ele>
        <time>2011-08-30T11:46:14Z</time>
      </trkpt>
      <trkpt lat="45.62167" lon="6.5422">
        <ele>2134</ele>
        <time>2011-08-30T11:46:26Z</time>
      </trkpt>
      <trkpt lat="45.62172" lon="6.54225">
        <ele>2134</ele>
        <time>2011-08-30T11:46:38Z</time>
      </trkpt>
      <trkpt lat="45.62174" lon="6.54233">
        <ele>2135</ele>
        <time>2011-08-30T11:46:48Z</time>
      </trkpt>
      <trkpt lat="45.62173" lon="6.5424">
        <ele>2135</ele>
        <time>2011-08-30T11:46:58Z</time>
      </trkpt>
      <trkpt lat="45.62169" lon="6.54245">
        <ele>2135</ele>
        <time>2011-08-30T11:47:08Z</time>
      </trkpt>
      <trkpt lat="45.62165" lon="6.54253">
        <ele>2135</ele>
        <time>2011-08-30T11:47:18Z</time>
      </trkpt>
      <trkpt lat="45.62163" lon="6.54262">
        <ele>2133</ele>
        <time>2011-08-30T11:47:28Z</time>
      </trkpt>
      <trkpt lat="45.6216" lon="6.54276">
        <ele>2133</ele>
        <time>2011-08-30T11:47:39Z</time>
      </trkpt>
      <trkpt lat="45.62164" lon="6.54285">
        <ele>2133</ele>
        <time>2011-08-30T11:47:50Z</time>
      </trkpt>
      <trkpt lat="45.62165" lon="6.54296">
        <ele>2133</ele>
        <time>2011-08-30T11:48:01Z</time>
      </trkpt>
      <trkpt lat="45.62164" lon="6.54306">
        <ele>2135</ele>
        <time>2011-08-30T11:48:11Z</time>
      </trkpt>
      <trkpt lat="45.62162" lon="6.54314">
        <ele>2135</ele>
        <time>2011-08-30T11:48:23Z</time>
      </trkpt>
      <trkpt lat="45.62161" lon="6.54322">
        <ele>2138</ele>
        <time>2011-08-30T11:48:35Z</time>
      </trkpt>
      <trkpt lat="45.62162" lon="6.54331">
        <ele>2139</ele>
        <time>2011-08-30T11:48:45Z</time>
      </trkpt>
      <trkpt lat="45.62158" lon="6.54337">
        <ele>2140</ele>
        <time>2011-08-30T11:48:56Z</time>
      </trkpt>
      <trkpt lat="45.62156" lon="6.54347">
        <ele>2140</ele>
        <time>2011-08-30T11:49:08Z</time>
      </trkpt>
      <trkpt lat="45.62152" lon="6.54352">
        <ele>2142</ele>
        <time>2011-08-30T11:49:18Z</time>
      </trkpt>
      <trkpt lat="45.62148" lon="6.54359">
        <ele>2143</ele>
        <time>2011-08-30T11:49:28Z</time>
      </trkpt>
      <trkpt lat="45.62146" lon="6.54365">
        <ele>2145</ele>
        <time>2011-08-30T11:49:38Z</time>
      </trkpt>
      <trkpt lat="45.62144" lon="6.5437">
        <ele>2146</ele>
        <time>2011-08-30T11:49:50Z</time>
      </trkpt>
      <trkpt lat="45.62141" lon="6.54379">
        <ele>2147</ele>
        <time>2011-08-30T11:50:01Z</time>
      </trkpt>
      <trkpt lat="45.62141" lon="6.54392">
        <ele>2149</ele>
        <time>2011-08-30T11:50:12Z</time>
      </trkpt>
      <trkpt lat="45.62146" lon="6.54403">
        <ele>2150</ele>
        <time>2011-08-30T11:50:22Z</time>
      </trkpt>
      <trkpt lat="45.6215" lon="6.54413">
        <ele>2150</ele>
        <time>2011-08-30T11:50:34Z</time>
      </trkpt>
      <trkpt lat="45.6215" lon="6.5442">
        <ele>2152</ele>
        <time>2011-08-30T11:50:44Z</time>
      </trkpt>
      <trkpt lat="45.62153" lon="6.54431">
        <ele>2155</ele>
        <time>2011-08-30T11:50:54Z</time>
      </trkpt>
      <trkpt lat="45.62156" lon="6.54438">
        <ele>2155</ele>
        <time>2011-08-30T11:51:04Z</time>
      </trkpt>
      <trkpt lat="45.62157" lon="6.54444">
        <ele>2156</ele>
        <time>2011-08-30T11:51:14Z</time>
      </trkpt>
      <trkpt lat="45.62154" lon="6.5445">
        <ele>2156</ele>
        <time>2011-08-30T11:51:24Z</time>
      </trkpt>
      <trkpt lat="45.62149" lon="6.54461">
        <ele>2156</ele>
        <time>2011-08-30T11:51:34Z</time>
      </trkpt>
      <trkpt lat="45.62148" lon="6.54474">
        <ele>2155</ele>
        <time>2011-08-30T11:51:44Z</time>
      </trkpt>
      <trkpt lat="45.62149" lon="6.54487">
        <ele>2155</ele>
        <time>2011-08-30T11:51:55Z</time>
      </trkpt>
      <trkpt lat="45.62149" lon="6.54494">
        <ele>2153</ele>
        <time>2011-08-30T11:52:05Z</time>
      </trkpt>
      <trkpt lat="45.62148" lon="6.54502">
        <ele>2150</ele>
        <time>2011-08-30T11:52:15Z</time>
      </trkpt>
      <trkpt lat="45.6215" lon="6.54508">
        <ele>2150</ele>
        <time>2011-08-30T11:52:26Z</time>
      </trkpt>
      <trkpt lat="45.62154" lon="6.54515">
        <ele>2150</ele>
        <time>2011-08-30T11:52:37Z</time>
      </trkpt>
      <trkpt lat="45.62156" lon="6.5452">
        <ele>2150</ele>
        <time>2011-08-30T11:52:47Z</time>
      </trkpt>
      <trkpt lat="45.62157" lon="6.54525">
        <ele>2150</ele>
        <time>2011-08-30T11:53:09Z</time>
      </trkpt>
      <trkpt lat="45.6216" lon="6.54534">
        <ele>2150</ele>
        <time>2011-08-30T11:53:19Z</time>
      </trkpt>
      <trkpt lat="45.62167" lon="6.5454">
        <ele>2150</ele>
        <time>2011-08-30T11:53:30Z</time>
      </trkpt>
      <trkpt lat="45.62169" lon="6.54549">
        <ele>2150</ele>
        <time>2011-08-30T11:53:40Z</time>
      </trkpt>
      <trkpt lat="45.62175" lon="6.54557">
        <ele>2150</ele>
        <time>2011-08-30T11:53:50Z</time>
      </trkpt>
      <trkpt lat="45.62182" lon="6.54564">
        <ele>2150</ele>
        <time>2011-08-30T11:54:00Z</time>
      </trkpt>
      <trkpt lat="45.62189" lon="6.54572">
        <ele>2152</ele>
        <time>2011-08-30T11:54:11Z</time>
      </trkpt>
      <trkpt lat="45.62192" lon="6.54581">
        <ele>2153</ele>
        <time>2011-08-30T11:54:22Z</time>
      </trkpt>
      <trkpt lat="45.62197" lon="6.54589">
        <ele>2153</ele>
        <time>2011-08-30T11:54:32Z</time>
      </trkpt>
      <trkpt lat="45.62198" lon="6.54595">
        <ele>2153</ele>
        <time>2011-08-30T11:54:42Z</time>
      </trkpt>
      <trkpt lat="45.62197" lon="6.54602">
        <ele>2153</ele>
        <time>2011-08-30T11:54:53Z</time>
      </trkpt>
      <trkpt lat="45.62193" lon="6.54607">
        <ele>2153</ele>
        <time>2011-08-30T11:55:04Z</time>
      </trkpt>
      <trkpt lat="45.62188" lon="6.54613">
        <ele>2151</ele>
        <time>2011-08-30T11:55:16Z</time>
      </trkpt>
      <trkpt lat="45.62189" lon="6.54621">
        <ele>2150</ele>
        <time>2011-08-30T11:55:27Z</time>
      </trkpt>
      <trkpt lat="45.62191" lon="6.54627">
        <ele>2150</ele>
        <time>2011-08-30T11:55:38Z</time>
      </trkpt>
      <trkpt lat="45.62193" lon="6.54632">
        <ele>2148</ele>
        <time>2011-08-30T11:55:48Z</time>
      </trkpt>
      <trkpt lat="45.62195" lon="6.54641">
        <ele>2148</ele>
        <time>2011-08-30T11:55:59Z</time>
      </trkpt>
      <trkpt lat="45.622" lon="6.54653">
        <ele>2147</ele>
        <time>2011-08-30T11:56:09Z</time>
      </trkpt>
      <trkpt lat="45.622" lon="6.54663">
        <ele>2147</ele>
        <time>2011-08-30T11:56:26Z</time>
      </trkpt>
      <trkpt lat="45.62199" lon="6.54668">
        <ele>2145</ele>
        <time>2011-08-30T11:56:36Z</time>
      </trkpt>
      <trkpt lat="45.622" lon="6.54675">
        <ele>2143</ele>
        <time>2011-08-30T11:56:53Z</time>
      </trkpt>
      <trkpt lat="45.622" lon="6.54678">
        <ele>2142</ele>
        <time>2011-08-30T11:57:08Z</time>
      </trkpt>
      <trkpt lat="45.622" lon="6.54684">
        <ele>2142</ele>
        <time>2011-08-30T11:57:18Z</time>
      </trkpt>
      <trkpt lat="45.62202" lon="6.54687">
        <ele>2142</ele>
        <time>2011-08-30T11:57:38Z</time>
      </trkpt>
      <trkpt lat="45.62205" lon="6.54697">
        <ele>2140</ele>
        <time>2011-08-30T11:57:50Z</time>
      </trkpt>
      <trkpt lat="45.62206" lon="6.54704">
        <ele>2138</ele>
        <time>2011-08-30T11:58:00Z</time>
      </trkpt>
      <trkpt lat="45.62207" lon="6.54713">
        <ele>2136</ele>
        <time>2011-08-30T11:58:11Z</time>
      </trkpt>
      <trkpt lat="45.62206" lon="6.54719">
        <ele>2134</ele>
        <time>2011-08-30T11:58:23Z</time>
      </trkpt>
      <trkpt lat="45.62207" lon="6.54729">
        <ele>2133</ele>
        <time>2011-08-30T11:58:37Z</time>
      </trkpt>
      <trkpt lat="45.62207" lon="6.54735">
        <ele>2131</ele>
        <time>2011-08-30T11:58:52Z</time>
      </trkpt>
      <trkpt lat="45.62206" lon="6.54738">
        <ele>2130</ele>
        <time>2011-08-30T11:59:02Z</time>
      </trkpt>
      <trkpt lat="45.62207" lon="6.54743">
        <ele>2130</ele>
        <time>2011-08-30T11:59:15Z</time>
      </trkpt>
      <trkpt lat="45.6221" lon="6.5475">
        <ele>2130</ele>
        <time>2011-08-30T11:59:26Z</time>
      </trkpt>
      <trkpt lat="45.62214" lon="6.54757">
        <ele>2130</ele>
        <time>2011-08-30T11:59:36Z</time>
      </trkpt>
      <trkpt lat="45.62215" lon="6.54766">
        <ele>2130</ele>
        <time>2011-08-30T11:59:46Z</time>
      </trkpt>
      <trkpt lat="45.62218" lon="6.54781">
        <ele>2128</ele>
        <time>2011-08-30T11:59:57Z</time>
      </trkpt>
      <trkpt lat="45.62222" lon="6.54794">
        <ele>2128</ele>
        <time>2011-08-30T12:00:07Z</time>
      </trkpt>
      <trkpt lat="45.62225" lon="6.54803">
        <ele>2128</ele>
        <time>2011-08-30T12:00:26Z</time>
      </trkpt>
      <trkpt lat="45.6223" lon="6.54812">
        <ele>2127</ele>
        <time>2011-08-30T12:00:36Z</time>
      </trkpt>
      <trkpt lat="45.62234" lon="6.54822">
        <ele>2126</ele>
        <time>2011-08-30T12:00:46Z</time>
      </trkpt>
      <trkpt lat="45.6224" lon="6.54832">
        <ele>2126</ele>
        <time>2011-08-30T12:00:56Z</time>
      </trkpt>
      <trkpt lat="45.62248" lon="6.54838">
        <ele>2123</ele>
        <time>2011-08-30T12:01:06Z</time>
      </trkpt>
      <trkpt lat="45.62257" lon="6.54848">
        <ele>2120</ele>
        <time>2011-08-30T12:01:17Z</time>
      </trkpt>
      <trkpt lat="45.62263" lon="6.54859">
        <ele>2120</ele>
        <time>2011-08-30T12:01:27Z</time>
      </trkpt>
      <trkpt lat="45.62265" lon="6.54868">
        <ele>2120</ele>
        <time>2011-08-30T12:01:38Z</time>
      </trkpt>
      <trkpt lat="45.62263" lon="6.54874">
        <ele>2120</ele>
        <time>2011-08-30T12:01:50Z</time>
      </trkpt>
      <trkpt lat="45.62262" lon="6.54887">
        <ele>2120</ele>
        <time>2011-08-30T12:02:00Z</time>
      </trkpt>
      <trkpt lat="45.62267" lon="6.549">
        <ele>2119</ele>
        <time>2011-08-30T12:02:11Z</time>
      </trkpt>
      <trkpt lat="45.62273" lon="6.54911">
        <ele>2119</ele>
        <time>2011-08-30T12:02:21Z</time>
      </trkpt>
      <trkpt lat="45.62277" lon="6.54922">
        <ele>2119</ele>
        <time>2011-08-30T12:02:31Z</time>
      </trkpt>
      <trkpt lat="45.62281" lon="6.54932">
        <ele>2119</ele>
        <time>2011-08-30T12:02:44Z</time>
      </trkpt>
      <trkpt lat="45.62283" lon="6.54941">
        <ele>2119</ele>
        <time>2011-08-30T12:02:54Z</time>
      </trkpt>
      <trkpt lat="45.62284" lon="6.54949">
        <ele>2122</ele>
        <time>2011-08-30T12:03:05Z</time>
      </trkpt>
      <trkpt lat="45.62286" lon="6.54958">
        <ele>2123</ele>
        <time>2011-08-30T12:03:15Z</time>
      </trkpt>
      <trkpt lat="45.62287" lon="6.54964">
        <ele>2125</ele>
        <time>2011-08-30T12:03:25Z</time>
      </trkpt>
      <trkpt lat="45.62289" lon="6.54971">
        <ele>2125</ele>
        <time>2011-08-30T12:03:35Z</time>
      </trkpt>
      <trkpt lat="45.62291" lon="6.54982">
        <ele>2125</ele>
        <time>2011-08-30T12:03:45Z</time>
      </trkpt>
      <trkpt lat="45.62294" lon="6.54998">
        <ele>2126</ele>
        <time>2011-08-30T12:03:56Z</time>
      </trkpt>
      <trkpt lat="45.62298" lon="6.55011">
        <ele>2126</ele>
        <time>2011-08-30T12:04:07Z</time>
      </trkpt>
      <trkpt lat="45.62301" lon="6.55022">
        <ele>2128</ele>
        <time>2011-08-30T12:04:17Z</time>
      </trkpt>
      <trkpt lat="45.62301" lon="6.55034">
        <ele>2131</ele>
        <time>2011-08-30T12:04:27Z</time>
      </trkpt>
      <trkpt lat="45.62297" lon="6.55046">
        <ele>2133</ele>
        <time>2011-08-30T12:04:38Z</time>
      </trkpt>
      <trkpt lat="45.62298" lon="6.55058">
        <ele>2134</ele>
        <time>2011-08-30T12:04:48Z</time>
      </trkpt>
      <trkpt lat="45.62302" lon="6.55067">
        <ele>2134</ele>
        <time>2011-08-30T12:04:58Z</time>
      </trkpt>
      <trkpt lat="45.62307" lon="6.55073">
        <ele>2135</ele>
        <time>2011-08-30T12:05:08Z</time>
      </trkpt>
      <trkpt lat="45.62311" lon="6.55082">
        <ele>2136</ele>
        <time>2011-08-30T12:05:19Z</time>
      </trkpt>
      <trkpt lat="45.62319" lon="6.55083">
        <ele>2137</ele>
        <time>2011-08-30T12:05:32Z</time>
      </trkpt>
      <trkpt lat="45.62322" lon="6.5509">
        <ele>2137</ele>
        <time>2011-08-30T12:05:45Z</time>
      </trkpt>
      <trkpt lat="45.6232" lon="6.55096">
        <ele>2137</ele>
        <time>2011-08-30T12:05:55Z</time>
      </trkpt>
      <trkpt lat="45.62321" lon="6.55105">
        <ele>2136</ele>
        <time>2011-08-30T12:06:05Z</time>
      </trkpt>
      <trkpt lat="45.62326" lon="6.55113">
        <ele>2134</ele>
        <time>2011-08-30T12:06:17Z</time>
      </trkpt>
      <trkpt lat="45.6233" lon="6.55122">
        <ele>2132</ele>
        <time>2011-08-30T12:06:27Z</time>
      </trkpt>
      <trkpt lat="45.62333" lon="6.5513">
        <ele>2132</ele>
        <time>2011-08-30T12:06:37Z</time>
      </trkpt>
      <trkpt lat="45.62336" lon="6.55136">
        <ele>2132</ele>
        <time>2011-08-30T12:06:47Z</time>
      </trkpt>
      <trkpt lat="45.62339" lon="6.55144">
        <ele>2132</ele>
        <time>2011-08-30T12:06:58Z</time>
      </trkpt>
      <trkpt lat="45.62344" lon="6.5515">
        <ele>2131</ele>
        <time>2011-08-30T12:07:09Z</time>
      </trkpt>
      <trkpt lat="45.62347" lon="6.55155">
        <ele>2131</ele>
        <time>2011-08-30T12:07:21Z</time>
      </trkpt>
      <trkpt lat="45.62347" lon="6.55159">
        <ele>2131</ele>
        <time>2011-08-30T12:07:31Z</time>
      </trkpt>
      <trkpt lat="45.62351" lon="6.55165">
        <ele>2131</ele>
        <time>2011-08-30T12:07:43Z</time>
      </trkpt>
      <trkpt lat="45.62355" lon="6.5517">
        <ele>2133</ele>
        <time>2011-08-30T12:07:53Z</time>
      </trkpt>
      <trkpt lat="45.62359" lon="6.55175">
        <ele>2133</ele>
        <time>2011-08-30T12:08:04Z</time>
      </trkpt>
      <trkpt lat="45.62364" lon="6.55184">
        <ele>2133</ele>
        <time>2011-08-30T12:08:15Z</time>
      </trkpt>
      <trkpt lat="45.62369" lon="6.55195">
        <ele>2133</ele>
        <time>2011-08-30T12:08:25Z</time>
      </trkpt>
      <trkpt lat="45.62376" lon="6.55204">
        <ele>2132</ele>
        <time>2011-08-30T12:08:35Z</time>
      </trkpt>
      <trkpt lat="45.6238" lon="6.5521">
        <ele>2131</ele>
        <time>2011-08-30T12:08:45Z</time>
      </trkpt>
      <trkpt lat="45.62382" lon="6.55217">
        <ele>2129</ele>
        <time>2011-08-30T12:08:58Z</time>
      </trkpt>
      <trkpt lat="45.62386" lon="6.55225">
        <ele>2129</ele>
        <time>2011-08-30T12:09:08Z</time>
      </trkpt>
      <trkpt lat="45.6239" lon="6.55234">
        <ele>2127</ele>
        <time>2011-08-30T12:09:18Z</time>
      </trkpt>
      <trkpt lat="45.62395" lon="6.55243">
        <ele>2126</ele>
        <time>2011-08-30T12:09:29Z</time>
      </trkpt>
      <trkpt lat="45.62397" lon="6.55252">
        <ele>2126</ele>
        <time>2011-08-30T12:09:40Z</time>
      </trkpt>
      <trkpt lat="45.62398" lon="6.55262">
        <ele>2126</ele>
        <time>2011-08-30T12:09:50Z</time>
      </trkpt>
      <trkpt lat="45.62404" lon="6.55272">
        <ele>2124</ele>
        <time>2011-08-30T12:10:00Z</time>
      </trkpt>
      <trkpt lat="45.62408" lon="6.55286">
        <ele>2123</ele>
        <time>2011-08-30T12:10:11Z</time>
      </trkpt>
      <trkpt lat="45.6241" lon="6.55302">
        <ele>2123</ele>
        <time>2011-08-30T12:10:22Z</time>
      </trkpt>
      <trkpt lat="45.62411" lon="6.55316">
        <ele>2123</ele>
        <time>2011-08-30T12:10:32Z</time>
      </trkpt>
      <trkpt lat="45.62416" lon="6.55329">
        <ele>2123</ele>
        <time>2011-08-30T12:10:42Z</time>
      </trkpt>
      <trkpt lat="45.62421" lon="6.55343">
        <ele>2123</ele>
        <time>2011-08-30T12:10:53Z</time>
      </trkpt>
      <trkpt lat="45.62424" lon="6.55359">
        <ele>2123</ele>
        <time>2011-08-30T12:11:04Z</time>
      </trkpt>
      <trkpt lat="45.62428" lon="6.55375">
        <ele>2123</ele>
        <time>2011-08-30T12:11:15Z</time>
      </trkpt>
      <trkpt lat="45.62431" lon="6.55391">
        <ele>2123</ele>
        <time>2011-08-30T12:11:26Z</time>
      </trkpt>
      <trkpt lat="45.62432" lon="6.55394">
        <ele>2123</ele>
        <time>2011-08-30T12:11:46Z</time>
      </trkpt>
      <trkpt lat="45.62432" lon="6.55409">
        <ele>2123</ele>
        <time>2011-08-30T12:11:56Z</time>
      </trkpt>
      <trkpt lat="45.62435" lon="6.55426">
        <ele>2123</ele>
        <time>2011-08-30T12:12:07Z</time>
      </trkpt>
      <trkpt lat="45.62433" lon="6.55441">
        <ele>2123</ele>
        <time>2011-08-30T12:12:18Z</time>
      </trkpt>
      <trkpt lat="45.62432" lon="6.55446">
        <ele>2123</ele>
        <time>2011-08-30T12:12:47Z</time>
      </trkpt>
      <trkpt lat="45.62431" lon="6.55449">
        <ele>2123</ele>
        <time>2011-08-30T12:13:23Z</time>
      </trkpt>
      <trkpt lat="45.6243" lon="6.55448">
        <ele>2123</ele>
        <time>2011-08-30T12:14:39Z</time>
      </trkpt>
      <trkpt lat="45.62432" lon="6.55448">
        <ele>2123</ele>
        <time>2011-08-30T12:15:08Z</time>
      </trkpt>
      <trkpt lat="45.6243" lon="6.55445">
        <ele>2122</ele>
        <time>2011-08-30T12:15:21Z</time>
      </trkpt>
      <trkpt lat="45.62431" lon="6.55446">
        <ele>2123</ele>
        <time>2011-08-30T12:16:05Z</time>
      </trkpt>
      <trkpt lat="45.62432" lon="6.55445">
        <ele>2123</ele>
        <time>2011-08-30T12:16:38Z</time>
      </trkpt>
      <trkpt lat="45.62434" lon="6.55444">
        <ele>2123</ele>
        <time>2011-08-30T12:17:07Z</time>
      </trkpt>
      <trkpt lat="45.62431" lon="6.55446">
        <ele>2123</ele>
        <time>2011-08-30T12:17:32Z</time>
      </trkpt>
      <trkpt lat="45.6243" lon="6.5545">
        <ele>2123</ele>
        <time>2011-08-30T12:17:52Z</time>
      </trkpt>
      <trkpt lat="45.62431" lon="6.55449">
        <ele>2123</ele>
        <time>2011-08-30T12:18:25Z</time>
      </trkpt>
      <trkpt lat="45.62431" lon="6.55448">
        <ele>2122</ele>
        <time>2011-08-30T12:18:41Z</time>
      </trkpt>
      <trkpt lat="45.62432" lon="6.55447">
        <ele>2122</ele>
        <time>2011-08-30T12:18:56Z</time>
      </trkpt>
      <trkpt lat="45.62431" lon="6.55448">
        <ele>2122</ele>
        <time>2011-08-30T12:19:51Z</time>
      </trkpt>
      <trkpt lat="45.62432" lon="6.55448">
        <ele>2122</ele>
        <time>2011-08-30T12:20:28Z</time>
      </trkpt>
      <trkpt lat="45.62433" lon="6.5545">
        <ele>2120</ele>
        <time>2011-08-30T12:20:40Z</time>
      </trkpt>
      <trkpt lat="45.62434" lon="6.55448">
        <ele>2120</ele>
        <time>2011-08-30T12:21:02Z</time>
      </trkpt>
      <trkpt lat="45.62434" lon="6.55445">
        <ele>2120</ele>
        <time>2011-08-30T12:21:14Z</time>
      </trkpt>
      <trkpt lat="45.62432" lon="6.55443">
        <ele>2126</ele>
        <time>2011-08-30T12:21:41Z</time>
      </trkpt>
      <trkpt lat="45.6243" lon="6.55446">
        <ele>2126</ele>
        <time>2011-08-30T12:21:59Z</time>
      </trkpt>
      <trkpt lat="45.6243" lon="6.55447">
        <ele>2126</ele>
        <time>2011-08-30T12:22:16Z</time>
      </trkpt>
      <trkpt lat="45.62431" lon="6.55449">
        <ele>2126</ele>
        <time>2011-08-30T12:22:59Z</time>
      </trkpt>
      <trkpt lat="45.6243" lon="6.5545">
        <ele>2126</ele>
        <time>2011-08-30T12:23:53Z</time>
      </trkpt>
      <trkpt lat="45.62431" lon="6.5545">
        <ele>2126</ele>
        <time>2011-08-30T12:26:17Z</time>
      </trkpt>
      <trkpt lat="45.62434" lon="6.55451">
        <ele>2124</ele>
        <time>2011-08-30T12:26:29Z</time>
      </trkpt>
      <trkpt lat="45.62435" lon="6.55452">
        <ele>2122</ele>
        <time>2011-08-30T12:26:42Z</time>
      </trkpt>
      <trkpt lat="45.62435" lon="6.55453">
        <ele>2121</ele>
        <time>2011-08-30T12:27:03Z</time>
      </trkpt>
      <trkpt lat="45.62434" lon="6.55454">
        <ele>2121</ele>
        <time>2011-08-30T12:27:22Z</time>
      </trkpt>
      <trkpt lat="45.62432" lon="6.55454">
        <ele>2120</ele>
        <time>2011-08-30T12:27:37Z</time>
      </trkpt>
      <trkpt lat="45.62431" lon="6.55453">
        <ele>2119</ele>
        <time>2011-08-30T12:27:49Z</time>
      </trkpt>
      <trkpt lat="45.62431" lon="6.55452">
        <ele>2119</ele>
        <time>2011-08-30T12:28:02Z</time>
      </trkpt>
      <trkpt lat="45.62431" lon="6.5545">
        <ele>2119</ele>
        <time>2011-08-30T12:28:14Z</time>
      </trkpt>
      <trkpt lat="45.62432" lon="6.5545">
        <ele>2119</ele>
        <time>2011-08-30T12:29:07Z</time>
      </trkpt>
      <trkpt lat="45.62433" lon="6.55449">
        <ele>2119</ele>
        <time>2011-08-30T12:30:09Z</time>
      </trkpt>
      <trkpt lat="45.62433" lon="6.55447">
        <ele>2119</ele>
        <time>2011-08-30T12:31:10Z</time>
      </trkpt>
      <trkpt lat="45.62433" lon="6.55445">
        <ele>2119</ele>
        <time>2011-08-30T12:33:13Z</time>
      </trkpt>
      <trkpt lat="45.62433" lon="6.55442">
        <ele>2119</ele>
        <time>2011-08-30T12:33:32Z</time>
      </trkpt>
      <trkpt lat="45.62432" lon="6.55445">
        <ele>2119</ele>
        <time>2011-08-30T12:34:00Z</time>
      </trkpt>
      <trkpt lat="45.62431" lon="6.55447">
        <ele>2119</ele>
        <time>2011-08-30T12:34:20Z</time>
      </trkpt>
      <trkpt lat="45.62433" lon="6.55446">
        <ele>2119</ele>
        <time>2011-08-30T12:34:59Z</time>
      </trkpt>
      <trkpt lat="45.62434" lon="6.55446">
        <ele>2119</ele>
        <time>2011-08-30T12:35:09Z</time>
      </trkpt>
      <trkpt lat="45.62433" lon="6.55448">
        <ele>2119</ele>
        <time>2011-08-30T12:35:26Z</time>
      </trkpt>
      <trkpt lat="45.62434" lon="6.55448">
        <ele>2122</ele>
        <time>2011-08-30T12:36:31Z</time>
      </trkpt>
      <trkpt lat="45.62434" lon="6.55452">
        <ele>2124</ele>
        <time>2011-08-30T12:36:47Z</time>
      </trkpt>
      <trkpt lat="45.62442" lon="6.55457">
        <ele>2124</ele>
        <time>2011-08-30T12:36:57Z</time>
      </trkpt>
      <trkpt lat="45.6245" lon="6.55461">
        <ele>2124</ele>
        <time>2011-08-30T12:37:07Z</time>
      </trkpt>
      <trkpt lat="45.62458" lon="6.55467">
        <ele>2122</ele>
        <time>2011-08-30T12:37:17Z</time>
      </trkpt>
      <trkpt lat="45.62465" lon="6.55471">
        <ele>2121</ele>
        <time>2011-08-30T12:37:27Z</time>
      </trkpt>
      <trkpt lat="45.62469" lon="6.55482">
        <ele>2117</ele>
        <time>2011-08-30T12:37:38Z</time>
      </trkpt>
      <trkpt lat="45.62473" lon="6.55493">
        <ele>2112</ele>
        <time>2011-08-30T12:37:50Z</time>
      </trkpt>
      <trkpt lat="45.62481" lon="6.55499">
        <ele>2109</ele>
        <time>2011-08-30T12:38:01Z</time>
      </trkpt>
      <trkpt lat="45.62488" lon="6.55506">
        <ele>2105</ele>
        <time>2011-08-30T12:38:12Z</time>
      </trkpt>
      <trkpt lat="45.62495" lon="6.55515">
        <ele>2104</ele>
        <time>2011-08-30T12:38:22Z</time>
      </trkpt>
      <trkpt lat="45.62502" lon="6.55522">
        <ele>2100</ele>
        <time>2011-08-30T12:38:33Z</time>
      </trkpt>
      <trkpt lat="45.62507" lon="6.5553">
        <ele>2097</ele>
        <time>2011-08-30T12:38:43Z</time>
      </trkpt>
      <trkpt lat="45.62514" lon="6.55541">
        <ele>2093</ele>
        <time>2011-08-30T12:38:55Z</time>
      </trkpt>
      <trkpt lat="45.62521" lon="6.55551">
        <ele>2090</ele>
        <time>2011-08-30T12:39:05Z</time>
      </trkpt>
      <trkpt lat="45.62527" lon="6.55558">
        <ele>2087</ele>
        <time>2011-08-30T12:39:16Z</time>
      </trkpt>
      <trkpt lat="45.62536" lon="6.55568">
        <ele>2084</ele>
        <time>2011-08-30T12:39:27Z</time>
      </trkpt>
      <trkpt lat="45.62544" lon="6.55575">
        <ele>2084</ele>
        <time>2011-08-30T12:39:37Z</time>
      </trkpt>
      <trkpt lat="45.62551" lon="6.55581">
        <ele>2081</ele>
        <time>2011-08-30T12:39:47Z</time>
      </trkpt>
      <trkpt lat="45.6256" lon="6.55591">
        <ele>2081</ele>
        <time>2011-08-30T12:39:58Z</time>
      </trkpt>
      <trkpt lat="45.62564" lon="6.55599">
        <ele>2078</ele>
        <time>2011-08-30T12:40:09Z</time>
      </trkpt>
      <trkpt lat="45.6257" lon="6.55608">
        <ele>2076</ele>
        <time>2011-08-30T12:40:20Z</time>
      </trkpt>
      <trkpt lat="45.62575" lon="6.55613">
        <ele>2072</ele>
        <time>2011-08-30T12:40:30Z</time>
      </trkpt>
      <trkpt lat="45.62582" lon="6.55622">
        <ele>2071</ele>
        <time>2011-08-30T12:40:41Z</time>
      </trkpt>
      <trkpt lat="45.62587" lon="6.55627">
        <ele>2068</ele>
        <time>2011-08-30T12:40:51Z</time>
      </trkpt>
      <trkpt lat="45.62591" lon="6.55632">
        <ele>2061</ele>
        <time>2011-08-30T12:41:02Z</time>
      </trkpt>
      <trkpt lat="45.62597" lon="6.55636">
        <ele>2058</ele>
        <time>2011-08-30T12:41:13Z</time>
      </trkpt>
      <trkpt lat="45.62603" lon="6.55644">
        <ele>2058</ele>
        <time>2011-08-30T12:41:23Z</time>
      </trkpt>
      <trkpt lat="45.62613" lon="6.55651">
        <ele>2057</ele>
        <time>2011-08-30T12:41:34Z</time>
      </trkpt>
      <trkpt lat="45.62622" lon="6.55658">
        <ele>2055</ele>
        <time>2011-08-30T12:41:44Z</time>
      </trkpt>
      <trkpt lat="45.62627" lon="6.55667">
        <ele>2054</ele>
        <time>2011-08-30T12:41:54Z</time>
      </trkpt>
      <trkpt lat="45.62631" lon="6.55676">
        <ele>2051</ele>
        <time>2011-08-30T12:42:04Z</time>
      </trkpt>
      <trkpt lat="45.62638" lon="6.55686">
        <ele>2047</ele>
        <time>2011-08-30T12:42:16Z</time>
      </trkpt>
      <trkpt lat="45.62643" lon="6.55697">
        <ele>2044</ele>
        <time>2011-08-30T12:42:26Z</time>
      </trkpt>
      <trkpt lat="45.62645" lon="6.55709">
        <ele>2039</ele>
        <time>2011-08-30T12:42:37Z</time>
      </trkpt>
      <trkpt lat="45.62649" lon="6.55716">
        <ele>2035</ele>
        <time>2011-08-30T12:42:47Z</time>
      </trkpt>
      <trkpt lat="45.62653" lon="6.55726">
        <ele>2034</ele>
        <time>2011-08-30T12:42:57Z</time>
      </trkpt>
      <trkpt lat="45.62659" lon="6.55732">
        <ele>2031</ele>
        <time>2011-08-30T12:43:07Z</time>
      </trkpt>
      <trkpt lat="45.62664" lon="6.55742">
        <ele>2029</ele>
        <time>2011-08-30T12:43:17Z</time>
      </trkpt>
      <trkpt lat="45.62669" lon="6.55749">
        <ele>2027</ele>
        <time>2011-08-30T12:43:27Z</time>
      </trkpt>
      <trkpt lat="45.62677" lon="6.55756">
        <ele>2024</ele>
        <time>2011-08-30T12:43:38Z</time>
      </trkpt>
      <trkpt lat="45.62684" lon="6.55764">
        <ele>2024</ele>
        <time>2011-08-30T12:43:48Z</time>
      </trkpt>
      <trkpt lat="45.62689" lon="6.55773">
        <ele>2023</ele>
        <time>2011-08-30T12:43:58Z</time>
      </trkpt>
      <trkpt lat="45.62696" lon="6.55782">
        <ele>2021</ele>
        <time>2011-08-30T12:44:09Z</time>
      </trkpt>
      <trkpt lat="45.62701" lon="6.55791">
        <ele>2020</ele>
        <time>2011-08-30T12:44:19Z</time>
      </trkpt>
      <trkpt lat="45.62705" lon="6.55795">
        <ele>2015</ele>
        <time>2011-08-30T12:44:31Z</time>
      </trkpt>
      <trkpt lat="45.62713" lon="6.55799">
        <ele>2012</ele>
        <time>2011-08-30T12:44:41Z</time>
      </trkpt>
      <trkpt lat="45.62716" lon="6.55807">
        <ele>2012</ele>
        <time>2011-08-30T12:44:51Z</time>
      </trkpt>
      <trkpt lat="45.62719" lon="6.55815">
        <ele>2009</ele>
        <time>2011-08-30T12:45:01Z</time>
      </trkpt>
      <trkpt lat="45.62727" lon="6.55824">
        <ele>2008</ele>
        <time>2011-08-30T12:45:11Z</time>
      </trkpt>
      <trkpt lat="45.62731" lon="6.55838">
        <ele>2006</ele>
        <time>2011-08-30T12:45:22Z</time>
      </trkpt>
      <trkpt lat="45.62737" lon="6.55847">
        <ele>2003</ele>
        <time>2011-08-30T12:45:32Z</time>
      </trkpt>
      <trkpt lat="45.62743" lon="6.5586">
        <ele>2003</ele>
        <time>2011-08-30T12:45:42Z</time>
      </trkpt>
      <trkpt lat="45.62752" lon="6.55873">
        <ele>2003</ele>
        <time>2011-08-30T12:45:52Z</time>
      </trkpt>
      <trkpt lat="45.62757" lon="6.55882">
        <ele>2003</ele>
        <time>2011-08-30T12:46:02Z</time>
      </trkpt>
      <trkpt lat="45.62764" lon="6.5589">
        <ele>2002</ele>
        <time>2011-08-30T12:46:12Z</time>
      </trkpt>
      <trkpt lat="45.62772" lon="6.55895">
        <ele>2001</ele>
        <time>2011-08-30T12:46:23Z</time>
      </trkpt>
      <trkpt lat="45.62778" lon="6.55901">
        <ele>2000</ele>
        <time>2011-08-30T12:46:34Z</time>
      </trkpt>
      <trkpt lat="45.62784" lon="6.55908">
        <ele>1997</ele>
        <time>2011-08-30T12:46:46Z</time>
      </trkpt>
      <trkpt lat="45.62788" lon="6.55918">
        <ele>1995</ele>
        <time>2011-08-30T12:46:58Z</time>
      </trkpt>
      <trkpt lat="45.62789" lon="6.55928">
        <ele>1991</ele>
        <time>2011-08-30T12:47:10Z</time>
      </trkpt>
      <trkpt lat="45.62793" lon="6.55937">
        <ele>1988</ele>
        <time>2011-08-30T12:47:21Z</time>
      </trkpt>
      <trkpt lat="45.62798" lon="6.55947">
        <ele>1987</ele>
        <time>2011-08-30T12:47:32Z</time>
      </trkpt>
      <trkpt lat="45.62801" lon="6.55953">
        <ele>1984</ele>
        <time>2011-08-30T12:47:42Z</time>
      </trkpt>
      <trkpt lat="45.62809" lon="6.55957">
        <ele>1983</ele>
        <time>2011-08-30T12:47:52Z</time>
      </trkpt>
      <trkpt lat="45.62817" lon="6.5596">
        <ele>1982</ele>
        <time>2011-08-30T12:48:02Z</time>
      </trkpt>
      <trkpt lat="45.62823" lon="6.55965">
        <ele>1979</ele>
        <time>2011-08-30T12:48:12Z</time>
      </trkpt>
      <trkpt lat="45.62826" lon="6.5597">
        <ele>1977</ele>
        <time>2011-08-30T12:48:22Z</time>
      </trkpt>
      <trkpt lat="45.62833" lon="6.55974">
        <ele>1975</ele>
        <time>2011-08-30T12:48:32Z</time>
      </trkpt>
      <trkpt lat="45.62838" lon="6.55977">
        <ele>1973</ele>
        <time>2011-08-30T12:48:45Z</time>
      </trkpt>
      <trkpt lat="45.62843" lon="6.55979">
        <ele>1973</ele>
        <time>2011-08-30T12:48:55Z</time>
      </trkpt>
      <trkpt lat="45.62851" lon="6.55978">
        <ele>1970</ele>
        <time>2011-08-30T12:49:05Z</time>
      </trkpt>
      <trkpt lat="45.62858" lon="6.55981">
        <ele>1969</ele>
        <time>2011-08-30T12:49:15Z</time>
      </trkpt>
      <trkpt lat="45.62865" lon="6.55983">
        <ele>1967</ele>
        <time>2011-08-30T12:49:25Z</time>
      </trkpt>
      <trkpt lat="45.62873" lon="6.55986">
        <ele>1966</ele>
        <time>2011-08-30T12:49:35Z</time>
      </trkpt>
      <trkpt lat="45.62878" lon="6.55995">
        <ele>1963</ele>
        <time>2011-08-30T12:49:46Z</time>
      </trkpt>
      <trkpt lat="45.62883" lon="6.56003">
        <ele>1961</ele>
        <time>2011-08-30T12:49:57Z</time>
      </trkpt>
      <trkpt lat="45.62891" lon="6.56006">
        <ele>1959</ele>
        <time>2011-08-30T12:50:08Z</time>
      </trkpt>
      <trkpt lat="45.62897" lon="6.56009">
        <ele>1957</ele>
        <time>2011-08-30T12:50:18Z</time>
      </trkpt>
      <trkpt lat="45.62905" lon="6.56011">
        <ele>1956</ele>
        <time>2011-08-30T12:50:28Z</time>
      </trkpt>
      <trkpt lat="45.62912" lon="6.56018">
        <ele>1953</ele>
        <time>2011-08-30T12:50:39Z</time>
      </trkpt>
      <trkpt lat="45.62917" lon="6.56027">
        <ele>1951</ele>
        <time>2011-08-30T12:50:49Z</time>
      </trkpt>
      <trkpt lat="45.62922" lon="6.56036">
        <ele>1949</ele>
        <time>2011-08-30T12:50:59Z</time>
      </trkpt>
      <trkpt lat="45.62924" lon="6.56047">
        <ele>1947</ele>
        <time>2011-08-30T12:51:09Z</time>
      </trkpt>
      <trkpt lat="45.62931" lon="6.56054">
        <ele>1946</ele>
        <time>2011-08-30T12:51:19Z</time>
      </trkpt>
      <trkpt lat="45.62939" lon="6.56064">
        <ele>1944</ele>
        <time>2011-08-30T12:51:32Z</time>
      </trkpt>
      <trkpt lat="45.62944" lon="6.56073">
        <ele>1942</ele>
        <time>2011-08-30T12:51:43Z</time>
      </trkpt>
      <trkpt lat="45.62951" lon="6.56079">
        <ele>1940</ele>
        <time>2011-08-30T12:51:53Z</time>
      </trkpt>
      <trkpt lat="45.62957" lon="6.56087">
        <ele>1939</ele>
        <time>2011-08-30T12:52:03Z</time>
      </trkpt>
      <trkpt lat="45.6296" lon="6.56097">
        <ele>1937</ele>
        <time>2011-08-30T12:52:13Z</time>
      </trkpt>
      <trkpt lat="45.62965" lon="6.56103">
        <ele>1935</ele>
        <time>2011-08-30T12:52:24Z</time>
      </trkpt>
      <trkpt lat="45.62968" lon="6.56113">
        <ele>1932</ele>
        <time>2011-08-30T12:52:34Z</time>
      </trkpt>
      <trkpt lat="45.62973" lon="6.56119">
        <ele>1929</ele>
        <time>2011-08-30T12:52:44Z</time>
      </trkpt>
      <trkpt lat="45.62975" lon="6.5613">
        <ele>1927</ele>
        <time>2011-08-30T12:52:57Z</time>
      </trkpt>
      <trkpt lat="45.62979" lon="6.5614">
        <ele>1925</ele>
        <time>2011-08-30T12:53:07Z</time>
      </trkpt>
      <trkpt lat="45.62983" lon="6.56148">
        <ele>1923</ele>
        <time>2011-08-30T12:53:18Z</time>
      </trkpt>
      <trkpt lat="45.62989" lon="6.56155">
        <ele>1921</ele>
        <time>2011-08-30T12:53:30Z</time>
      </trkpt>
      <trkpt lat="45.62991" lon="6.56164">
        <ele>1918</ele>
        <time>2011-08-30T12:53:40Z</time>
      </trkpt>
      <trkpt lat="45.62997" lon="6.5617">
        <ele>1915</ele>
        <time>2011-08-30T12:53:51Z</time>
      </trkpt>
      <trkpt lat="45.63" lon="6.56178">
        <ele>1913</ele>
        <time>2011-08-30T12:54:03Z</time>
      </trkpt>
      <trkpt lat="45.63003" lon="6.56188">
        <ele>1912</ele>
        <time>2011-08-30T12:54:13Z</time>
      </trkpt>
      <trkpt lat="45.63009" lon="6.56196">
        <ele>1910</ele>
        <time>2011-08-30T12:54:24Z</time>
      </trkpt>
      <trkpt lat="45.63012" lon="6.56205">
        <ele>1908</ele>
        <time>2011-08-30T12:54:35Z</time>
      </trkpt>
      <trkpt lat="45.63014" lon="6.56213">
        <ele>1906</ele>
        <time>2011-08-30T12:54:46Z</time>
      </trkpt>
      <trkpt lat="45.63016" lon="6.56222">
        <ele>1904</ele>
        <time>2011-08-30T12:54:56Z</time>
      </trkpt>
      <trkpt lat="45.63021" lon="6.56227">
        <ele>1901</ele>
        <time>2011-08-30T12:55:08Z</time>
      </trkpt>
      <trkpt lat="45.63028" lon="6.56237">
        <ele>1898</ele>
        <time>2011-08-30T12:55:19Z</time>
      </trkpt>
      <trkpt lat="45.63031" lon="6.56244">
        <ele>1895</ele>
        <time>2011-08-30T12:55:29Z</time>
      </trkpt>
      <trkpt lat="45.63036" lon="6.56251">
        <ele>1893</ele>
        <time>2011-08-30T12:55:40Z</time>
      </trkpt>
      <trkpt lat="45.63042" lon="6.56256">
        <ele>1890</ele>
        <time>2011-08-30T12:55:50Z</time>
      </trkpt>
      <trkpt lat="45.63047" lon="6.56261">
        <ele>1888</ele>
        <time>2011-08-30T12:56:01Z</time>
      </trkpt>
      <trkpt lat="45.63056" lon="6.56265">
        <ele>1884</ele>
        <time>2011-08-30T12:56:12Z</time>
      </trkpt>
      <trkpt lat="45.63062" lon="6.5627">
        <ele>1881</ele>
        <time>2011-08-30T12:56:23Z</time>
      </trkpt>
      <trkpt lat="45.63069" lon="6.56275">
        <ele>1877</ele>
        <time>2011-08-30T12:56:35Z</time>
      </trkpt>
      <trkpt lat="45.63076" lon="6.56284">
        <ele>1874</ele>
        <time>2011-08-30T12:56:46Z</time>
      </trkpt>
      <trkpt lat="45.63083" lon="6.56288">
        <ele>1870</ele>
        <time>2011-08-30T12:56:57Z</time>
      </trkpt>
      <trkpt lat="45.63089" lon="6.5629">
        <ele>1867</ele>
        <time>2011-08-30T12:57:08Z</time>
      </trkpt>
      <trkpt lat="45.63094" lon="6.56293">
        <ele>1865</ele>
        <time>2011-08-30T12:57:19Z</time>
      </trkpt>
      <trkpt lat="45.63098" lon="6.56299">
        <ele>1861</ele>
        <time>2011-08-30T12:57:29Z</time>
      </trkpt>
      <trkpt lat="45.63105" lon="6.56302">
        <ele>1858</ele>
        <time>2011-08-30T12:57:40Z</time>
      </trkpt>
      <trkpt lat="45.63109" lon="6.56293">
        <ele>1857</ele>
        <time>2011-08-30T12:57:52Z</time>
      </trkpt>
      <trkpt lat="45.63113" lon="6.56298">
        <ele>1855</ele>
        <time>2011-08-30T12:58:03Z</time>
      </trkpt>
      <trkpt lat="45.63118" lon="6.56309">
        <ele>1853</ele>
        <time>2011-08-30T12:58:13Z</time>
      </trkpt>
      <trkpt lat="45.63121" lon="6.56316">
        <ele>1852</ele>
        <time>2011-08-30T12:58:24Z</time>
      </trkpt>
      <trkpt lat="45.63126" lon="6.56319">
        <ele>1850</ele>
        <time>2011-08-30T12:58:35Z</time>
      </trkpt>
      <trkpt lat="45.6313" lon="6.56326">
        <ele>1848</ele>
        <time>2011-08-30T12:58:46Z</time>
      </trkpt>
      <trkpt lat="45.63134" lon="6.56338">
        <ele>1847</ele>
        <time>2011-08-30T12:58:56Z</time>
      </trkpt>
      <trkpt lat="45.63139" lon="6.5635">
        <ele>1845</ele>
        <time>2011-08-30T12:59:06Z</time>
      </trkpt>
      <trkpt lat="45.63143" lon="6.56365">
        <ele>1842</ele>
        <time>2011-08-30T12:59:16Z</time>
      </trkpt>
      <trkpt lat="45.63148" lon="6.5638">
        <ele>1840</ele>
        <time>2011-08-30T12:59:27Z</time>
      </trkpt>
      <trkpt lat="45.63149" lon="6.56392">
        <ele>1840</ele>
        <time>2011-08-30T12:59:38Z</time>
      </trkpt>
      <trkpt lat="45.63151" lon="6.56399">
        <ele>1840</ele>
        <time>2011-08-30T12:59:49Z</time>
      </trkpt>
      <trkpt lat="45.63152" lon="6.564">
        <ele>1840</ele>
        <time>2011-08-30T13:00:01Z</time>
      </trkpt>
      <trkpt lat="45.63153" lon="6.564">
        <ele>1839</ele>
        <time>2011-08-30T13:00:14Z</time>
      </trkpt>
      <trkpt lat="45.63154" lon="6.56404">
        <ele>1839</ele>
        <time>2011-08-30T13:00:28Z</time>
      </trkpt>
      <trkpt lat="45.63155" lon="6.56402">
        <ele>1838</ele>
        <time>2011-08-30T13:00:51Z</time>
      </trkpt>
      <trkpt lat="45.63155" lon="6.56402">
        <ele>1838</ele>
        <time>2011-08-30T13:01:16Z</time>
      </trkpt>
      <trkpt lat="45.63158" lon="6.56403">
        <ele>1838</ele>
        <time>2011-08-30T13:01:33Z</time>
      </trkpt>
      <trkpt lat="45.63158" lon="6.56403">
        <ele>1838</ele>
        <time>2011-08-30T13:01:48Z</time>
      </trkpt>
      <trkpt lat="45.63153" lon="6.56404">
        <ele>1838</ele>
        <time>2011-08-30T13:01:59Z</time>
      </trkpt>
      <trkpt lat="45.63151" lon="6.56404">
        <ele>1835</ele>
        <time>2011-08-30T13:02:13Z</time>
      </trkpt>
      <trkpt lat="45.63151" lon="6.56403">
        <ele>1834</ele>
        <time>2011-08-30T13:02:31Z</time>
      </trkpt>
      <trkpt lat="45.63155" lon="6.564">
        <ele>1834</ele>
        <time>2011-08-30T13:02:44Z</time>
      </trkpt>
      <trkpt lat="45.63158" lon="6.56402">
        <ele>1834</ele>
        <time>2011-08-30T13:02:54Z</time>
      </trkpt>
      <trkpt lat="45.6316" lon="6.56402">
        <ele>1834</ele>
        <time>2011-08-30T13:03:06Z</time>
      </trkpt>
      <trkpt lat="45.63158" lon="6.56399">
        <ele>1834</ele>
        <time>2011-08-30T13:03:20Z</time>
      </trkpt>
      <trkpt lat="45.63155" lon="6.56398">
        <ele>1833</ele>
        <time>2011-08-30T13:03:30Z</time>
      </trkpt>
      <trkpt lat="45.63156" lon="6.56401">
        <ele>1832</ele>
        <time>2011-08-30T13:03:40Z</time>
      </trkpt>
      <trkpt lat="45.63155" lon="6.56403">
        <ele>1834</ele>
        <time>2011-08-30T13:03:50Z</time>
      </trkpt>
      <trkpt lat="45.63158" lon="6.56403">
        <ele>1835</ele>
        <time>2011-08-30T13:04:12Z</time>
      </trkpt>
      <trkpt lat="45.63159" lon="6.56403">
        <ele>1835</ele>
        <time>2011-08-30T13:04:24Z</time>
      </trkpt>
      <trkpt lat="45.63158" lon="6.56404">
        <ele>1837</ele>
        <time>2011-08-30T13:04:47Z</time>
      </trkpt>
      <trkpt lat="45.63157" lon="6.56411">
        <ele>1837</ele>
        <time>2011-08-30T13:04:57Z</time>
      </trkpt>
      <trkpt lat="45.63159" lon="6.56421">
        <ele>1833</ele>
        <time>2011-08-30T13:05:09Z</time>
      </trkpt>
      <trkpt lat="45.63163" lon="6.56432">
        <ele>1830</ele>
        <time>2011-08-30T13:05:19Z</time>
      </trkpt>
      <trkpt lat="45.63171" lon="6.56441">
        <ele>1827</ele>
        <time>2011-08-30T13:05:29Z</time>
      </trkpt>
      <trkpt lat="45.63181" lon="6.5645">
        <ele>1825</ele>
        <time>2011-08-30T13:05:39Z</time>
      </trkpt>
      <trkpt lat="45.6319" lon="6.56458">
        <ele>1822</ele>
        <time>2011-08-30T13:05:50Z</time>
      </trkpt>
      <trkpt lat="45.63198" lon="6.56464">
        <ele>1820</ele>
        <time>2011-08-30T13:06:00Z</time>
      </trkpt>
      <trkpt lat="45.63205" lon="6.5647">
        <ele>1817</ele>
        <time>2011-08-30T13:06:10Z</time>
      </trkpt>
      <trkpt lat="45.63213" lon="6.5647">
        <ele>1814</ele>
        <time>2011-08-30T13:06:20Z</time>
      </trkpt>
      <trkpt lat="45.63217" lon="6.56484">
        <ele>1811</ele>
        <time>2011-08-30T13:06:30Z</time>
      </trkpt>
      <trkpt lat="45.63217" lon="6.56497">
        <ele>1809</ele>
        <time>2011-08-30T13:06:40Z</time>
      </trkpt>
      <trkpt lat="45.63226" lon="6.56504">
        <ele>1807</ele>
        <time>2011-08-30T13:06:51Z</time>
      </trkpt>
      <trkpt lat="45.63232" lon="6.56512">
        <ele>1804</ele>
        <time>2011-08-30T13:07:03Z</time>
      </trkpt>
      <trkpt lat="45.63238" lon="6.56524">
        <ele>1801</ele>
        <time>2011-08-30T13:07:13Z</time>
      </trkpt>
      <trkpt lat="45.63243" lon="6.56535">
        <ele>1799</ele>
        <time>2011-08-30T13:07:23Z</time>
      </trkpt>
      <trkpt lat="45.63252" lon="6.56538">
        <ele>1797</ele>
        <time>2011-08-30T13:07:33Z</time>
      </trkpt>
      <trkpt lat="45.6326" lon="6.56539">
        <ele>1795</ele>
        <time>2011-08-30T13:07:43Z</time>
      </trkpt>
      <trkpt lat="45.63268" lon="6.56541">
        <ele>1791</ele>
        <time>2011-08-30T13:07:54Z</time>
      </trkpt>
      <trkpt lat="45.63276" lon="6.5655">
        <ele>1789</ele>
        <time>2011-08-30T13:08:05Z</time>
      </trkpt>
      <trkpt lat="45.63282" lon="6.56557">
        <ele>1786</ele>
        <time>2011-08-30T13:08:15Z</time>
      </trkpt>
      <trkpt lat="45.63288" lon="6.56566">
        <ele>1784</ele>
        <time>2011-08-30T13:08:25Z</time>
      </trkpt>
      <trkpt lat="45.63294" lon="6.56568">
        <ele>1781</ele>
        <time>2011-08-30T13:08:35Z</time>
      </trkpt>
      <trkpt lat="45.63299" lon="6.56574">
        <ele>1779</ele>
        <time>2011-08-30T13:08:45Z</time>
      </trkpt>
      <trkpt lat="45.63305" lon="6.5657">
        <ele>1777</ele>
        <time>2011-08-30T13:08:55Z</time>
      </trkpt>
      <trkpt lat="45.63313" lon="6.5656">
        <ele>1774</ele>
        <time>2011-08-30T13:09:06Z</time>
      </trkpt>
      <trkpt lat="45.63316" lon="6.56546">
        <ele>1773</ele>
        <time>2011-08-30T13:09:17Z</time>
      </trkpt>
      <trkpt lat="45.6332" lon="6.56551">
        <ele>1769</ele>
        <time>2011-08-30T13:09:28Z</time>
      </trkpt>
      <trkpt lat="45.6333" lon="6.56549">
        <ele>1766</ele>
        <time>2011-08-30T13:09:39Z</time>
      </trkpt>
      <trkpt lat="45.63336" lon="6.56549">
        <ele>1765</ele>
        <time>2011-08-30T13:09:50Z</time>
      </trkpt>
      <trkpt lat="45.63339" lon="6.56552">
        <ele>1764</ele>
        <time>2011-08-30T13:10:00Z</time>
      </trkpt>
      <trkpt lat="45.63345" lon="6.5656">
        <ele>1761</ele>
        <time>2011-08-30T13:10:10Z</time>
      </trkpt>
      <trkpt lat="45.63354" lon="6.56568">
        <ele>1759</ele>
        <time>2011-08-30T13:10:20Z</time>
      </trkpt>
      <trkpt lat="45.63363" lon="6.56575">
        <ele>1757</ele>
        <time>2011-08-30T13:10:31Z</time>
      </trkpt>
      <trkpt lat="45.63372" lon="6.56581">
        <ele>1756</ele>
        <time>2011-08-30T13:10:41Z</time>
      </trkpt>
      <trkpt lat="45.63378" lon="6.56588">
        <ele>1754</ele>
        <time>2011-08-30T13:10:51Z</time>
      </trkpt>
      <trkpt lat="45.63385" lon="6.56598">
        <ele>1751</ele>
        <time>2011-08-30T13:11:01Z</time>
      </trkpt>
      <trkpt lat="45.63396" lon="6.56597">
        <ele>1749</ele>
        <time>2011-08-30T13:11:11Z</time>
      </trkpt>
      <trkpt lat="45.63403" lon="6.56607">
        <ele>1747</ele>
        <time>2011-08-30T13:11:21Z</time>
      </trkpt>
      <trkpt lat="45.63406" lon="6.56614">
        <ele>1745</ele>
        <time>2011-08-30T13:11:31Z</time>
      </trkpt>
      <trkpt lat="45.63404" lon="6.56624">
        <ele>1743</ele>
        <time>2011-08-30T13:11:41Z</time>
      </trkpt>
      <trkpt lat="45.63401" lon="6.56631">
        <ele>1739</ele>
        <time>2011-08-30T13:11:51Z</time>
      </trkpt>
      <trkpt lat="45.63402" lon="6.56641">
        <ele>1735</ele>
        <time>2011-08-30T13:12:01Z</time>
      </trkpt>
      <trkpt lat="45.63409" lon="6.56648">
        <ele>1733</ele>
        <time>2011-08-30T13:12:11Z</time>
      </trkpt>
      <trkpt lat="45.63413" lon="6.56659">
        <ele>1730</ele>
        <time>2011-08-30T13:12:22Z</time>
      </trkpt>
      <trkpt lat="45.63407" lon="6.56663">
        <ele>1727</ele>
        <time>2011-08-30T13:12:32Z</time>
      </trkpt>
      <trkpt lat="45.63401" lon="6.56667">
        <ele>1725</ele>
        <time>2011-08-30T13:12:44Z</time>
      </trkpt>
      <trkpt lat="45.63397" lon="6.56671">
        <ele>1725</ele>
        <time>2011-08-30T13:12:54Z</time>
      </trkpt>
      <trkpt lat="45.63402" lon="6.5668">
        <ele>1725</ele>
        <time>2011-08-30T13:13:04Z</time>
      </trkpt>
      <trkpt lat="45.63408" lon="6.56689">
        <ele>1725</ele>
        <time>2011-08-30T13:13:15Z</time>
      </trkpt>
      <trkpt lat="45.63417" lon="6.56692">
        <ele>1725</ele>
        <time>2011-08-30T13:13:26Z</time>
      </trkpt>
      <trkpt lat="45.63424" lon="6.56701">
        <ele>1725</ele>
        <time>2011-08-30T13:13:36Z</time>
      </trkpt>
      <trkpt lat="45.6343" lon="6.56714">
        <ele>1725</ele>
        <time>2011-08-30T13:13:46Z</time>
      </trkpt>
      <trkpt lat="45.63436" lon="6.56729">
        <ele>1725</ele>
        <time>2011-08-30T13:13:56Z</time>
      </trkpt>
      <trkpt lat="45.63441" lon="6.56745">
        <ele>1725</ele>
        <time>2011-08-30T13:14:06Z</time>
      </trkpt>
      <trkpt lat="45.63444" lon="6.56756">
        <ele>1724</ele>
        <time>2011-08-30T13:14:16Z</time>
      </trkpt>
      <trkpt lat="45.63456" lon="6.56763">
        <ele>1722</ele>
        <time>2011-08-30T13:14:26Z</time>
      </trkpt>
      <trkpt lat="45.63468" lon="6.5677">
        <ele>1722</ele>
        <time>2011-08-30T13:14:36Z</time>
      </trkpt>
      <trkpt lat="45.63475" lon="6.56786">
        <ele>1722</ele>
        <time>2011-08-30T13:14:46Z</time>
      </trkpt>
      <trkpt lat="45.63477" lon="6.56801">
        <ele>1722</ele>
        <time>2011-08-30T13:14:56Z</time>
      </trkpt>
      <trkpt lat="45.6348" lon="6.56813">
        <ele>1722</ele>
        <time>2011-08-30T13:15:06Z</time>
      </trkpt>
      <trkpt lat="45.63482" lon="6.56829">
        <ele>1721</ele>
        <time>2011-08-30T13:15:16Z</time>
      </trkpt>
      <trkpt lat="45.63489" lon="6.56839">
        <ele>1721</ele>
        <time>2011-08-30T13:15:27Z</time>
      </trkpt>
      <trkpt lat="45.63497" lon="6.56843">
        <ele>1719</ele>
        <time>2011-08-30T13:15:38Z</time>
      </trkpt>
      <trkpt lat="45.63507" lon="6.56847">
        <ele>1719</ele>
        <time>2011-08-30T13:15:49Z</time>
      </trkpt>
      <trkpt lat="45.63512" lon="6.56856">
        <ele>1717</ele>
        <time>2011-08-30T13:15:59Z</time>
      </trkpt>
      <trkpt lat="45.6352" lon="6.56862">
        <ele>1715</ele>
        <time>2011-08-30T13:16:09Z</time>
      </trkpt>
      <trkpt lat="45.63525" lon="6.56873">
        <ele>1712</ele>
        <time>2011-08-30T13:16:19Z</time>
      </trkpt>
      <trkpt lat="45.63526" lon="6.56883">
        <ele>1710</ele>
        <time>2011-08-30T13:16:29Z</time>
      </trkpt>
      <trkpt lat="45.63534" lon="6.56899">
        <ele>1709</ele>
        <time>2011-08-30T13:16:40Z</time>
      </trkpt>
      <trkpt lat="45.63543" lon="6.56906">
        <ele>1708</ele>
        <time>2011-08-30T13:16:50Z</time>
      </trkpt>
      <trkpt lat="45.6355" lon="6.56916">
        <ele>1704</ele>
        <time>2011-08-30T13:17:01Z</time>
      </trkpt>
      <trkpt lat="45.63559" lon="6.56916">
        <ele>1704</ele>
        <time>2011-08-30T13:17:12Z</time>
      </trkpt>
      <trkpt lat="45.6357" lon="6.56916">
        <ele>1703</ele>
        <time>2011-08-30T13:17:22Z</time>
      </trkpt>
      <trkpt lat="45.63585" lon="6.56915">
        <ele>1695</ele>
        <time>2011-08-30T13:17:33Z</time>
      </trkpt>
      <trkpt lat="45.63588" lon="6.56924">
        <ele>1693</ele>
        <time>2011-08-30T13:17:43Z</time>
      </trkpt>
      <trkpt lat="45.63591" lon="6.56933">
        <ele>1693</ele>
        <time>2011-08-30T13:17:54Z</time>
      </trkpt>
      <trkpt lat="45.63595" lon="6.56947">
        <ele>1693</ele>
        <time>2011-08-30T13:18:05Z</time>
      </trkpt>
      <trkpt lat="45.63605" lon="6.56952">
        <ele>1692</ele>
        <time>2011-08-30T13:18:16Z</time>
      </trkpt>
      <trkpt lat="45.63614" lon="6.56963">
        <ele>1692</ele>
        <time>2011-08-30T13:18:26Z</time>
      </trkpt>
      <trkpt lat="45.63625" lon="6.56979">
        <ele>1692</ele>
        <time>2011-08-30T13:18:37Z</time>
      </trkpt>
      <trkpt lat="45.6363" lon="6.56993">
        <ele>1691</ele>
        <time>2011-08-30T13:18:47Z</time>
      </trkpt>
      <trkpt lat="45.63634" lon="6.57003">
        <ele>1688</ele>
        <time>2011-08-30T13:18:57Z</time>
      </trkpt>
      <trkpt lat="45.63634" lon="6.57014">
        <ele>1688</ele>
        <time>2011-08-30T13:19:07Z</time>
      </trkpt>
      <trkpt lat="45.63631" lon="6.57021">
        <ele>1688</ele>
        <time>2011-08-30T13:19:17Z</time>
      </trkpt>
      <trkpt lat="45.63624" lon="6.57029">
        <ele>1688</ele>
        <time>2011-08-30T13:19:27Z</time>
      </trkpt>
      <trkpt lat="45.63626" lon="6.57037">
        <ele>1688</ele>
        <time>2011-08-30T13:19:38Z</time>
      </trkpt>
      <trkpt lat="45.63635" lon="6.57039">
        <ele>1688</ele>
        <time>2011-08-30T13:19:48Z</time>
      </trkpt>
      <trkpt lat="45.63643" lon="6.57047">
        <ele>1688</ele>
        <time>2011-08-30T13:19:58Z</time>
      </trkpt>
      <trkpt lat="45.63653" lon="6.57057">
        <ele>1688</ele>
        <time>2011-08-30T13:20:08Z</time>
      </trkpt>
      <trkpt lat="45.63664" lon="6.57061">
        <ele>1685</ele>
        <time>2011-08-30T13:20:18Z</time>
      </trkpt>
      <trkpt lat="45.63672" lon="6.57066">
        <ele>1682</ele>
        <time>2011-08-30T13:20:28Z</time>
      </trkpt>
      <trkpt lat="45.63682" lon="6.57068">
        <ele>1680</ele>
        <time>2011-08-30T13:20:38Z</time>
      </trkpt>
      <trkpt lat="45.63689" lon="6.57058">
        <ele>1677</ele>
        <time>2011-08-30T13:20:48Z</time>
      </trkpt>
      <trkpt lat="45.63697" lon="6.57056">
        <ele>1674</ele>
        <time>2011-08-30T13:20:59Z</time>
      </trkpt>
      <trkpt lat="45.63705" lon="6.57056">
        <ele>1671</ele>
        <time>2011-08-30T13:21:11Z</time>
      </trkpt>
      <trkpt lat="45.63706" lon="6.5707">
        <ele>1670</ele>
        <time>2011-08-30T13:21:22Z</time>
      </trkpt>
      <trkpt lat="45.63714" lon="6.57074">
        <ele>1667</ele>
        <time>2011-08-30T13:21:33Z</time>
      </trkpt>
      <trkpt lat="45.6372" lon="6.57083">
        <ele>1665</ele>
        <time>2011-08-30T13:21:44Z</time>
      </trkpt>
      <trkpt lat="45.6373" lon="6.57082">
        <ele>1663</ele>
        <time>2011-08-30T13:21:54Z</time>
      </trkpt>
      <trkpt lat="45.63732" lon="6.57084">
        <ele>1661</ele>
        <time>2011-08-30T13:22:05Z</time>
      </trkpt>
      <trkpt lat="45.63741" lon="6.57081">
        <ele>1659</ele>
        <time>2011-08-30T13:22:16Z</time>
      </trkpt>
      <trkpt lat="45.63745" lon="6.57089">
        <ele>1657</ele>
        <time>2011-08-30T13:22:26Z</time>
      </trkpt>
      <trkpt lat="45.63752" lon="6.5709">
        <ele>1654</ele>
        <time>2011-08-30T13:22:37Z</time>
      </trkpt>
      <trkpt lat="45.63759" lon="6.57085">
        <ele>1652</ele>
        <time>2011-08-30T13:22:51Z</time>
      </trkpt>
      <trkpt lat="45.63761" lon="6.57095">
        <ele>1648</ele>
        <time>2011-08-30T13:23:01Z</time>
      </trkpt>
      <trkpt lat="45.63765" lon="6.57104">
        <ele>1644</ele>
        <time>2011-08-30T13:23:11Z</time>
      </trkpt>
      <trkpt lat="45.63766" lon="6.57113">
        <ele>1641</ele>
        <time>2011-08-30T13:23:21Z</time>
      </trkpt>
      <trkpt lat="45.63774" lon="6.5711">
        <ele>1638</ele>
        <time>2011-08-30T13:23:31Z</time>
      </trkpt>
      <trkpt lat="45.63777" lon="6.57095">
        <ele>1637</ele>
        <time>2011-08-30T13:23:41Z</time>
      </trkpt>
      <trkpt lat="45.63784" lon="6.57098">
        <ele>1637</ele>
        <time>2011-08-30T13:23:53Z</time>
      </trkpt>
      <trkpt lat="45.63788" lon="6.57112">
        <ele>1636</ele>
        <time>2011-08-30T13:24:04Z</time>
      </trkpt>
      <trkpt lat="45.63792" lon="6.57124">
        <ele>1636</ele>
        <time>2011-08-30T13:24:14Z</time>
      </trkpt>
      <trkpt lat="45.63793" lon="6.57137">
        <ele>1636</ele>
        <time>2011-08-30T13:24:25Z</time>
      </trkpt>
      <trkpt lat="45.63797" lon="6.57152">
        <ele>1635</ele>
        <time>2011-08-30T13:24:36Z</time>
      </trkpt>
      <trkpt lat="45.63803" lon="6.5715">
        <ele>1633</ele>
        <time>2011-08-30T13:24:46Z</time>
      </trkpt>
      <trkpt lat="45.6381" lon="6.57154">
        <ele>1633</ele>
        <time>2011-08-30T13:24:56Z</time>
      </trkpt>
      <trkpt lat="45.63819" lon="6.57157">
        <ele>1633</ele>
        <time>2011-08-30T13:25:06Z</time>
      </trkpt>
      <trkpt lat="45.63826" lon="6.5716">
        <ele>1632</ele>
        <time>2011-08-30T13:25:16Z</time>
      </trkpt>
      <trkpt lat="45.6383" lon="6.57173">
        <ele>1632</ele>
        <time>2011-08-30T13:25:26Z</time>
      </trkpt>
      <trkpt lat="45.63832" lon="6.57188">
        <ele>1632</ele>
        <time>2011-08-30T13:25:36Z</time>
      </trkpt>
      <trkpt lat="45.63841" lon="6.57198">
        <ele>1632</ele>
        <time>2011-08-30T13:25:46Z</time>
      </trkpt>
      <trkpt lat="45.63848" lon="6.57205">
        <ele>1632</ele>
        <time>2011-08-30T13:25:57Z</time>
      </trkpt>
      <trkpt lat="45.63856" lon="6.57212">
        <ele>1632</ele>
        <time>2011-08-30T13:26:07Z</time>
      </trkpt>
      <trkpt lat="45.63863" lon="6.57223">
        <ele>1636</ele>
        <time>2011-08-30T13:26:17Z</time>
      </trkpt>
      <trkpt lat="45.63868" lon="6.57234">
        <ele>1644</ele>
        <time>2011-08-30T13:26:27Z</time>
      </trkpt>
      <trkpt lat="45.63879" lon="6.57245">
        <ele>1642</ele>
        <time>2011-08-30T13:26:37Z</time>
      </trkpt>
      <trkpt lat="45.63885" lon="6.57261">
        <ele>1640</ele>
        <time>2011-08-30T13:26:48Z</time>
      </trkpt>
      <trkpt lat="45.63888" lon="6.57273">
        <ele>1641</ele>
        <time>2011-08-30T13:26:58Z</time>
      </trkpt>
      <trkpt lat="45.63893" lon="6.57287">
        <ele>1647</ele>
        <time>2011-08-30T13:27:08Z</time>
      </trkpt>
      <trkpt lat="45.639" lon="6.57302">
        <ele>1652</ele>
        <time>2011-08-30T13:27:18Z</time>
      </trkpt>
      <trkpt lat="45.63906" lon="6.57317">
        <ele>1652</ele>
        <time>2011-08-30T13:27:29Z</time>
      </trkpt>
      <trkpt lat="45.63912" lon="6.57329">
        <ele>1654</ele>
        <time>2011-08-30T13:27:39Z</time>
      </trkpt>
      <trkpt lat="45.63918" lon="6.57343">
        <ele>1654</ele>
        <time>2011-08-30T13:27:49Z</time>
      </trkpt>
      <trkpt lat="45.63925" lon="6.5735">
        <ele>1654</ele>
        <time>2011-08-30T13:27:59Z</time>
      </trkpt>
      <trkpt lat="45.63934" lon="6.57354">
        <ele>1653</ele>
        <time>2011-08-30T13:28:10Z</time>
      </trkpt>
      <trkpt lat="45.63946" lon="6.57354">
        <ele>1650</ele>
        <time>2011-08-30T13:28:20Z</time>
      </trkpt>
      <trkpt lat="45.63956" lon="6.5736">
        <ele>1649</ele>
        <time>2011-08-30T13:28:30Z</time>
      </trkpt>
      <trkpt lat="45.63966" lon="6.57366">
        <ele>1649</ele>
        <time>2011-08-30T13:28:40Z</time>
      </trkpt>
      <trkpt lat="45.63976" lon="6.57376">
        <ele>1649</ele>
        <time>2011-08-30T13:28:51Z</time>
      </trkpt>
      <trkpt lat="45.63986" lon="6.57384">
        <ele>1645</ele>
        <time>2011-08-30T13:29:02Z</time>
      </trkpt>
      <trkpt lat="45.63993" lon="6.57393">
        <ele>1642</ele>
        <time>2011-08-30T13:29:12Z</time>
      </trkpt>
      <trkpt lat="45.63997" lon="6.57408">
        <ele>1638</ele>
        <time>2011-08-30T13:29:23Z</time>
      </trkpt>
      <trkpt lat="45.63998" lon="6.5742">
        <ele>1635</ele>
        <time>2011-08-30T13:29:33Z</time>
      </trkpt>
      <trkpt lat="45.64" lon="6.57433">
        <ele>1633</ele>
        <time>2011-08-30T13:29:43Z</time>
      </trkpt>
      <trkpt lat="45.64009" lon="6.57443">
        <ele>1630</ele>
        <time>2011-08-30T13:29:54Z</time>
      </trkpt>
      <trkpt lat="45.64019" lon="6.57444">
        <ele>1628</ele>
        <time>2011-08-30T13:30:05Z</time>
      </trkpt>
      <trkpt lat="45.6403" lon="6.57448">
        <ele>1624</ele>
        <time>2011-08-30T13:30:16Z</time>
      </trkpt>
      <trkpt lat="45.6404" lon="6.57458">
        <ele>1617</ele>
        <time>2011-08-30T13:30:27Z</time>
      </trkpt>
      <trkpt lat="45.64047" lon="6.57467">
        <ele>1616</ele>
        <time>2011-08-30T13:30:37Z</time>
      </trkpt>
      <trkpt lat="45.64053" lon="6.57476">
        <ele>1616</ele>
        <time>2011-08-30T13:30:47Z</time>
      </trkpt>
      <trkpt lat="45.64055" lon="6.57475">
        <ele>1617</ele>
        <time>2011-08-30T13:31:04Z</time>
      </trkpt>
      <trkpt lat="45.64055" lon="6.57478">
        <ele>1617</ele>
        <time>2011-08-30T13:31:17Z</time>
      </trkpt>
      <trkpt lat="45.64058" lon="6.57478">
        <ele>1614</ele>
        <time>2011-08-30T13:31:27Z</time>
      </trkpt>
      <trkpt lat="45.64061" lon="6.57481">
        <ele>1612</ele>
        <time>2011-08-30T13:31:39Z</time>
      </trkpt>
      <trkpt lat="45.64062" lon="6.57474">
        <ele>1611</ele>
        <time>2011-08-30T13:31:49Z</time>
      </trkpt>
      <trkpt lat="45.64066" lon="6.57471">
        <ele>1611</ele>
        <time>2011-08-30T13:31:59Z</time>
      </trkpt>
      <trkpt lat="45.64072" lon="6.57475">
        <ele>1611</ele>
        <time>2011-08-30T13:32:12Z</time>
      </trkpt>
      <trkpt lat="45.6408" lon="6.57482">
        <ele>1611</ele>
        <time>2011-08-30T13:32:22Z</time>
      </trkpt>
      <trkpt lat="45.6409" lon="6.5749">
        <ele>1608</ele>
        <time>2011-08-30T13:32:33Z</time>
      </trkpt>
      <trkpt lat="45.64097" lon="6.57503">
        <ele>1606</ele>
        <time>2011-08-30T13:32:44Z</time>
      </trkpt>
      <trkpt lat="45.64107" lon="6.57511">
        <ele>1606</ele>
        <time>2011-08-30T13:32:54Z</time>
      </trkpt>
      <trkpt lat="45.64117" lon="6.57517">
        <ele>1603</ele>
        <time>2011-08-30T13:33:04Z</time>
      </trkpt>
      <trkpt lat="45.64125" lon="6.57524">
        <ele>1600</ele>
        <time>2011-08-30T13:33:14Z</time>
      </trkpt>
      <trkpt lat="45.64131" lon="6.57535">
        <ele>1599</ele>
        <time>2011-08-30T13:33:24Z</time>
      </trkpt>
      <trkpt lat="45.64134" lon="6.57533">
        <ele>1598</ele>
        <time>2011-08-30T13:33:34Z</time>
      </trkpt>
      <trkpt lat="45.64135" lon="6.57532">
        <ele>1597</ele>
        <time>2011-08-30T13:33:51Z</time>
      </trkpt>
      <trkpt lat="45.64136" lon="6.57532">
        <ele>1597</ele>
        <time>2011-08-30T13:34:03Z</time>
      </trkpt>
      <trkpt lat="45.64138" lon="6.57529">
        <ele>1601</ele>
        <time>2011-08-30T13:34:17Z</time>
      </trkpt>
      <trkpt lat="45.64138" lon="6.57528">
        <ele>1598</ele>
        <time>2011-08-30T13:35:24Z</time>
      </trkpt>
      <trkpt lat="45.64137" lon="6.57529">
        <ele>1598</ele>
        <time>2011-08-30T13:35:36Z</time>
      </trkpt>
      <trkpt lat="45.64135" lon="6.5753">
        <ele>1600</ele>
        <time>2011-08-30T13:35:53Z</time>
      </trkpt>
      <trkpt lat="45.64137" lon="6.57529">
        <ele>1601</ele>
        <time>2011-08-30T13:36:03Z</time>
      </trkpt>
      <trkpt lat="45.64139" lon="6.57529">
        <ele>1601</ele>
        <time>2011-08-30T13:36:14Z</time>
      </trkpt>
      <trkpt lat="45.64138" lon="6.57529">
        <ele>1599</ele>
        <time>2011-08-30T13:36:57Z</time>
      </trkpt>
      <trkpt lat="45.64135" lon="6.57529">
        <ele>1604</ele>
        <time>2011-08-30T13:37:07Z</time>
      </trkpt>
      <trkpt lat="45.64134" lon="6.5753">
        <ele>1608</ele>
        <time>2011-08-30T13:37:30Z</time>
      </trkpt>
      <trkpt lat="45.64134" lon="6.57532">
        <ele>1609</ele>
        <time>2011-08-30T13:37:40Z</time>
      </trkpt>
      <trkpt lat="45.64133" lon="6.57533">
        <ele>1611</ele>
        <time>2011-08-30T13:38:01Z</time>
      </trkpt>
      <trkpt lat="45.64132" lon="6.57535">
        <ele>1613</ele>
        <time>2011-08-30T13:38:33Z</time>
      </trkpt>
      <trkpt lat="45.6413" lon="6.57534">
        <ele>1618</ele>
        <time>2011-08-30T13:38:49Z</time>
      </trkpt>
      <trkpt lat="45.64132" lon="6.57534">
        <ele>1616</ele>
        <time>2011-08-30T13:39:30Z</time>
      </trkpt>
      <trkpt lat="45.64133" lon="6.57534">
        <ele>1614</ele>
        <time>2011-08-30T13:39:42Z</time>
      </trkpt>
      <trkpt lat="45.64135" lon="6.57534">
        <ele>1609</ele>
        <time>2011-08-30T13:39:54Z</time>
      </trkpt>
      <trkpt lat="45.64133" lon="6.57535">
        <ele>1608</ele>
        <time>2011-08-30T13:40:10Z</time>
      </trkpt>
      <trkpt lat="45.64134" lon="6.57535">
        <ele>1611</ele>
        <time>2011-08-30T13:40:36Z</time>
      </trkpt>
      <trkpt lat="45.64136" lon="6.57532">
        <ele>1605</ele>
        <time>2011-08-30T13:40:50Z</time>
      </trkpt>
      <trkpt lat="45.64138" lon="6.5753">
        <ele>1599</ele>
        <time>2011-08-30T13:41:03Z</time>
      </trkpt>
      <trkpt lat="45.6414" lon="6.57529">
        <ele>1599</ele>
        <time>2011-08-30T13:41:16Z</time>
      </trkpt>
      <trkpt lat="45.64138" lon="6.57529">
        <ele>1593</ele>
        <time>2011-08-30T13:42:10Z</time>
      </trkpt>
      <trkpt lat="45.6414" lon="6.57528">
        <ele>1590</ele>
        <time>2011-08-30T13:43:20Z</time>
      </trkpt>
      <trkpt lat="45.64141" lon="6.57527">
        <ele>1587</ele>
        <time>2011-08-30T13:44:21Z</time>
      </trkpt>
      <trkpt lat="45.6414" lon="6.57534">
        <ele>1586</ele>
        <time>2011-08-30T13:44:42Z</time>
      </trkpt>
      <trkpt lat="45.64139" lon="6.57532">
        <ele>1587</ele>
        <time>2011-08-30T13:45:00Z</time>
      </trkpt>
      <trkpt lat="45.64139" lon="6.5753">
        <ele>1582</ele>
        <time>2011-08-30T13:45:12Z</time>
      </trkpt>
      <trkpt lat="45.6414" lon="6.57527">
        <ele>1569</ele>
        <time>2011-08-30T13:45:33Z</time>
      </trkpt>
      <trkpt lat="45.64141" lon="6.57526">
        <ele>1565</ele>
        <time>2011-08-30T13:45:50Z</time>
      </trkpt>
      <trkpt lat="45.6414" lon="6.57526">
        <ele>1560</ele>
        <time>2011-08-30T13:46:13Z</time>
      </trkpt>
      <trkpt lat="45.64133" lon="6.57521">
        <ele>1566</ele>
        <time>2011-08-30T13:46:24Z</time>
      </trkpt>
      <trkpt lat="45.64126" lon="6.57512">
        <ele>1569</ele>
        <time>2011-08-30T13:46:35Z</time>
      </trkpt>
      <trkpt lat="45.64116" lon="6.57505">
        <ele>1572</ele>
        <time>2011-08-30T13:46:48Z</time>
      </trkpt>
      <trkpt lat="45.64105" lon="6.57503">
        <ele>1572</ele>
        <time>2011-08-30T13:46:58Z</time>
      </trkpt>
      <trkpt lat="45.64093" lon="6.57495">
        <ele>1572</ele>
        <time>2011-08-30T13:47:09Z</time>
      </trkpt>
      <trkpt lat="45.64092" lon="6.57506">
        <ele>1572</ele>
        <time>2011-08-30T13:47:20Z</time>
      </trkpt>
      <trkpt lat="45.64095" lon="6.57519">
        <ele>1572</ele>
        <time>2011-08-30T13:47:30Z</time>
      </trkpt>
      <trkpt lat="45.64099" lon="6.57536">
        <ele>1572</ele>
        <time>2011-08-30T13:47:42Z</time>
      </trkpt>
      <trkpt lat="45.64106" lon="6.57552">
        <ele>1572</ele>
        <time>2011-08-30T13:47:52Z</time>
      </trkpt>
      <trkpt lat="45.64115" lon="6.57568">
        <ele>1572</ele>
        <time>2011-08-30T13:48:02Z</time>
      </trkpt>
      <trkpt lat="45.64119" lon="6.57575">
        <ele>1572</ele>
        <time>2011-08-30T13:48:13Z</time>
      </trkpt>
      <trkpt lat="45.64127" lon="6.57587">
        <ele>1572</ele>
        <time>2011-08-30T13:48:23Z</time>
      </trkpt>
      <trkpt lat="45.64137" lon="6.57596">
        <ele>1572</ele>
        <time>2011-08-30T13:48:33Z</time>
      </trkpt>
      <trkpt lat="45.64149" lon="6.57601">
        <ele>1574</ele>
        <time>2011-08-30T13:48:44Z</time>
      </trkpt>
      <trkpt lat="45.64162" lon="6.57594">
        <ele>1574</ele>
        <time>2011-08-30T13:48:54Z</time>
      </trkpt>
      <trkpt lat="45.64177" lon="6.57584">
        <ele>1571</ele>
        <time>2011-08-30T13:49:06Z</time>
      </trkpt>
      <trkpt lat="45.64182" lon="6.57586">
        <ele>1570</ele>
        <time>2011-08-30T13:49:18Z</time>
      </trkpt>
      <trkpt lat="45.64191" lon="6.57592">
        <ele>1570</ele>
        <time>2011-08-30T13:49:29Z</time>
      </trkpt>
      <trkpt lat="45.64201" lon="6.57597">
        <ele>1570</ele>
        <time>2011-08-30T13:49:39Z</time>
      </trkpt>
      <trkpt lat="45.6421" lon="6.57603">
        <ele>1570</ele>
        <time>2011-08-30T13:49:50Z</time>
      </trkpt>
      <trkpt lat="45.64218" lon="6.57611">
        <ele>1568</ele>
        <time>2011-08-30T13:50:00Z</time>
      </trkpt>
      <trkpt lat="45.64225" lon="6.57619">
        <ele>1563</ele>
        <time>2011-08-30T13:50:10Z</time>
      </trkpt>
      <trkpt lat="45.64235" lon="6.57625">
        <ele>1555</ele>
        <time>2011-08-30T13:50:21Z</time>
      </trkpt>
      <trkpt lat="45.64246" lon="6.57629">
        <ele>1548</ele>
        <time>2011-08-30T13:50:32Z</time>
      </trkpt>
      <trkpt lat="45.64254" lon="6.57633">
        <ele>1544</ele>
        <time>2011-08-30T13:50:42Z</time>
      </trkpt>
      <trkpt lat="45.64265" lon="6.57641">
        <ele>1544</ele>
        <time>2011-08-30T13:50:53Z</time>
      </trkpt>
      <trkpt lat="45.64273" lon="6.57651">
        <ele>1544</ele>
        <time>2011-08-30T13:51:03Z</time>
      </trkpt>
      <trkpt lat="45.64285" lon="6.57655">
        <ele>1546</ele>
        <time>2011-08-30T13:51:15Z</time>
      </trkpt>
      <trkpt lat="45.64293" lon="6.57663">
        <ele>1554</ele>
        <time>2011-08-30T13:51:26Z</time>
      </trkpt>
      <trkpt lat="45.64304" lon="6.57663">
        <ele>1558</ele>
        <time>2011-08-30T13:51:38Z</time>
      </trkpt>
      <trkpt lat="45.64316" lon="6.57664">
        <ele>1558</ele>
        <time>2011-08-30T13:51:48Z</time>
      </trkpt>
      <trkpt lat="45.64328" lon="6.57668">
        <ele>1558</ele>
        <time>2011-08-30T13:51:59Z</time>
      </trkpt>
      <trkpt lat="45.64333" lon="6.57679">
        <ele>1559</ele>
        <time>2011-08-30T13:52:10Z</time>
      </trkpt>
      <trkpt lat="45.64343" lon="6.57679">
        <ele>1565</ele>
        <time>2011-08-30T13:52:21Z</time>
      </trkpt>
      <trkpt lat="45.64356" lon="6.57686">
        <ele>1565</ele>
        <time>2011-08-30T13:52:31Z</time>
      </trkpt>
      <trkpt lat="45.6436" lon="6.57697">
        <ele>1575</ele>
        <time>2011-08-30T13:52:42Z</time>
      </trkpt>
      <trkpt lat="45.64368" lon="6.57697">
        <ele>1586</ele>
        <time>2011-08-30T13:52:52Z</time>
      </trkpt>
      <trkpt lat="45.64376" lon="6.57711">
        <ele>1591</ele>
        <time>2011-08-30T13:53:03Z</time>
      </trkpt>
      <trkpt lat="45.64389" lon="6.57714">
        <ele>1602</ele>
        <time>2011-08-30T13:53:14Z</time>
      </trkpt>
      <trkpt lat="45.644" lon="6.57714">
        <ele>1602</ele>
        <time>2011-08-30T13:53:25Z</time>
      </trkpt>
      <trkpt lat="45.64411" lon="6.57716">
        <ele>1605</ele>
        <time>2011-08-30T13:53:35Z</time>
      </trkpt>
      <trkpt lat="45.64421" lon="6.57722">
        <ele>1608</ele>
        <time>2011-08-30T13:53:45Z</time>
      </trkpt>
      <trkpt lat="45.64433" lon="6.57724">
        <ele>1609</ele>
        <time>2011-08-30T13:53:57Z</time>
      </trkpt>
      <trkpt lat="45.64446" lon="6.57721">
        <ele>1608</ele>
        <time>2011-08-30T13:54:07Z</time>
      </trkpt>
      <trkpt lat="45.64459" lon="6.57719">
        <ele>1603</ele>
        <time>2011-08-30T13:54:19Z</time>
      </trkpt>
      <trkpt lat="45.64473" lon="6.57715">
        <ele>1593</ele>
        <time>2011-08-30T13:54:30Z</time>
      </trkpt>
      <trkpt lat="45.64483" lon="6.57722">
        <ele>1593</ele>
        <time>2011-08-30T13:54:41Z</time>
      </trkpt>
      <trkpt lat="45.64497" lon="6.57718">
        <ele>1584</ele>
        <time>2011-08-30T13:54:51Z</time>
      </trkpt>
      <trkpt lat="45.6451" lon="6.5772">
        <ele>1577</ele>
        <time>2011-08-30T13:55:02Z</time>
      </trkpt>
      <trkpt lat="45.64524" lon="6.57721">
        <ele>1570</ele>
        <time>2011-08-30T13:55:13Z</time>
      </trkpt>
      <trkpt lat="45.64536" lon="6.57722">
        <ele>1562</ele>
        <time>2011-08-30T13:55:23Z</time>
      </trkpt>
      <trkpt lat="45.64548" lon="6.57725">
        <ele>1561</ele>
        <time>2011-08-30T13:55:33Z</time>
      </trkpt>
      <trkpt lat="45.64559" lon="6.57722">
        <ele>1560</ele>
        <time>2011-08-30T13:55:43Z</time>
      </trkpt>
      <trkpt lat="45.64572" lon="6.57726">
        <ele>1556</ele>
        <time>2011-08-30T13:55:54Z</time>
      </trkpt>
      <trkpt lat="45.64581" lon="6.57736">
        <ele>1558</ele>
        <time>2011-08-30T13:56:04Z</time>
      </trkpt>
      <trkpt lat="45.64587" lon="6.57751">
        <ele>1575</ele>
        <time>2011-08-30T13:56:14Z</time>
      </trkpt>
      <trkpt lat="45.64598" lon="6.57747">
        <ele>1589</ele>
        <time>2011-08-30T13:56:25Z</time>
      </trkpt>
      <trkpt lat="45.64611" lon="6.5774">
        <ele>1590</ele>
        <time>2011-08-30T13:56:35Z</time>
      </trkpt>
      <trkpt lat="45.64624" lon="6.57739">
        <ele>1587</ele>
        <time>2011-08-30T13:56:45Z</time>
      </trkpt>
      <trkpt lat="45.64638" lon="6.57735">
        <ele>1580</ele>
        <time>2011-08-30T13:56:55Z</time>
      </trkpt>
      <trkpt lat="45.64651" lon="6.57738">
        <ele>1570</ele>
        <time>2011-08-30T13:57:05Z</time>
      </trkpt>
      <trkpt lat="45.64664" lon="6.57736">
        <ele>1566</ele>
        <time>2011-08-30T13:57:15Z</time>
      </trkpt>
      <trkpt lat="45.64675" lon="6.57742">
        <ele>1567</ele>
        <time>2011-08-30T13:57:27Z</time>
      </trkpt>
      <trkpt lat="45.64685" lon="6.57747">
        <ele>1575</ele>
        <time>2011-08-30T13:57:37Z</time>
      </trkpt>
      <trkpt lat="45.64698" lon="6.57749">
        <ele>1582</ele>
        <time>2011-08-30T13:57:48Z</time>
      </trkpt>
      <trkpt lat="45.64709" lon="6.5775">
        <ele>1588</ele>
        <time>2011-08-30T13:57:58Z</time>
      </trkpt>
      <trkpt lat="45.64721" lon="6.57748">
        <ele>1581</ele>
        <time>2011-08-30T13:58:08Z</time>
      </trkpt>
      <trkpt lat="45.64734" lon="6.57743">
        <ele>1571</ele>
        <time>2011-08-30T13:58:18Z</time>
      </trkpt>
      <trkpt lat="45.64747" lon="6.5774">
        <ele>1564</ele>
        <time>2011-08-30T13:58:29Z</time>
      </trkpt>
      <trkpt lat="45.64758" lon="6.57745">
        <ele>1563</ele>
        <time>2011-08-30T13:58:40Z</time>
      </trkpt>
      <trkpt lat="45.64768" lon="6.57754">
        <ele>1562</ele>
        <time>2011-08-30T13:58:50Z</time>
      </trkpt>
      <trkpt lat="45.64781" lon="6.57754">
        <ele>1562</ele>
        <time>2011-08-30T13:59:01Z</time>
      </trkpt>
      <trkpt lat="45.64793" lon="6.57751">
        <ele>1562</ele>
        <time>2011-08-30T13:59:12Z</time>
      </trkpt>
      <trkpt lat="45.64804" lon="6.57753">
        <ele>1566</ele>
        <time>2011-08-30T13:59:22Z</time>
      </trkpt>
      <trkpt lat="45.64818" lon="6.57755">
        <ele>1572</ele>
        <time>2011-08-30T13:59:35Z</time>
      </trkpt>
      <trkpt lat="45.64829" lon="6.57756">
        <ele>1572</ele>
        <time>2011-08-30T13:59:45Z</time>
      </trkpt>
      <trkpt lat="45.64841" lon="6.57756">
        <ele>1569</ele>
        <time>2011-08-30T13:59:55Z</time>
      </trkpt>
      <trkpt lat="45.64852" lon="6.57762">
        <ele>1569</ele>
        <time>2011-08-30T14:00:05Z</time>
      </trkpt>
      <trkpt lat="45.64863" lon="6.57768">
        <ele>1575</ele>
        <time>2011-08-30T14:00:16Z</time>
      </trkpt>
      <trkpt lat="45.64876" lon="6.57768">
        <ele>1569</ele>
        <time>2011-08-30T14:00:27Z</time>
      </trkpt>
      <trkpt lat="45.64886" lon="6.57781">
        <ele>1574</ele>
        <time>2011-08-30T14:00:38Z</time>
      </trkpt>
      <trkpt lat="45.64901" lon="6.5778">
        <ele>1576</ele>
        <time>2011-08-30T14:00:50Z</time>
      </trkpt>
      <trkpt lat="45.64907" lon="6.57779">
        <ele>1571</ele>
        <time>2011-08-30T14:01:01Z</time>
      </trkpt>
      <trkpt lat="45.64907" lon="6.57781">
        <ele>1572</ele>
        <time>2011-08-30T14:01:13Z</time>
      </trkpt>
      <trkpt lat="45.64939" lon="6.578">
        <ele>1574</ele>
        <time>2011-08-30T14:02:29Z</time>
      </trkpt>
      <trkpt lat="45.64954" lon="6.57789">
        <ele>1571</ele>
        <time>2011-08-30T14:02:40Z</time>
      </trkpt>
      <trkpt lat="45.64968" lon="6.57787">
        <ele>1566</ele>
        <time>2011-08-30T14:02:53Z</time>
      </trkpt>
      <trkpt lat="45.64979" lon="6.57783">
        <ele>1562</ele>
        <time>2011-08-30T14:03:03Z</time>
      </trkpt>
      <trkpt lat="45.64987" lon="6.57795">
        <ele>1567</ele>
        <time>2011-08-30T14:03:15Z</time>
      </trkpt>
      <trkpt lat="45.64998" lon="6.57806">
        <ele>1578</ele>
        <time>2011-08-30T14:03:28Z</time>
      </trkpt>
      <trkpt lat="45.65012" lon="6.57816">
        <ele>1583</ele>
        <time>2011-08-30T14:03:45Z</time>
      </trkpt>
      <trkpt lat="45.65021" lon="6.57831">
        <ele>1598</ele>
        <time>2011-08-30T14:03:57Z</time>
      </trkpt>
      <trkpt lat="45.65032" lon="6.57832">
        <ele>1610</ele>
        <time>2011-08-30T14:04:08Z</time>
      </trkpt>
      <trkpt lat="45.65046" lon="6.57817">
        <ele>1601</ele>
        <time>2011-08-30T14:04:18Z</time>
      </trkpt>
      <trkpt lat="45.65052" lon="6.57809">
        <ele>1573</ele>
        <time>2011-08-30T14:04:30Z</time>
      </trkpt>
      <trkpt lat="45.65045" lon="6.57818">
        <ele>1557</ele>
        <time>2011-08-30T14:04:41Z</time>
      </trkpt>
      <trkpt lat="45.65037" lon="6.5783">
        <ele>1554</ele>
        <time>2011-08-30T14:04:52Z</time>
      </trkpt>
      <trkpt lat="45.65031" lon="6.57842">
        <ele>1554</ele>
        <time>2011-08-30T14:05:02Z</time>
      </trkpt>
      <trkpt lat="45.65026" lon="6.57855">
        <ele>1554</ele>
        <time>2011-08-30T14:05:12Z</time>
      </trkpt>
      <trkpt lat="45.6502" lon="6.57873">
        <ele>1554</ele>
        <time>2011-08-30T14:05:23Z</time>
      </trkpt>
      <trkpt lat="45.65017" lon="6.57889">
        <ele>1554</ele>
        <time>2011-08-30T14:05:33Z</time>
      </trkpt>
      <trkpt lat="45.65015" lon="6.57906">
        <ele>1554</ele>
        <time>2011-08-30T14:05:43Z</time>
      </trkpt>
      <trkpt lat="45.65015" lon="6.57922">
        <ele>1554</ele>
        <time>2011-08-30T14:05:53Z</time>
      </trkpt>
      <trkpt lat="45.65016" lon="6.5794">
        <ele>1554</ele>
        <time>2011-08-30T14:06:04Z</time>
      </trkpt>
      <trkpt lat="45.65019" lon="6.57955">
        <ele>1554</ele>
        <time>2011-08-30T14:06:14Z</time>
      </trkpt>
      <trkpt lat="45.65023" lon="6.57971">
        <ele>1553</ele>
        <time>2011-08-30T14:06:25Z</time>
      </trkpt>
      <trkpt lat="45.65028" lon="6.57985">
        <ele>1553</ele>
        <time>2011-08-30T14:06:35Z</time>
      </trkpt>
      <trkpt lat="45.65034" lon="6.57997">
        <ele>1552</ele>
        <time>2011-08-30T14:06:45Z</time>
      </trkpt>
      <trkpt lat="45.65039" lon="6.58008">
        <ele>1551</ele>
        <time>2011-08-30T14:06:55Z</time>
      </trkpt>
      <trkpt lat="45.65047" lon="6.58017">
        <ele>1550</ele>
        <time>2011-08-30T14:07:05Z</time>
      </trkpt>
      <trkpt lat="45.65054" lon="6.58026">
        <ele>1548</ele>
        <time>2011-08-30T14:07:15Z</time>
      </trkpt>
      <trkpt lat="45.65062" lon="6.5804">
        <ele>1548</ele>
        <time>2011-08-30T14:07:25Z</time>
      </trkpt>
      <trkpt lat="45.65066" lon="6.58055">
        <ele>1554</ele>
        <time>2011-08-30T14:07:36Z</time>
      </trkpt>
      <trkpt lat="45.65063" lon="6.58069">
        <ele>1554</ele>
        <time>2011-08-30T14:07:46Z</time>
      </trkpt>
      <trkpt lat="45.65063" lon="6.58084">
        <ele>1554</ele>
        <time>2011-08-30T14:07:57Z</time>
      </trkpt>
      <trkpt lat="45.65067" lon="6.58097">
        <ele>1554</ele>
        <time>2011-08-30T14:08:07Z</time>
      </trkpt>
      <trkpt lat="45.65071" lon="6.5811">
        <ele>1555</ele>
        <time>2011-08-30T14:08:17Z</time>
      </trkpt>
      <trkpt lat="45.65077" lon="6.58125">
        <ele>1555</ele>
        <time>2011-08-30T14:08:29Z</time>
      </trkpt>
      <trkpt lat="45.65083" lon="6.58139">
        <ele>1555</ele>
        <time>2011-08-30T14:08:41Z</time>
      </trkpt>
      <trkpt lat="45.65088" lon="6.58154">
        <ele>1555</ele>
        <time>2011-08-30T14:08:51Z</time>
      </trkpt>
      <trkpt lat="45.65093" lon="6.58168">
        <ele>1555</ele>
        <time>2011-08-30T14:09:01Z</time>
      </trkpt>
      <trkpt lat="45.65098" lon="6.58182">
        <ele>1555</ele>
        <time>2011-08-30T14:09:12Z</time>
      </trkpt>
      <trkpt lat="45.65102" lon="6.58199">
        <ele>1555</ele>
        <time>2011-08-30T14:09:24Z</time>
      </trkpt>
      <trkpt lat="45.65106" lon="6.58215">
        <ele>1555</ele>
        <time>2011-08-30T14:09:35Z</time>
      </trkpt>
      <trkpt lat="45.65108" lon="6.58229">
        <ele>1555</ele>
        <time>2011-08-30T14:09:46Z</time>
      </trkpt>
      <trkpt lat="45.65111" lon="6.58244">
        <ele>1555</ele>
        <time>2011-08-30T14:09:57Z</time>
      </trkpt>
      <trkpt lat="45.65119" lon="6.58248">
        <ele>1556</ele>
        <time>2011-08-30T14:10:07Z</time>
      </trkpt>
      <trkpt lat="45.65122" lon="6.58233">
        <ele>1557</ele>
        <time>2011-08-30T14:10:18Z</time>
      </trkpt>
      <trkpt lat="45.65118" lon="6.5822">
        <ele>1564</ele>
        <time>2011-08-30T14:10:28Z</time>
      </trkpt>
      <trkpt lat="45.65115" lon="6.58205">
        <ele>1569</ele>
        <time>2011-08-30T14:10:38Z</time>
      </trkpt>
      <trkpt lat="45.65115" lon="6.58187">
        <ele>1576</ele>
        <time>2011-08-30T14:10:49Z</time>
      </trkpt>
      <trkpt lat="45.65112" lon="6.58168">
        <ele>1577</ele>
        <time>2011-08-30T14:11:00Z</time>
      </trkpt>
      <trkpt lat="45.65107" lon="6.58154">
        <ele>1577</ele>
        <time>2011-08-30T14:11:11Z</time>
      </trkpt>
      <trkpt lat="45.65103" lon="6.58138">
        <ele>1579</ele>
        <time>2011-08-30T14:11:21Z</time>
      </trkpt>
      <trkpt lat="45.65101" lon="6.58122">
        <ele>1580</ele>
        <time>2011-08-30T14:11:32Z</time>
      </trkpt>
      <trkpt lat="45.65099" lon="6.58109">
        <ele>1581</ele>
        <time>2011-08-30T14:11:43Z</time>
      </trkpt>
      <trkpt lat="45.651" lon="6.58097">
        <ele>1581</ele>
        <time>2011-08-30T14:11:53Z</time>
      </trkpt>
      <trkpt lat="45.65102" lon="6.58085">
        <ele>1581</ele>
        <time>2011-08-30T14:12:04Z</time>
      </trkpt>
      <trkpt lat="45.65104" lon="6.58083">
        <ele>1582</ele>
        <time>2011-08-30T14:12:09Z</time>
      </trkpt>
    </trkseg>
  </trk>
</gpx>